[[{"header":{"parameterUnit":"m.s-1","parameterCategory":1,"la1":30.6,"la2":29.2853,"lo1":-89.7004,"lo2":-87.6739,"dy":0.0162,"dx":0.0183,"nx":112,"ny":82,"refTime":"2023-03-14T18:00:00:Z","depth":0,"parameterNumber":2,"parameterNumberName":"U-component_of_WINDS"},"data":[0.0,0.0,0.0,0.0,0.0,0.0,0.0,0.0,0.0,0.0,0.0,0.0,0.0,0.0,0.0,0.0,0.0,0.0,0.0,0.0,0.0,0.0,0.0,0.0,0.0,0.0,0.0,0.0,0.0,0.0,0.0,0.0,0.0,0.0,0.0,0.0,0.0,0.0,0.0,0.0,0.0,0.0,0.0,0.0,0.0,0.0,0.0,0.0,0.0,0.0,0.0,0.0,0.0,0.0,0.0,0.0,0.0,0.0,0.0,0.0,0.0,0.0,0.0,0.0,0.0,0.0,0.0,0.0,0.0,0.0,0.0,0.0,0.0,0.0,0.0,0.0,0.0,0.0,0.0,0.0,0.0,0.0,0.0,0.0,0.0,0.0,0.0,0.0,0.0,0.0,-1.8563,-1.9151,-2.1886,-2.3094,-2.1691,-2.1115,-1.9068,-1.4948,0.0,0.0,0.0,0.0,0.0,0.0,0.0,0.0,0.0,0.0,0.0,0.0,0.0,0.0,0.0,0.0,0.0,0.0,0.0,0.0,0.0,0.0,0.0,0.0,0.0,0.0,0.0,0.0,0.0,0.0,0.0,0.0,0.0,0.0,0.0,0.0,0.0,0.0,0.0,0.0,0.0,0.0,0.0,0.0,0.0,0.0,0.0,0.0,0.0,0.0,0.0,0.0,0.0,0.0,0.0,0.0,0.0,0.0,0.0,0.0,0.0,0.0,0.0,0.0,0.0,0.0,0.0,0.0,0.0,0.0,0.0,0.0,0.0,0.0,0.0,0.0,0.0,0.0,0.0,0.0,0.0,0.0,0.0,0.0,0.0,0.0,0.0,0.0,0.0,0.0,0.0,0.0,0.0,0.0,0.0,0.0,0.0,0.0,0.0,0.0,0.0,0.0,0.0,0.0,-1.9223,-2.3349,-2.4132,-2.3798,-2.2445,-1.9588,-1.7042,-1.5147,0.0,0.0,0.0,0.0,0.0,0.0,0.0,0.0,0.0,0.0,0.0,0.0,0.0,0.0,0.0,0.0,0.0,0.0,0.0,0.0,0.0,0.0,0.0,0.0,0.0,0.0,0.0,0.0,0.0,0.0,0.0,0.0,0.0,0.0,0.0,0.0,0.0,0.0,0.0,0.0,0.0,0.0,0.0,0.0,0.0,0.0,0.0,0.0,0.0,0.0,0.0,0.0,0.0,0.0,0.0,0.0,0.0,0.0,0.0,0.0,0.0,0.0,0.0,0.0,0.0,0.0,0.0,0.0,0.0,0.0,0.0,0.0,0.0,0.0,0.0,0.0,0.0,0.0,0.0,0.0,0.0,0.0,0.0,0.0,0.0,0.0,0.0,0.0,0.0,0.0,0.0,0.0,0.0,0.0,0.0,0.0,0.0,0.0,0.0,0.0,0.0,0.0,0.0,-1.8555,-2.0401,-2.4036,-2.4239,-2.3367,-2.1464,-1.8854,-1.6514,-1.4619,-1.3465,0.0,0.0,0.0,0.0,0.0,0.0,0.0,0.0,0.0,0.0,0.0,0.0,0.0,0.0,0.0,0.0,0.0,0.0,0.0,0.0,0.0,0.0,0.0,0.0,0.0,0.0,0.0,0.0,0.0,0.0,0.0,0.0,0.0,0.0,0.0,0.0,0.0,0.0,0.0,0.0,0.0,0.0,0.0,0.0,0.0,0.0,0.0,0.0,0.0,0.0,0.0,0.0,0.0,0.0,0.0,0.0,0.0,0.0,0.0,0.0,0.0,0.0,0.0,0.0,0.0,0.0,0.0,0.0,0.0,0.0,0.0,0.0,0.0,0.0,0.0,0.0,0.0,0.0,0.0,0.0,0.0,0.0,0.0,0.0,0.0,0.0,0.0,0.0,0.0,0.0,0.0,0.0,0.0,0.0,0.0,0.0,0.0,0.0,0.0,0.0,0.0,0.0,-2.0403,-2.1409,-2.3552,-2.3421,-2.2399,-2.0425,-1.8147,-1.5988,-1.4075,-1.2284,0.0,0.0,0.0,0.0,0.0,0.0,0.0,0.0,0.0,0.0,0.0,0.0,0.0,0.0,0.0,0.0,0.0,0.0,0.0,0.0,0.0,0.0,0.0,0.0,0.0,0.0,0.0,0.0,0.0,0.0,0.0,0.0,0.0,0.0,0.0,0.0,0.0,0.0,0.0,0.0,0.0,0.0,0.0,0.0,0.0,0.0,0.0,0.0,0.0,0.0,0.0,0.0,0.0,0.0,0.0,0.0,0.0,0.0,0.0,0.0,0.0,0.0,0.0,0.0,0.0,0.0,0.0,0.0,0.0,0.0,0.0,0.0,0.0,0.0,0.0,0.0,0.0,0.0,0.0,0.0,0.0,0.0,0.0,0.0,0.0,0.0,0.0,0.0,0.0,0.0,0.0,0.0,0.0,0.0,0.0,0.0,0.0,0.0,0.0,0.0,0.0,0.0,-1.9514,-2.1793,-2.2797,-2.199,-2.1041,-2.0193,-1.7028,-1.4716,-1.3876,-1.2223,0.0,0.0,0.0,0.0,0.0,0.0,0.0,0.0,0.0,0.0,0.0,0.0,0.0,0.0,0.0,0.0,0.0,0.0,0.0,0.0,0.0,0.0,0.0,0.0,0.0,0.0,0.0,0.0,0.0,0.0,0.0,0.0,0.0,0.0,0.0,0.0,0.0,0.0,0.0,0.0,0.0,0.0,0.0,0.0,0.0,0.0,0.0,0.0,0.0,0.0,0.0,0.0,0.0,0.0,0.0,0.0,0.0,0.0,0.0,0.0,0.0,0.0,0.0,0.0,0.0,0.0,0.0,0.0,0.0,0.0,0.0,0.0,0.0,0.0,0.0,0.0,0.0,0.0,0.0,0.0,0.0,0.0,0.0,0.0,0.0,0.0,0.0,0.0,0.0,0.0,0.0,0.0,0.0,0.0,0.0,0.0,0.0,0.0,0.0,0.0,0.0,0.0,-1.7779,-1.9517,-2.0331,-2.0067,-1.9071,-1.7137,-1.5281,-1.3648,-1.2329,0.0,0.0,0.0,0.0,0.0,0.0,0.0,0.0,0.0,0.0,0.0,0.0,0.0,0.0,0.0,0.0,0.0,0.0,0.0,0.0,0.0,0.0,0.0,0.0,0.0,0.0,0.0,0.0,0.0,0.0,0.0,0.0,0.0,0.0,0.0,0.0,0.0,0.0,0.0,0.0,0.0,0.0,0.0,0.0,0.0,0.0,0.0,0.0,0.0,0.0,0.0,0.0,0.0,0.0,0.0,0.0,0.0,0.0,0.0,0.0,0.0,0.0,0.0,0.0,0.0,0.0,0.0,0.0,0.0,0.0,0.0,0.0,0.0,0.0,0.0,0.0,0.0,0.0,0.0,0.0,0.0,0.0,0.0,0.0,0.0,0.0,0.0,0.0,0.0,0.0,0.0,0.0,0.0,0.0,0.0,0.0,0.0,0.0,0.0,0.0,0.0,0.0,-1.533,-1.6745,-1.7982,-1.8523,-1.8098,-1.7025,-1.5189,-1.3764,-1.2484,-1.1333,0.0,0.0,0.0,0.0,0.0,0.0,0.0,0.0,0.0,0.0,0.0,0.0,0.0,0.0,0.0,0.0,0.0,0.0,0.0,0.0,0.0,0.0,0.0,0.0,0.0,0.0,0.0,0.0,0.0,0.0,0.0,0.0,0.0,0.0,0.0,0.0,0.0,0.0,0.0,0.0,0.0,0.0,0.0,0.0,0.0,0.0,0.0,0.0,0.0,0.0,0.0,0.0,0.0,0.0,0.0,0.0,0.0,0.0,0.0,0.0,0.0,0.0,0.0,0.0,0.0,0.0,0.0,0.0,0.0,0.0,0.0,0.0,0.0,0.0,0.0,0.0,0.0,0.0,0.0,0.0,0.0,0.0,0.0,0.0,0.0,0.0,0.0,0.0,0.0,0.0,0.0,0.0,0.0,0.0,0.0,0.0,0.0,0.0,0.0,0.0,0.0,0.0,-1.5392,-1.6684,-1.7676,-1.768,-1.6131,-1.5033,-1.4883,-1.2616,-1.1196,0.0,0.0,0.0,0.0,0.0,0.0,0.0,0.0,0.0,0.0,0.0,0.0,0.0,0.0,0.0,0.0,0.0,0.0,0.0,0.0,0.0,0.0,0.0,0.0,0.0,0.0,0.0,0.0,0.0,0.0,0.0,0.0,0.0,0.0,0.0,0.0,0.0,0.0,0.0,0.0,0.0,0.0,0.0,0.0,0.0,0.0,0.0,0.0,0.0,0.0,0.0,0.0,0.0,0.0,0.0,0.0,0.0,0.0,0.0,0.0,0.0,0.0,0.0,0.0,0.0,0.0,0.0,0.0,0.0,0.0,0.0,0.0,0.0,0.0,0.0,0.0,0.0,0.0,0.0,0.0,0.0,0.0,0.0,0.0,0.0,0.0,0.0,0.0,0.0,0.0,0.0,0.0,0.0,0.0,0.0,0.0,0.0,0.0,0.0,0.0,0.0,0.0,0.0,-1.4359,-1.511,-1.5742,-1.5795,-1.4748,-1.3758,-1.3055,-1.1843,-1.0872,-1.0252,0.0,0.0,0.0,0.0,0.0,0.0,0.0,0.0,0.0,0.0,0.0,0.0,0.0,0.0,0.0,0.0,0.0,0.0,0.0,0.0,0.0,0.0,0.0,0.0,0.0,0.0,0.0,0.0,0.0,0.0,0.0,0.0,0.0,0.0,0.0,0.0,0.0,0.0,0.0,0.0,0.0,0.0,0.0,0.0,0.0,0.0,0.0,0.0,0.0,0.0,0.0,0.0,0.0,0.0,0.0,0.0,0.0,0.0,0.0,0.0,0.0,0.0,0.0,0.0,0.0,0.0,0.0,0.0,0.0,0.0,0.0,0.0,0.0,0.0,0.0,0.0,0.0,0.0,0.0,0.0,0.0,0.0,0.0,0.0,0.0,0.0,0.0,0.0,0.0,0.0,0.0,0.0,0.0,0.0,0.0,0.0,0.0,0.0,0.0,0.0,0.0,0.0,-1.422,-1.4286,-1.4348,-1.4368,-1.3595,-1.2707,-1.1752,-1.0971,-1.0329,-0.9789,0.0,0.0,0.0,0.0,0.0,0.0,0.0,0.0,0.0,0.0,0.0,0.0,0.0,0.0,0.0,0.0,0.0,0.0,0.0,0.0,0.0,0.0,0.0,0.0,0.0,0.0,0.0,0.0,0.0,0.0,0.0,0.0,0.0,0.0,0.0,0.0,0.0,0.0,0.0,0.0,0.0,0.0,0.0,0.0,0.0,0.0,0.0,0.0,0.0,0.0,0.0,0.0,0.0,0.0,0.0,0.0,0.0,0.0,0.0,0.0,0.0,0.0,0.0,0.0,0.0,0.0,0.0,0.0,0.0,0.0,0.0,0.0,0.0,0.0,0.0,0.0,0.0,0.0,0.0,0.0,0.0,0.0,0.0,0.0,0.0,0.0,0.0,0.0,0.0,0.0,0.0,0.0,0.0,0.0,0.0,0.0,0.0,0.0,0.0,0.0,0.0,0.0,-1.4535,-1.3919,-1.3439,-1.343,-1.2644,-1.1822,-1.1031,-1.0157,-0.9668,-0.9679,0.0,0.0,0.0,0.0,0.0,0.0,0.0,0.0,0.0,0.0,0.0,0.0,0.0,0.0,0.0,0.0,0.0,0.0,0.0,0.0,0.0,0.0,0.0,0.0,0.0,0.0,0.0,0.0,0.0,0.0,0.0,0.0,0.0,0.0,0.0,0.0,0.0,0.0,0.0,0.0,0.0,0.0,0.0,0.0,0.0,0.0,0.0,0.0,0.0,0.0,0.0,0.0,0.0,0.0,0.0,0.0,0.0,0.0,0.0,0.0,-2.1588,-2.2454,0.0,0.0,0.0,0.0,0.0,0.0,0.0,0.0,0.0,0.0,0.0,0.0,0.0,0.0,0.0,0.0,0.0,0.0,0.0,0.0,0.0,0.0,0.0,0.0,0.0,0.0,0.0,0.0,0.0,0.0,0.0,0.0,0.0,0.0,0.0,0.0,0.0,0.0,0.0,0.0,-1.3396,-1.3105,-1.3136,-1.359,-1.1986,-1.1031,-1.1411,-1.0178,-0.9413,-0.9461,-0.9629,0.0,0.0,0.0,0.0,0.0,0.0,0.0,0.0,0.0,0.0,0.0,0.0,0.0,0.0,0.0,0.0,0.0,0.0,0.0,0.0,0.0,0.0,0.0,0.0,0.0,0.0,0.0,0.0,0.0,0.0,0.0,0.0,0.0,0.0,0.0,0.0,0.0,0.0,0.0,0.0,0.0,0.0,0.0,0.0,0.0,0.0,0.0,0.0,0.0,0.0,0.0,0.0,0.0,0.0,0.0,0.0,0.0,0.0,0.0,-2.1352,-2.1183,0.0,0.0,0.0,0.0,0.0,0.0,0.0,0.0,0.0,0.0,0.0,0.0,0.0,0.0,0.0,0.0,0.0,0.0,0.0,0.0,0.0,0.0,0.0,0.0,0.0,0.0,0.0,0.0,0.0,0.0,0.0,0.0,0.0,0.0,0.0,0.0,0.0,0.0,0.0,0.0,-1.3895,-1.3068,-1.2616,-1.2909,-1.1733,-1.0936,-1.0931,-0.979,-0.9125,-0.9286,-0.9426,0.0,0.0,0.0,0.0,0.0,0.0,0.0,0.0,0.0,0.0,0.0,0.0,0.0,0.0,0.0,0.0,0.0,0.0,0.0,0.0,0.0,0.0,0.0,0.0,0.0,0.0,0.0,0.0,0.0,0.0,0.0,0.0,0.0,0.0,0.0,0.0,0.0,0.0,0.0,0.0,0.0,0.0,0.0,0.0,0.0,0.0,0.0,0.0,0.0,0.0,0.0,0.0,0.0,-2.42,-2.4415,-2.4704,-2.472,-2.3861,-2.2332,-2.1504,-2.0137,-1.8561,-1.9326,0.0,0.0,0.0,0.0,0.0,0.0,0.0,0.0,0.0,0.0,0.0,0.0,0.0,0.0,0.0,0.0,0.0,0.0,0.0,0.0,0.0,0.0,-1.226,-1.2399,-1.2184,-1.193,-1.1793,0.0,0.0,0.0,0.0,0.0,0.0,0.0,0.0,0.0,0.0,0.0,-1.4277,-1.2972,-1.1982,-1.195,-1.1405,-1.0796,-1.013,-0.9252,-0.884,-0.9084,-0.9187,-0.9386,0.0,0.0,0.0,0.0,0.0,0.0,0.0,0.0,0.0,0.0,0.0,0.0,0.0,0.0,0.0,0.0,0.0,0.0,0.0,0.0,0.0,0.0,0.0,0.0,0.0,0.0,0.0,0.0,0.0,0.0,0.0,0.0,-2.2203,-2.1577,0.0,0.0,0.0,0.0,0.0,0.0,0.0,0.0,0.0,0.0,0.0,0.0,0.0,-2.3888,-2.4474,-2.5139,-2.5234,-2.478,-2.5425,-2.5257,-2.4382,-2.4729,-2.4053,-2.2661,-2.2879,0.0,-2.0864,-2.0992,0.0,0.0,0.0,0.0,0.0,0.0,0.0,0.0,0.0,0.0,0.0,0.0,0.0,0.0,0.0,0.0,0.0,0.0,0.0,0.0,0.0,0.0,-1.2427,-1.1251,-1.1592,-1.1927,-1.1052,-1.0963,-1.103,-1.0951,-1.1384,-1.1968,0.0,0.0,0.0,0.0,0.0,0.0,-1.219,-1.1562,-1.12,-1.1307,-1.0328,-0.9643,-0.9602,-0.8899,-0.8522,-0.867,-0.8907,-0.909,-0.9196,-0.9654,0.0,0.0,0.0,0.0,0.0,0.0,0.0,0.0,0.0,0.0,0.0,0.0,0.0,0.0,0.0,0.0,0.0,0.0,0.0,0.0,0.0,0.0,0.0,0.0,0.0,0.0,0.0,0.0,0.0,-2.1532,-2.1778,-2.0621,-2.1338,-2.1475,0.0,0.0,0.0,0.0,0.0,0.0,0.0,0.0,0.0,-2.4617,-2.5028,-2.5549,-2.6181,-2.6293,-2.6717,-2.7476,-2.7466,-2.7172,-2.6684,-2.6809,-2.5942,-2.4342,-2.4453,-2.3764,-2.248,-2.1084,-2.0065,-1.9426,0.0,0.0,0.0,0.0,-1.8425,-1.7459,-1.6605,-1.6055,-1.5634,-1.5253,0.0,0.0,0.0,0.0,0.0,0.0,0.0,-1.1814,-1.1213,-1.1813,-1.2343,-1.148,-1.1567,-1.1593,-1.0577,-0.9983,-0.9841,-1.057,-1.1201,-1.1761,-1.2135,-1.2526,0.0,0.0,0.0,-1.298,-1.2834,-1.2151,-1.1551,-1.1225,-1.0391,-0.9749,-0.9513,-0.8649,-0.8223,-0.8466,-0.867,-0.8862,-0.9041,-0.9429,-0.9863,0.0,0.0,0.0,0.0,0.0,0.0,0.0,0.0,0.0,0.0,0.0,0.0,0.0,0.0,0.0,0.0,0.0,0.0,0.0,0.0,0.0,0.0,0.0,0.0,0.0,0.0,0.0,0.0,-2.1659,-2.1827,-2.0,-2.1583,-2.213,0.0,0.0,0.0,0.0,0.0,0.0,-2.426,-2.506,-2.5749,-2.6324,-2.6696,-2.7191,-2.7808,-2.751,-2.8082,-2.9511,-2.9067,-2.8731,-2.8523,-2.8474,-2.7498,-2.5848,-2.575,-2.4991,-2.3684,-2.1512,-1.9886,-1.8837,-1.9587,-1.8868,-1.7506,-1.8183,-1.8065,-1.7415,-1.6091,-1.5699,-1.5642,-1.4654,-1.4202,-1.3923,-1.3113,0.0,0.0,0.0,0.0,-1.1331,-1.1171,-1.1659,-1.2109,-1.1768,-1.1532,-1.1166,-1.0294,-0.9506,-0.9225,-1.0047,-1.0472,-1.087,-1.1414,-1.1519,0.0,-1.3214,-1.29,-1.2684,-1.3129,-1.235,-1.153,-1.0937,-1.027,-0.9663,-0.9139,-0.8351,-0.8019,-0.8309,-0.8472,-0.8652,-0.8905,-0.9284,-0.9684,-1.0117,0.0,0.0,0.0,0.0,0.0,0.0,0.0,0.0,0.0,0.0,0.0,0.0,0.0,0.0,0.0,0.0,0.0,0.0,0.0,0.0,0.0,0.0,0.0,0.0,0.0,0.0,0.0,0.0,0.0,-2.0578,-2.3303,0.0,0.0,0.0,0.0,-2.4395,-2.4409,-2.4723,-2.5468,-2.6527,-2.7222,-2.752,-2.8135,-2.8783,-2.9469,-2.9457,-2.9487,-2.96,-2.9562,-2.9217,-2.8599,-2.8599,-2.7839,-2.6542,-2.6546,-2.5788,-2.4455,-2.3122,-2.1777,-2.0579,-2.0621,-2.0232,-1.9453,-1.7926,-1.7712,-1.7929,-1.6273,-1.504,-1.4365,-1.523,-1.5028,-1.4227,-1.2912,-1.2716,0.0,0.0,-1.1339,-1.1468,-1.1024,-1.1286,-1.164,-1.162,-1.1205,-1.0697,-1.021,-0.9758,-0.9351,-0.8976,-0.8258,-0.8297,-1.0169,0.0,-0.9775,-1.1553,-1.1204,-1.0984,-1.1709,-1.1028,-1.035,-1.0,-0.9364,-0.8703,-0.8041,-0.7929,-0.797,-0.8111,-0.8299,-0.8511,-0.87,-0.8978,-0.9735,-1.1009,-1.1222,0.0,0.0,0.0,0.0,0.0,0.0,0.0,0.0,0.0,0.0,0.0,0.0,0.0,0.0,0.0,0.0,0.0,0.0,0.0,0.0,0.0,0.0,0.0,0.0,0.0,0.0,0.0,0.0,-2.3837,-2.6339,0.0,-2.5061,-2.5115,-2.5625,-2.6477,-2.691,-2.7614,-2.8682,-2.9519,-3.0223,-3.0731,-3.1405,-3.1659,-3.1465,-3.1465,-3.1255,-3.0808,-3.0808,-3.0268,-2.922,-2.922,-2.8513,-2.7225,-2.6806,-2.6318,-2.5756,-2.4063,-2.2349,-2.0821,-2.0734,-1.9915,-1.8705,-1.8109,-1.78,-1.7495,-1.6114,-1.5129,-1.4384,-1.3654,-1.3047,-1.2477,-1.1706,-1.1757,-1.1881,-1.0861,-1.1085,-1.1433,-1.0705,-1.0795,-1.0929,-1.0384,-1.0049,-0.9628,-0.8843,-0.8565,-0.8355,-0.7969,-0.8008,-0.8336,-0.9108,-0.8861,-0.9035,-1.0455,-1.0337,-1.0269,-1.0789,-1.0587,-1.0047,-0.911,-0.8783,-0.8325,-0.752,-0.7613,-0.7768,-0.7903,-0.8214,-0.8492,-0.8693,-0.8957,-0.9281,-0.967,-0.7998,-0.7314,0.0,0.0,0.0,0.0,0.0,0.0,0.0,0.0,0.0,0.0,0.0,0.0,0.0,0.0,0.0,0.0,0.0,0.0,0.0,0.0,0.0,0.0,0.0,0.0,0.0,-2.5055,-2.6937,-2.6342,-2.8816,-2.9789,-2.7799,-2.7993,-2.8532,-2.919,-2.9654,-3.0387,-3.145,-3.1943,-3.2392,-3.2826,-3.326,-3.329,-3.2841,-3.2317,-3.199,-3.1824,-3.1323,-3.0437,-2.9193,-2.9483,-2.874,-2.7199,-2.6771,-2.6327,-2.5854,-2.4307,-2.2576,-2.0862,-2.0778,-1.9923,-1.8704,-1.8341,-1.7981,-1.7447,-1.5849,-1.4892,-1.4193,-1.2849,-1.2246,-1.1976,-1.166,-1.18,-1.1878,-1.1143,-1.1369,-1.1643,-1.0919,-1.066,-1.0413,-0.9835,-0.9252,-0.8656,-0.804,-0.7746,-0.7484,-0.7069,-0.7459,-0.7913,-0.8061,-0.7994,-0.828,-0.9391,-0.9484,-0.9617,-1.0152,-0.9951,-0.9417,-0.8498,-0.8186,-0.783,-0.7253,-0.754,-0.7802,-0.7903,-0.8326,-0.8614,-0.8699,-0.9255,-0.9575,-0.9615,-0.6436,-0.6164,-0.892,0.0,0.0,0.0,0.0,0.0,0.0,0.0,0.0,0.0,0.0,0.0,0.0,0.0,0.0,0.0,0.0,0.0,0.0,0.0,0.0,0.0,0.0,0.0,-2.4435,-2.7524,-2.9175,-2.7929,-3.0612,-3.1824,-2.9881,-3.0824,-3.1796,-3.2437,-3.2497,-3.2781,-3.3453,-3.3483,-3.3483,-3.3483,-3.3483,-3.3468,-3.3422,-3.1942,-3.1607,-3.2408,-3.095,-2.9592,-2.8396,-2.918,-2.8405,-2.6443,-2.6455,-2.5761,-2.4634,-2.3856,-2.2454,-2.0822,-2.0809,-2.0396,-1.9673,-1.8606,-1.8179,-1.7826,-1.551,-1.4306,-1.3732,-1.3104,-1.2905,-1.2905,-1.2905,-1.2905,-1.2807,-1.2287,-1.2161,-1.2054,-1.1619,-1.0766,-1.0038,-1.0038,-0.8931,-0.787,-0.787,-0.7405,-0.6854,-0.6317,-0.652,-0.6838,-0.7033,-0.7085,-0.7414,-0.8342,-0.859,0.0,-0.9765,-0.9058,-0.8405,-0.8221,-0.7607,-0.7195,-0.7195,-0.7747,-0.8095,-0.8082,-0.8586,-0.8818,-0.8699,-0.9806,-1.0617,-1.0976,-0.7038,-0.7047,-1.1243,0.0,0.0,0.0,0.0,0.0,0.0,0.0,0.0,0.0,0.0,0.0,0.0,0.0,0.0,0.0,0.0,0.0,0.0,0.0,0.0,0.0,-2.3716,-2.5629,-2.6438,-2.8522,-3.0426,-3.1735,-3.3095,-3.3461,-3.2244,-3.2443,-3.2432,-3.1871,-3.2295,-3.2667,-3.2837,-3.2837,-3.2837,-3.2837,-3.2837,-3.2625,-3.2139,-3.1321,-3.0788,-3.0545,-2.9736,-2.8705,-2.7547,-2.7765,-2.706,-2.5673,-2.5238,-2.4859,-2.4455,-2.2913,-2.1989,-2.1478,-2.0992,-2.0396,-1.9673,-1.8606,-1.7689,-1.6747,-1.5234,-1.4583,-1.4294,-1.3248,-1.2905,-1.2905,-1.2905,-1.2905,-1.2652,-1.1512,-1.117,-1.0914,-0.9795,-0.9002,-0.85,-0.85,-0.786,-0.7259,-0.7259,-0.7105,-0.6893,-0.6559,-0.6424,-0.6343,-0.6243,-0.6714,-0.7286,-0.7829,-0.8206,-0.8599,-0.9103,-0.8449,-0.7993,-0.8185,-0.7598,-0.7176,-0.7132,-0.7636,-0.7873,-0.7672,-0.8084,-0.8377,-0.8486,-0.8796,-0.9549,-1.0765,-0.9658,-0.9328,0.0,0.0,0.0,0.0,0.0,0.0,0.0,0.0,0.0,0.0,0.0,0.0,0.0,0.0,0.0,0.0,0.0,0.0,0.0,0.0,0.0,0.0,-2.5484,-2.755,-2.8481,-2.9823,-3.1314,-3.2916,-3.3463,-3.348,-3.2939,-3.2871,-3.2665,-3.2068,-3.2364,-3.2593,-3.2593,-3.2593,-3.2593,-3.2593,-3.2593,-3.2392,-3.2012,-3.0849,-3.0249,-3.0193,-2.8802,-2.7637,-2.6745,-2.6827,-2.6152,-2.4909,-2.4571,-2.415,-2.3594,-2.2247,-2.1381,-2.0926,0.0,0.0,0.0,0.0,-1.7093,-1.5909,-1.4742,-1.4154,-1.3836,-1.3138,-1.2905,-1.2905,-1.2905,-1.2905,-1.2623,-1.1213,-1.0794,-1.048,-0.9072,-0.8385,-0.8042,-0.7929,-0.7546,-0.7174,-0.7026,-0.6906,-0.6794,-0.662,-0.6372,0.0,-0.5861,-0.6386,-0.708,-0.7728,-0.7956,-0.8198,-0.8596,-0.8026,-0.7542,-0.75,-0.7134,-0.6828,-0.6617,-0.7188,0.0,0.0,0.0,-0.8454,-0.9044,-0.8994,0.0,0.0,0.0,-1.0127,-0.9219,-1.0442,0.0,0.0,-1.1641,-1.1816,0.0,0.0,0.0,0.0,0.0,0.0,0.0,0.0,0.0,0.0,0.0,0.0,0.0,0.0,0.0,0.0,-2.6854,-2.8805,-3.0226,-3.1079,-3.1861,-3.2613,-3.2648,-3.2585,-3.2547,-3.2492,-3.2393,-3.2285,-3.2285,-3.2285,-3.2285,-3.2285,0.0,0.0,0.0,-3.2285,-3.2285,-3.0339,-2.9731,-3.048,-2.7946,-2.648,-2.5963,-2.6088,-2.5405,-2.4176,-2.4097,-2.3469,-2.2417,-2.171,-2.0711,-1.9669,-1.9669,-1.9658,-1.9406,-1.7833,-1.6497,-1.5322,-1.4251,0.0,0.0,-1.2929,-1.2905,-1.2881,-1.2798,-1.2774,-1.2479,-1.1031,-1.0633,-1.033,-0.8972,-0.8429,-0.818,-0.7921,-0.7673,-0.7404,-0.7066,-0.682,-0.664,-0.664,-0.6425,-0.6156,-0.5904,-0.6239,-0.6824,-0.7637,-0.77,-0.7758,-0.8103,-0.7654,-0.7114,-0.6641,-0.6561,0.0,-0.5993,-0.6634,-0.707,-0.7068,-0.7809,-0.8702,-0.9724,-0.9588,-0.9642,-0.9938,-1.0073,-0.9776,-0.9047,-0.9232,-0.9345,-0.9384,-1.0368,-1.0889,0.0,0.0,0.0,0.0,0.0,0.0,0.0,0.0,0.0,0.0,0.0,0.0,0.0,0.0,0.0,-2.5975,-2.8009,-2.9731,-3.0467,-3.1056,-3.1902,-3.3111,-3.2861,-3.2463,-3.2153,-3.1742,-3.1156,-3.0394,-3.0355,-3.0355,-3.0355,-3.0355,-3.0355,-3.0355,-3.0355,-3.0355,-3.0355,-2.9044,-2.8448,-2.859,-2.6731,0.0,-2.5039,-2.4624,-2.405,-2.331,-2.2866,-2.2312,-2.1665,-2.1085,-2.0081,-1.89,-1.89,-1.8648,-1.8163,-1.7243,-1.6238,-1.5235,-1.4541,-1.4011,-1.3552,-1.3065,-1.2905,-1.2798,-1.2187,-1.1996,0.0,-1.0108,-0.9666,-0.9429,-0.8327,-0.8006,-0.7902,-0.7633,-0.7539,-0.7404,-0.7066,-0.696,-0.692,-0.692,-0.6707,-0.6603,-0.6872,-0.6869,-0.6698,-0.6353,-0.6826,-0.722,-0.7248,-0.6915,-0.6789,-0.7118,-0.6902,-0.6622,-0.6335,-0.6645,-0.6876,-0.6935,-0.7592,-0.8076,-0.8297,-0.8269,-0.8283,-0.8336,-0.8479,-0.8593,-0.8704,-0.8846,-0.8973,-0.9094,-0.9559,-1.0428,0.0,0.0,0.0,0.0,0.0,0.0,0.0,0.0,0.0,0.0,0.0,-2.0608,-2.2337,0.0,-2.5733,-2.7394,-2.9044,-3.0106,-3.0106,-3.0831,-3.1665,-3.2319,-3.1934,-3.1533,-3.1332,-3.0817,-3.0317,-2.983,-2.9792,-2.9792,-2.9792,-2.9792,-2.9792,-2.9792,-2.9792,-2.9654,-2.9365,-2.8002,-2.7446,-2.767,-2.5805,-2.5015,-2.5184,-2.4368,-2.3841,-2.354,-2.2945,-2.2163,-2.1165,-1.9985,-1.9108,-1.8453,-1.7833,-1.7666,-1.763,-1.6691,-1.5882,-1.5132,-1.4245,-1.3699,-1.3228,-1.2564,-1.2344,-1.2221,-1.1516,-1.1291,-1.1039,-0.9756,-0.9402,-0.9163,-0.817,-0.8019,-0.7964,-0.7234,-0.7377,-0.7507,-0.6757,-0.67,-0.6847,-0.6973,-0.6787,-0.6665,-0.6875,-0.6863,-0.6751,-0.6441,-0.6634,-0.6796,-0.6755,-0.6608,-0.6523,-0.6591,-0.6624,-0.6418,-0.5851,-0.6227,-0.665,-0.7021,-0.7493,-0.7746,-0.7746,-0.7849,-0.7877,-0.7848,-0.8015,-0.8238,-0.8497,-0.8567,-0.8628,-0.8694,-0.8778,-0.9291,0.0,0.0,0.0,0.0,0.0,0.0,0.0,-1.7707,-1.8515,-1.9147,-2.0488,-2.219,-2.4226,-2.5142,-2.6258,-2.8257,-2.9425,-2.9895,-2.9484,-3.0254,-3.0905,-3.0905,-3.0642,-3.0507,-3.0608,-3.0118,-2.9792,-2.9792,-2.9792,-2.9702,-2.9495,-2.9495,-2.9365,-2.917,-2.9071,-2.8788,-2.8295,-2.6882,-2.6355,-2.6696,-2.4729,-2.4168,-2.4874,-2.3816,-2.3336,-2.3311,-2.2714,-2.1807,-2.0626,-1.9052,-1.8289,-1.7994,-1.7023,-1.6754,-1.6819,-1.5894,-1.528,-1.4724,-1.3584,-1.2935,-1.2466,-1.1825,-1.1616,-1.1491,-1.0813,-1.0618,-1.0435,-0.9525,-0.9283,-0.9076,-0.8101,-0.8053,-0.796,-0.6795,-0.7062,-0.7317,-0.6433,-0.64,-0.6644,-0.6945,-0.6834,-0.6673,-0.6673,-0.6726,-0.6734,-0.6673,-0.6514,-0.6351,-0.6275,-0.6336,-0.6231,-0.582,-0.6216,-0.62,-0.5461,-0.5993,-0.6608,-0.7204,-0.7523,-0.7701,-0.7701,-0.7738,-0.7746,-0.7687,-0.7846,-0.802,-0.822,-0.822,-0.822,-0.822,-0.8101,-0.8307,-1.6374,-1.6057,-1.6412,-1.7583,-1.7823,-1.8258,0.0,-2.0481,-2.0547,-2.1805,-2.3268,-2.4534,-2.5168,-2.6453,-2.7484,-2.7794,-2.8386,-2.879,-2.8734,-2.8911,-2.9088,-2.9088,-2.9571,-3.008,-3.057,-3.0118,-2.9792,-2.9792,-2.9792,-2.9365,-2.8347,-2.8307,-2.7855,-2.6894,-2.645,-2.6229,-2.6172,-2.5111,-2.4563,-2.4607,-2.3021,-2.2297,-2.2355,-2.1412,-2.1001,-2.0935,-2.035,-1.9997,-1.9784,-1.9115,-1.8246,-1.7301,-1.716,-1.6068,-1.4571,-1.4446,-1.4121,-1.3605,-1.247,-1.1822,-1.1408,-1.1048,-1.0914,-1.0788,-1.0115,-0.9909,-0.9755,-0.9072,-0.8856,-0.8692,-0.7911,-0.7738,-0.7527,-0.6483,-0.6314,-0.6381,-0.6384,-0.6388,-0.6534,-0.6919,-0.6973,-0.6953,-0.6953,-0.6774,-0.6441,-0.5913,-0.5906,-0.5843,-0.5475,-0.575,-0.5813,-0.5418,-0.604,-0.6393,-0.6112,-0.6594,-0.7042,-0.736,-0.7798,-0.8043,-0.8043,-0.7554,-0.728,-0.7266,-0.7289,-0.7396,-0.7606,-0.7606,-0.7606,-0.7613,-0.7771,-0.8398,-1.748,-1.7399,-1.7662,-1.8273,-1.9308,-2.0372,-2.1114,-2.1669,-2.2247,-2.309,-2.4483,-2.5708,-2.618,-2.6716,-2.7246,-2.7581,-2.7842,-2.792,-2.764,-2.7988,-2.8185,-2.7948,-2.7921,-2.8091,-2.8651,-2.8186,-2.7879,-2.7879,-2.7879,-2.7666,-2.7197,-2.7168,-2.6964,-2.6513,-2.6031,-2.5638,-2.5346,-2.4111,-2.3579,-2.3817,-2.2608,-2.2324,-2.284,-2.2147,-2.1487,-2.0896,-2.0161,-1.9695,-1.934,-1.778,-1.678,-1.6119,-1.5297,-1.4385,-1.3545,-1.4034,-1.3638,-1.2799,-1.2139,-1.1636,-1.1176,-1.0456,-1.0218,-1.009,-0.9413,-0.9211,-0.9159,-0.8883,-0.848,-0.8103,-0.7777,-0.7375,-0.6828,-0.5887,-0.5939,-0.6046,-0.5522,-0.5659,-0.591,-0.5998,-0.6012,-0.6012,-0.6012,-0.5785,-0.5531,-0.5263,-0.5714,-0.594,-0.5584,-0.5673,-0.5751,-0.5662,-0.5957,-0.626,-0.6531,-0.6933,-0.7337,-0.7723,-0.7928,-0.8039,-0.8039,-0.7495,-0.7123,-0.6966,-0.6855,-0.6837,-0.6927,-0.6927,-0.6927,-0.6918,-0.6876,-0.7184,-1.7846,-1.8264,-1.8861,-1.9221,-2.081,-2.2187,-2.1982,-2.2701,-2.3539,-2.3896,-2.4872,-2.5766,-2.6141,-2.6146,-2.6254,-2.681,-2.6892,-2.6769,-2.6439,-2.6692,-2.679,-2.6368,-2.5891,-2.5698,-2.6076,-2.6351,-2.6524,-2.6524,-2.6524,-2.6348,-2.6058,-2.6016,-2.5891,-2.5557,-2.5014,-2.4537,-2.4151,-2.2895,-2.2422,-2.2675,-2.1837,-2.1811,-2.2485,-2.1984,-2.1164,-2.0075,-1.9434,-1.8778,-1.8035,-1.6378,-1.5532,-1.512,-1.4096,-1.3331,-1.2841,-1.3417,-1.3039,-1.215,-1.161,-1.1152,-1.0728,-0.9901,-0.9444,-0.9138,-0.8633,-0.8348,-0.8182,-0.8182,-0.7803,-0.7343,-0.7149,-0.6691,-0.6085,-0.528,-0.5426,-0.5564,-0.4938,-0.5109,-0.5405,-0.544,-0.544,-0.544,-0.544,-0.5243,-0.5076,-0.5135,-0.5634,-0.5849,-0.5406,-0.5481,-0.5701,-0.5974,-0.6003,-0.6228,-0.676,-0.7164,-0.7552,-0.7978,-0.7886,-0.7841,-0.7841,-0.7327,-0.6874,-0.6554,-0.6643,-0.6572,-0.6335,-0.6445,-0.6442,-0.633,-0.624,-0.6276,-1.693,-1.8068,-1.957,-2.08,-2.2148,-2.3266,-2.3623,-2.4053,-2.4385,-2.4394,-2.4404,-2.446,-2.448,-2.448,-2.4626,-2.5114,-2.5183,-2.5173,-2.5163,-2.4781,-2.4349,-2.3963,-2.3487,-2.3232,-2.3242,-2.5189,-2.6524,-2.6524,-2.6524,-2.6016,-2.4914,-2.483,-2.4339,-2.3222,-2.2418,-2.2018,-2.1999,-2.1095,-2.0693,-2.0673,-2.0213,-1.9969,-1.9997,-1.9603,-1.8646,-1.7324,-1.7288,-1.6554,-1.5332,-1.5253,-1.4967,-1.4533,-1.4483,-1.3541,-1.2235,-1.2235,-1.2065,-1.165,-1.0529,-0.9966,-0.9677,-0.9325,-0.8557,-0.775,-0.775,-0.7235,-0.6669,-0.6669,-0.6642,-0.6475,-0.576,-0.5542,-0.5351,-0.4673,-0.4539,-0.4654,-0.5006,-0.5095,-0.5246,-0.5692,-0.5775,-0.5775,-0.5775,-0.5627,-0.5553,-0.5736,-0.5631,-0.5264,-0.4529,-0.4942,-0.5566,-0.6222,-0.6292,-0.6426,-0.6765,-0.7282,-0.771,-0.7979,-0.764,-0.7413,-0.7413,-0.6903,-0.6395,-0.5927,-0.6758,-0.6759,-0.5918,-0.6312,-0.6307,-0.5927,-0.6117,-0.6205,-1.6396,-1.8145,-2.0075,-2.1277,-2.3033,-2.4587,-2.498,-2.4961,-2.4844,-2.4844,-2.3987,-2.3217,-2.3217,-2.3217,-2.3352,-2.3775,-2.4547,-2.4971,-2.4678,-2.3795,-2.2927,-2.223,-2.2017,-2.1889,-2.1889,-2.3304,-2.4221,-2.4221,-2.4221,-2.4102,-2.3671,-2.3681,-2.3507,-2.3091,-2.2598,-2.2305,-2.2305,-2.1435,-2.0628,-1.991,-1.8731,-1.8189,-1.818,-1.8018,-1.7454,-1.6541,-1.6541,-1.6046,-1.5163,-1.4494,-1.4006,-1.3635,-1.3007,-1.221,-1.1336,-1.0732,-1.0354,-1.0141,-1.0122,-0.9678,-0.9028,-0.865,-0.7907,-0.7135,-0.7009,-0.6804,-0.6588,-0.6588,-0.6253,-0.5814,-0.5569,-0.5164,-0.4787,-0.4543,-0.4491,-0.4505,-0.4511,-0.4501,-0.4532,-0.4588,-0.4603,-0.4603,-0.4603,-0.456,-0.4662,-0.5135,-0.5223,-0.5147,-0.4891,-0.5113,-0.5322,-0.5357,-0.5932,-0.6379,-0.6582,-0.7263,-0.7709,-0.7797,-0.7671,-0.7469,-0.7149,-0.6498,-0.6066,-0.5904,-0.5886,-0.5727,-0.5435,-0.5569,-0.5571,-0.5439,-0.5502,-0.5391,-1.6749,-1.8578,-2.0471,-2.1544,-2.3006,-2.422,-2.4398,-2.4457,-2.4374,-2.3776,-2.2878,-2.2036,-2.1587,-2.1243,-2.1198,-2.1643,-2.2501,-2.309,-2.2871,-2.2191,-2.1482,-2.0883,-2.0699,-2.0666,-2.0666,-2.1355,-2.1996,-2.2403,-2.2041,-2.1996,-2.2448,-2.2041,-2.2227,-2.3047,-2.1832,-2.1392,-2.184,-2.069,-1.9738,-1.8959,-1.7928,-1.7425,-1.7302,-1.7302,-1.6765,-1.5878,-1.575,-1.5188,-1.426,-1.3535,-1.3086,-1.2835,-1.1896,-1.1217,-1.0678,-0.9742,-0.9192,-0.8945,-0.9261,-0.8914,-0.8285,-0.804,-0.7327,-0.6543,-0.6412,-0.6155,-0.593,-0.593,-0.5546,-0.5136,-0.5136,-0.4814,-0.4491,-0.4491,-0.4491,-0.4464,-0.4345,-0.4297,-0.4294,-0.4195,-0.4178,-0.4178,-0.4178,-0.4178,-0.429,-0.4611,-0.4735,-0.4881,-0.521,-0.509,-0.5031,-0.5162,-0.5855,-0.6336,-0.6419,-0.7026,-0.7369,-0.7275,-0.7139,-0.6839,-0.637,-0.5903,-0.5501,-0.5189,-0.534,-0.5193,-0.4739,-0.504,-0.5033,-0.4739,-0.4739,-0.4612,-1.7759,-1.9257,-2.0819,-2.1622,-2.2193,-2.2446,-2.219,-2.2757,-2.2908,-2.1309,-2.1056,-2.0759,-1.9554,-1.8732,-1.8408,-1.8924,-1.937,-1.9738,-2.0095,-2.0066,-1.998,-1.987,-1.9614,-1.9446,-1.943,-1.943,-1.9914,-2.1025,-2.0124,-1.9988,-2.1159,-2.0124,-2.0539,-2.2818,-2.0271,-1.9419,-2.0612,-1.8969,-1.801,-1.7744,-1.7668,-1.7473,-1.7164,-1.7164,-1.6435,-1.5203,-1.4881,-1.4021,-1.2764,-1.2401,-1.2238,-1.2114,-1.1124,-1.0557,-1.0185,-0.9124,-0.8498,-0.8116,-0.7926,-0.7703,-0.7456,-0.7447,-0.6753,-0.5944,-0.5936,-0.5373,-0.4704,-0.4704,-0.4627,-0.4511,-0.4505,-0.4501,-0.4501,-0.4491,-0.4491,-0.4491,-0.4491,-0.4491,-0.4491,-0.4491,-0.446,-0.4436,-0.4436,-0.4436,-0.4388,-0.4227,-0.42,-0.4492,-0.5321,-0.4835,-0.4736,-0.5578,-0.6,-0.6224,-0.6268,-0.6588,-0.6682,-0.6428,-0.6045,-0.5626,-0.5159,-0.5143,-0.4756,-0.3927,-0.5092,-0.5121,-0.3905,-0.4711,-0.468,-0.3872,-0.3848,-0.3853,-1.719,-1.8913,-2.0643,-2.117,-2.1913,-2.2446,-2.2295,-2.1594,-2.0755,-1.9911,-1.8625,-1.7426,-1.6915,-1.6999,-1.734,-1.7763,-1.9271,-2.0359,-2.0444,-1.9851,-1.9284,-1.8893,-1.8786,-1.8682,-1.8485,-1.8462,-1.8496,-1.8611,-1.9177,-1.9625,-1.9943,-1.9679,-1.977,-2.0404,-1.9723,-1.9492,-1.9808,-1.8227,-1.7268,-1.6904,-1.6097,-1.5552,-1.5198,-1.5198,-1.4783,-1.4028,-1.3952,-1.3497,-1.2739,-1.1853,-1.135,-1.1087,-1.0083,-0.9484,-0.9088,-0.818,-0.7632,-0.7263,-0.6501,-0.6518,-0.6883,-0.6741,-0.6072,-0.5303,-0.5224,-0.5038,-0.486,-0.486,-0.4833,-0.4775,-0.4663,-0.4662,-0.4631,-0.4515,-0.4491,-0.4491,-0.4491,-0.4491,-0.4491,-0.4491,-0.407,-0.368,-0.368,-0.3649,-0.3779,-0.4331,-0.4291,-0.4256,-0.4379,-0.4529,-0.4746,-0.5061,-0.5052,-0.5252,-0.5797,-0.5438,-0.5151,-0.5089,-0.4985,-0.4738,-0.4317,-0.4307,-0.4199,-0.3982,-0.4284,-0.4305,-0.3966,-0.3842,-0.3673,-0.344,-0.3102,-0.2785,-1.7781,-1.9071,-2.0253,-2.048,-2.0845,-2.0955,-2.0393,-1.969,-1.8868,-1.769,-1.6621,-1.5651,-1.5021,-1.5107,-1.5436,-1.5815,-1.7085,-1.821,-1.8664,-1.8253,-1.7924,-1.7924,-1.7818,-1.7612,-1.7348,-1.7319,-1.7191,-1.6878,-1.7483,-1.8126,-1.868,-1.8172,-1.8395,-1.9451,-1.8442,-1.7894,-1.7894,-1.7021,-1.6415,-1.6064,-1.4817,-1.4027,-1.3748,-1.3578,-1.3095,-1.229,-1.268,-1.241,-1.1591,-1.0841,-1.0417,-1.0117,-0.9125,-0.858,-0.8244,-0.7322,-0.6804,-0.6538,-0.5989,-0.5709,-0.5634,-0.5883,-0.5618,-0.5152,-0.4652,-0.4461,-0.4351,-0.3947,-0.4067,-0.4315,-0.424,-0.4445,-0.467,-0.461,-0.4539,-0.4491,-0.4491,-0.4236,-0.3873,-0.3566,-0.3148,-0.2871,-0.2871,-0.2843,-0.3093,-0.3846,-0.3869,-0.3885,-0.4061,-0.4215,-0.4436,-0.4778,-0.4631,-0.4734,-0.5301,-0.4969,-0.4664,-0.4526,-0.4521,-0.4307,-0.3853,-0.3636,-0.339,-0.3122,-0.3122,-0.302,-0.281,-0.2751,-0.263,-0.241,-0.215,-0.1917,-1.8824,-1.9412,-1.9846,-1.9813,-1.9553,-1.8985,-1.7696,-1.7505,-1.7004,-1.503,-1.4675,-1.4416,-1.3478,-1.3271,-1.3397,-1.3853,-1.4447,-1.5207,-1.6175,-1.6388,-1.663,-1.7139,-1.6954,-1.6693,-1.6359,-1.6333,-1.6192,-1.5804,-1.5784,-1.6292,-1.7412,-1.6386,-1.6796,-1.8948,-1.6734,-1.554,-1.554,-1.5391,-1.5173,-1.4928,-1.3655,-1.2881,-1.258,-1.2316,-1.1575,-1.0639,-1.1416,-1.1144,-1.0183,-0.9746,-0.946,-0.9222,-0.8211,-0.7721,-0.7508,-0.6454,-0.5978,-0.5792,-0.5657,-0.4905,-0.4162,-0.4959,-0.5135,-0.4882,-0.4072,-0.376,-0.348,-0.2745,-0.2981,-0.3478,-0.3463,-0.4027,-0.4565,-0.4546,-0.4473,-0.4374,-0.4383,-0.3747,-0.2926,-0.2202,-0.2063,-0.2063,-0.2063,-0.2063,-0.2343,-0.3176,-0.3231,-0.3394,-0.4025,-0.3951,-0.4073,-0.4633,-0.4459,-0.4406,-0.4664,-0.4601,-0.4388,-0.4004,-0.3991,-0.379,-0.331,-0.291,-0.2437,-0.1919,-0.1902,-0.1699,-0.1303,-0.1648,-0.161,-0.1228,-0.1155,-0.1093,-1.9132,-1.9713,-2.01,-1.986,-1.9399,-1.8512,-1.6769,-1.5501,-1.4213,-1.2554,-1.1902,-1.1683,-1.1782,-1.2115,-1.2763,-1.3864,-1.4754,-1.5517,-1.6221,-1.6744,-1.7085,-1.7192,-1.7367,-1.7221,-1.668,-1.6627,-1.6406,-1.5824,-1.5784,-1.592,-1.6109,-1.592,-1.6015,-1.6426,-1.4984,-1.4214,-1.4214,-1.3108,-1.2555,-1.2517,-1.2234,-1.1947,-1.1542,-1.15,-1.1143,-1.0611,-1.0742,-1.0576,-1.0114,-0.9242,-0.8695,-0.8305,-0.7195,-0.6733,-0.6572,-0.5427,-0.4949,-0.4799,-0.3795,-0.3308,-0.3282,-0.4123,-0.3844,-0.3151,-0.2979,-0.2922,-0.2856,-0.2692,-0.2748,-0.2823,-0.2727,-0.333,-0.3921,-0.3831,-0.3761,-0.3749,-0.3769,-0.3041,-0.2174,-0.1424,-0.1284,-0.1284,-0.1284,-0.1284,-0.1758,-0.3178,-0.2815,-0.267,-0.3429,-0.3873,-0.4271,-0.4662,-0.4111,-0.3702,-0.3577,-0.3016,-0.2436,-0.1872,-0.1833,-0.1789,-0.1698,-0.1619,-0.1527,-0.1415,-0.1412,-0.1376,-0.1307,-0.104,-0.0883,-0.0791,-0.0406,0.004,-1.9659,-2.0134,-2.0394,-2.01,-1.9472,-1.838,-1.6341,-1.4778,-1.331,-1.1543,-1.0906,-1.0659,-1.0685,-1.1145,-1.1784,-1.2668,-1.3328,-1.4132,-1.5363,-1.5963,-1.6516,-1.7125,-1.7326,-1.6976,-1.5915,-1.6247,-1.5757,-1.4053,-1.4491,-1.48,-1.48,-1.4124,-1.3788,-1.3788,-1.3156,-1.2861,-1.2861,-1.2237,-1.1896,-1.1896,-1.1153,-1.071,-1.051,-1.0251,-0.9687,-0.8977,-0.9494,-0.9308,-0.8531,-0.8064,-0.771,-0.7465,-0.6853,-0.6215,-0.5608,-0.4925,-0.4334,-0.3781,-0.32,-0.2652,-0.2304,-0.2693,-0.2796,-0.2599,-0.2103,-0.1978,-0.1883,-0.1411,-0.161,-0.1973,-0.1886,-0.2499,-0.3102,-0.303,-0.2952,-0.2753,-0.238,-0.1935,-0.1404,-0.066,-0.0538,-0.0532,-0.0532,-0.0532,-0.0923,-0.2037,-0.187,-0.1898,-0.2676,-0.2998,-0.3202,-0.3285,-0.2919,-0.2616,-0.2534,-0.2197,-0.1868,-0.1588,-0.1565,-0.1534,-0.1465,-0.1217,-0.0912,-0.0528,-0.0586,-0.0321,0.0319,0.0189,0.029,0.0606,0.083,0.11,-1.986,-2.015,-2.0094,-1.98,-1.9044,-1.7724,-1.5295,-1.3755,-1.2353,-1.0573,-1.0107,-0.998,-0.9919,-1.0272,-1.0773,-1.1324,-1.1658,-1.241,-1.3859,-1.4465,-1.5096,-1.6094,-1.6317,-1.5869,-1.4596,-1.5099,-1.4554,-1.2307,-1.2721,-1.3199,-1.344,-1.2479,-1.1896,-1.1896,-1.1653,-1.1512,-1.1512,-1.1214,-1.1068,-1.1068,-0.9942,-0.942,-0.9371,-0.8993,-0.8284,-0.7454,-0.822,-0.8007,-0.7095,-0.6827,-0.6677,-0.6525,-0.6126,-0.5408,-0.4556,-0.417,-0.3493,-0.2734,-0.25,-0.1917,-0.1254,-0.1254,-0.1635,-0.1978,-0.1246,-0.1022,-0.0869,-0.0178,-0.0493,-0.1009,-0.1021,-0.1624,-0.2238,-0.2238,-0.2125,-0.18,-0.1026,-0.085,-0.0683,-0.0119,0.0,0.0,0.0,0.0,-0.0255,-0.0989,-0.0955,-0.1118,-0.187,-0.1813,-0.1686,-0.159,-0.1743,-0.1776,-0.1612,-0.1609,-0.1489,-0.1203,-0.1215,-0.1107,-0.0842,-0.0512,-0.0042,0.0535,0.0437,0.0854,0.18,0.1328,0.134,0.1803,0.1819,0.1906,-1.9128,-1.912,-1.8316,-1.8177,-1.7396,-1.5824,-1.2319,-1.0994,-1.01,-0.8639,-0.8505,-0.8865,-0.9426,-0.9602,-0.9881,-1.068,-1.0789,-1.107,-1.173,-1.2178,-1.2632,-1.2976,-1.3409,-1.345,-1.2869,-1.2894,-1.2652,-1.1957,-1.0935,-1.0877,-1.2042,-1.1945,-1.1896,-1.1896,-1.0779,-1.0194,-1.0194,-0.897,-0.8382,-0.8333,-0.8219,-0.809,-0.8,-0.7925,-0.7715,-0.7415,-0.7493,-0.7358,-0.7007,-0.5983,-0.5531,-0.5422,-0.4134,-0.3578,-0.3414,-0.2283,-0.1836,-0.1606,-0.0628,-0.0235,-0.0157,-0.0157,-0.0193,-0.0226,-0.0151,-0.0111,-0.0109,-0.0036,-0.0071,-0.0105,-0.0105,-0.0752,-0.1402,-0.1402,-0.1407,-0.1155,-0.0289,-0.0094,-0.0092,0.0,0.0,0.0,0.0,0.0,-0.0264,-0.0994,-0.0542,-0.0364,-0.1118,-0.0615,-0.0196,-0.0195,-0.1269,-0.1722,-0.1036,-0.0983,-0.0453,0.0752,0.0728,0.0947,0.1643,0.1584,0.1586,0.1642,0.1641,0.1682,0.1806,0.1744,0.1743,0.1798,0.1914,0.2279,-1.9193,-1.9728,-1.9399,-1.8177,-1.7135,-1.5427,-1.1891,-1.0304,-0.9208,-0.7892,-0.7574,-0.7611,-0.789,-0.7938,-0.8136,-0.8668,-0.8834,-0.9248,-1.0201,-1.0791,-1.1436,-1.225,-1.2583,-1.2499,-1.1762,-1.2122,-1.1919,-1.0846,-0.9558,-0.9019,-0.9509,-0.9554,-0.9554,-0.9554,-0.9069,-0.8775,-0.8775,-0.8283,-0.7988,-0.7988,-0.7988,-0.7958,-0.7897,-0.7015,-0.6542,-0.6371,-0.5504,-0.5048,-0.4949,-0.4508,-0.433,-0.4231,-0.3578,-0.2928,-0.2384,-0.1809,-0.1171,-0.056,-0.0158,0.0,0.0,0.0,0.0,0.0,0.0,0.0,0.0,0.0,0.0,0.0,0.0,-0.0244,-0.0517,-0.0517,-0.0513,-0.0406,-0.0067,0.0,0.0,0.0,0.0,0.0,0.0,0.0,0.0091,0.0302,0.0598,0.089,0.1154,0.0962,0.098,0.144,0.0112,-0.0491,0.0242,0.0295,0.0718,0.1691,0.1716,0.1768,0.1998,0.1941,0.2045,0.2327,0.1978,0.2154,0.2873,0.2588,0.2642,0.3009,0.3059,0.3497,-1.8614,-1.941,-1.9113,-1.7427,-1.6189,-1.4449,-1.0852,-0.9244,-0.8253,-0.716,-0.6926,-0.6892,-0.6892,-0.6892,-0.6985,-0.7192,-0.7316,-0.7686,-0.8617,-0.9114,-0.9662,-1.0499,-1.0835,-1.0764,-1.0031,-1.0536,-1.0527,-0.9468,-0.8531,-0.7988,-0.7988,-0.7988,-0.7988,-0.7988,-0.7988,-0.7988,-0.7988,-0.7587,-0.7385,-0.7385,-0.703,-0.6828,-0.6775,-0.5743,-0.5246,-0.5164,-0.4113,-0.3614,-0.357,-0.3213,-0.3081,-0.3032,-0.2507,-0.1875,-0.1254,-0.1174,-0.0661,0.0,0.0,0.0,0.0,0.0,0.0,0.0,0.0,0.0,0.0,0.0,0.0,0.0,0.0,0.0,0.0,0.0,0.0,0.0071,0.0416,0.0238,0.01,0.0398,0.0423,0.0384,0.038,0.0628,0.0998,0.162,0.1702,0.1846,0.2245,0.1962,0.1816,0.2113,0.1301,0.0933,0.1398,0.1424,0.174,0.2504,0.2503,0.2512,0.2658,0.2622,0.2737,0.3075,0.2659,0.2871,0.371,0.3381,0.345,0.386,0.3907,0.4249,-1.6977,-1.7441,-1.6514,-1.5198,-1.4046,-1.2224,-0.8327,-0.7213,-0.6832,-0.6221,-0.6535,-0.6892,-0.6892,-0.6892,-0.6852,-0.6628,-0.6615,-0.6633,-0.6736,-0.6831,-0.691,-0.6748,-0.7398,-0.7672,-0.7288,-0.7707,-0.8041,-0.8041,-0.7988,-0.7988,-0.7988,-0.7988,-0.7988,-0.7988,-0.7988,-0.7988,-0.7988,-0.6681,-0.6029,-0.6029,-0.467,-0.4066,-0.4066,-0.4016,-0.3936,-0.3798,-0.3796,-0.3709,-0.3525,-0.2324,-0.1835,-0.1701,-0.0494,-0.0044,0.0,0.0,0.0,0.0,0.0,0.0,0.0,0.0,0.0,0.0,0.0,0.0,0.0,0.0,0.0,0.0,0.0,0.0,0.0,0.0,0.0,0.0291,0.1344,0.0763,0.0325,0.1369,0.143,0.128,0.1278,0.2057,0.2659,0.2691,0.2691,0.2368,0.1446,0.2121,0.2335,0.1416,0.2002,0.24,0.2209,0.2202,0.2536,0.3342,0.3189,0.3421,0.4138,0.4046,0.3991,0.3991,0.3987,0.3991,0.3991,0.3991,0.3994,0.3998,0.4146,0.4194,-1.4521,-1.5017,-1.4552,-1.2641,-1.1589,-1.0297,-0.7552,-0.6529,-0.6082,-0.5709,-0.5752,-0.5885,-0.5885,-0.5885,-0.5925,-0.6033,-0.6143,-0.6132,-0.5962,-0.6576,-0.6969,-0.6709,-0.7658,-0.818,-0.7982,-0.812,-0.8153,-0.7995,-0.7988,-0.7988,-0.7988,-0.7988,-0.7988,-0.7988,-0.7988,-0.7988,-0.7988,-0.7587,-0.6883,-0.5979,-0.5575,-0.487,-0.3966,-0.3065,-0.2611,-0.252,-0.1617,-0.1163,-0.1121,-0.0718,-0.0584,-0.0539,-0.0135,0.0,0.0,0.0,0.0,0.0,0.0,0.0,0.0,0.0,0.0482,0.0962,0.0237,0.0,0.0157,0.0902,0.0578,0.0341,0.1754,0.1058,0.0187,0.0934,0.0523,0.0074,0.0438,0.0255,0.0109,0.0432,0.1042,0.1504,0.1491,0.2251,0.3078,0.3827,0.3823,0.3861,0.4197,0.3929,0.3754,0.3898,0.3605,0.3319,0.3182,0.3023,0.3287,0.4098,0.4088,0.4106,0.4197,0.415,0.4325,0.4755,0.4751,0.4751,0.4751,0.535,0.5641,0.565,0.6299,0.6555,-1.2476,-1.3217,-1.3003,-1.099,-0.9881,-0.8751,-0.6763,-0.5806,-0.5262,-0.5038,-0.499,-0.499,-0.499,-0.499,-0.5066,-0.5291,-0.5554,-0.5719,-0.5645,-0.6379,-0.694,-0.6976,-0.754,-0.7781,-0.739,-0.7383,-0.7377,-0.7241,-0.7235,-0.7235,-0.7235,-0.7235,-0.7033,-0.6526,-0.698,-0.7235,-0.7235,-0.6226,-0.5322,-0.4472,-0.3971,-0.3306,-0.2487,-0.1644,-0.1221,-0.1177,-0.0377,0.0,0.0,0.0,0.0,0.0,0.0,0.0,0.0,0.0,0.0,0.0044,0.0515,0.0635,0.067,0.1145,0.1693,0.2035,0.1377,0.0902,0.0824,0.1879,0.1754,0.1596,0.2879,0.2234,0.1436,0.2134,0.1695,0.1181,0.1163,0.116,0.1156,0.1183,0.199,0.2678,0.2688,0.3434,0.4232,0.4878,0.49,0.4886,0.5135,0.4915,0.473,0.4746,0.4478,0.4246,0.4164,0.401,0.4089,0.4551,0.4576,0.4619,0.4675,0.4695,0.4854,0.5255,0.5536,0.5536,0.5251,0.6074,0.6482,0.6487,0.7031,0.7232,0.0,-1.1643,-1.1518,-0.9909,-0.8693,-0.7481,-0.5954,-0.5031,0.0,-0.4311,-0.4259,-0.4233,-0.4233,-0.4205,-0.4217,-0.437,-0.4816,-0.5208,-0.5446,-0.6009,-0.6652,-0.7213,-0.6973,-0.648,-0.5751,-0.5763,-0.5879,-0.5879,-0.5879,-0.5879,-0.5879,-0.5879,-0.5275,-0.4016,-0.5122,-0.5777,-0.5879,-0.3367,-0.2113,-0.1963,-0.0756,-0.01,0.0,0.0,0.0,0.0,0.0,0.0,0.0,0.0,0.0,0.0,0.0,0.0045,0.0135,0.0135,0.018,0.0403,0.1532,0.1841,0.1925,0.3107,0.3315,0.3132,0.3288,0.2584,0.1919,0.293,0.3297,0.3441,0.3561,0.3526,0.3449,0.3482,0.3308,0.3139,0.3132,0.313,0.3112,0.3123,0.3858,0.4532,0.4499,0.524,0.582,0.5833,0.5823,0.5525,0.4723,0.5201,0.53,0.441,0.4809,0.5143,0.5133,0.4982,0.4857,0.4714,0.4697,0.4937,0.5485,0.5519,0.5542,0.5647,0.6335,0.6362,0.5728,0.6362,0.6696,0.675,0.675,0.675,-0.7255,0.0,-0.773,-0.6646,-0.604,-0.5552,0.0,-0.4562,-0.4322,-0.4292,-0.3987,-0.3701,-0.3701,-0.334,-0.3126,-0.3246,-0.3457,-0.3527,-0.3289,-0.3614,-0.4493,-0.6135,-0.5389,-0.464,-0.445,-0.4472,-0.4468,-0.4468,-0.4468,-0.4468,-0.4468,-0.4468,-0.4316,-0.4016,-0.3316,-0.3417,-0.4468,-0.3865,-0.3015,-0.2013,-0.1661,-0.1006,0.0,0.0,0.0,0.0,0.0,0.0,0.0,0.0,0.0,0.0,0.0,0.0584,0.1389,0.1389,0.1969,0.2812,0.3064,0.306,0.3082,0.4187,0.3969,0.3571,0.5212,0.4316,0.2969,0.4023,0.3853,0.3682,0.5336,0.4673,0.3723,0.4389,0.4005,0.3447,0.3304,0.325,0.3245,0.327,0.4001,0.4637,0.465,0.537,0.6017,0.6173,0.6051,0.5865,0.5677,0.5798,0.5768,0.5474,0.5544,0.5599,0.5491,0.5135,0.4874,0.4867,0.4755,0.5016,0.5705,0.559,0.6032,0.7149,0.7343,0.7637,0.8017,0.7637,0.7723,0.8289,0.8289,0.8289,-0.5785,-0.6169,-0.6296,-0.5239,-0.4697,-0.4298,-0.3807,-0.3381,-0.3076,-0.3076,-0.2843,-0.2618,-0.2618,-0.2406,-0.2206,-0.2288,-0.2568,-0.2831,-0.2994,-0.3206,-0.3788,-0.496,-0.4436,-0.3768,-0.3121,-0.3098,-0.3065,-0.3065,-0.3065,-0.3065,-0.3065,-0.3065,-0.2815,-0.2163,-0.146,-0.1712,-0.3065,-0.2464,-0.1812,-0.1058,-0.1058,-0.07,0.0,0.0,0.0,0.0,0.0,0.0317,0.0807,0.0807,0.1165,0.1657,0.1657,0.2057,0.2637,0.2637,0.3037,0.3653,0.4148,0.4554,0.4927,0.5482,0.5268,0.5083,0.6167,0.5694,0.4858,0.5308,0.5207,0.5206,0.6304,0.5853,0.5215,0.5696,0.5394,0.4838,0.4242,0.4519,0.4726,0.4231,0.4922,0.5608,0.5608,0.5991,0.6366,0.6451,0.6332,0.6234,0.6234,0.6077,0.6145,0.6528,0.6414,0.6526,0.7033,0.6604,0.5927,0.5051,0.5301,0.5715,0.6288,0.6593,0.7204,0.8182,0.7883,0.8076,0.8804,0.8401,0.8401,0.8804,0.8804,0.8804,-0.5356,-0.5689,-0.5808,-0.4688,-0.3989,-0.3413,-0.2766,-0.2077,-0.1587,-0.1587,-0.1528,-0.1484,-0.1484,-0.1428,-0.1347,-0.1366,-0.1725,-0.235,-0.3224,-0.3264,-0.3343,-0.3652,-0.3529,-0.2962,-0.1802,-0.1708,-0.1711,-0.1711,-0.1711,-0.1711,-0.1711,-0.1711,-0.1159,-0.0051,0.0,-0.0555,-0.1661,-0.0555,0.0,0.0,0.0,0.0,0.0,0.0,0.0093,0.0271,0.027,0.0941,0.2057,0.2057,0.2681,0.3614,0.3614,0.3703,0.3881,0.3881,0.397,0.4269,0.5094,0.5969,0.6681,0.6576,0.6614,0.6681,0.6573,0.6647,0.6705,0.645,0.6617,0.6856,0.677,0.6848,0.6913,0.6889,0.6848,0.6505,0.5597,0.61,0.6482,0.5549,0.6082,0.6702,0.6702,0.6702,0.6692,0.6668,0.6556,0.6544,0.6679,0.6336,0.6435,0.7426,0.7254,0.7464,0.8513,0.8326,0.7447,0.5717,0.6223,0.6777,0.7146,0.7966,0.8577,0.8918,0.8334,0.8288,0.8871,0.8871,0.8851,0.8804,0.8804,0.8804,-0.5108,-0.4819,-0.4389,-0.3815,-0.3317,-0.2729,-0.1967,-0.1672,-0.1595,-0.1595,-0.125,-0.0931,-0.0935,-0.0542,-0.0239,-0.0241,-0.0297,-0.081,-0.2058,-0.1308,-0.1022,-0.2151,-0.1292,-0.055,-0.0345,-0.03,-0.0303,-0.0303,-0.0303,-0.0303,-0.0303,-0.0303,-0.0202,0.0,0.0,-0.0101,-0.0303,-0.0101,0.0,0.0,0.0,0.0,0.0,0.0,0.0556,0.1515,0.1535,0.2191,0.3303,0.3303,0.3436,0.3614,0.3614,0.4241,0.5134,0.5134,0.5711,0.6584,0.6628,0.6658,0.6719,0.6824,0.6787,0.6719,0.6827,0.6916,0.6967,0.6715,0.6776,0.6879,0.6859,0.6957,0.7034,0.6913,0.696,0.695,0.6701,0.6764,0.6806,0.6675,0.6661,0.6702,0.6702,0.6702,0.6658,0.6566,0.6528,0.6781,0.7498,0.6826,0.6643,0.7664,0.7685,0.7671,0.7714,0.8445,0.8629,0.7947,0.7634,0.7751,0.8323,0.9051,0.9506,0.9546,0.946,0.9312,0.9144,0.9144,0.9024,0.8804,0.8804,0.8804,-0.4126,-0.3739,-0.3259,-0.2492,-0.2222,-0.1963,-0.1243,-0.0891,-0.0733,-0.0723,-0.0531,-0.038,-0.0385,-0.0159,0.0,0.0,0.0,-0.0234,-0.0817,-0.0386,-0.0242,-0.0832,-0.0395,0.0,0.0,0.0,0.0,0.0,0.0,0.0,0.0,0.0,0.0,0.0,0.0,0.0301,0.0944,0.0994,0.0646,0.0,0.0682,0.096,0.0997,0.1629,0.2244,0.2764,0.2782,0.3438,0.4552,0.4552,0.4952,0.5487,0.5487,0.5844,0.6337,0.6337,0.6605,0.6984,0.6997,0.6903,0.6834,0.6862,0.6889,0.6893,0.6886,0.6984,0.7068,0.6933,0.6947,0.698,0.6906,0.6991,0.7082,0.7014,0.7048,0.7078,0.7014,0.7001,0.7001,0.7001,0.6943,0.6896,0.6896,0.6896,0.6912,0.6844,0.6766,0.6861,0.7275,0.6829,0.7129,0.8779,0.8663,0.8993,1.025,1.037,0.9974,0.9159,0.86,0.8621,0.937,0.9584,0.9715,0.9715,0.9715,0.9619,0.9479,0.9479,0.9412,0.9279,0.9279,0.9192,-0.3104,-0.271,-0.2265,-0.1396,-0.1288,-0.1198,-0.0579,-0.0206,0.0,0.0,0.0,0.0,0.0,0.0,0.0,0.0,0.0,0.0,0.0,0.0,0.0,0.0,0.0,0.0,0.0,0.0,0.0,0.0,0.0,0.0,0.0,0.0,0.0149,0.0398,0.0398,0.0988,0.2189,0.2228,0.1744,0.0876,0.1765,0.2201,0.226,0.3162,0.376,0.4016,0.4016,0.4685,0.5802,0.5802,0.6293,0.7095,0.7095,0.7095,0.7095,0.7095,0.7028,0.695,0.7058,0.7004,0.6889,0.6923,0.6987,0.7034,0.6957,0.7011,0.7095,0.7095,0.7095,0.7071,0.6964,0.7014,0.7095,0.7095,0.7095,0.7095,0.7095,0.7095,0.7105,0.7142,0.7122,0.7105,0.7142,0.7122,0.7085,0.7051,0.6953,0.6958,0.7172,0.7143,0.7835,0.9695,0.9797,1.0571,1.2611,1.2058,1.1227,1.0257,0.9661,0.9612,1.029,1.004,0.9916,0.9916,0.9916,0.9883,0.9786,0.9786,0.9746,0.9715,0.9715,0.9559,-0.2447,-0.1881,-0.1328,-0.1014,-0.0787,-0.0562,-0.0128,0.0,0.0,0.0,0.0,0.0,0.0,0.0,0.0,0.0,0.0,0.0,0.0,0.0,0.0,0.0,0.0,0.0,0.0,0.0,0.0,0.0,0.0,0.0,0.0,0.0,0.0526,0.1625,0.1673,0.2242,0.3472,0.3455,0.3409,0.3328,0.3449,0.3459,0.3451,0.3565,0.4202,0.527,0.527,0.5935,0.6962,0.6962,0.7007,0.7095,0.7095,0.7095,0.7095,0.7095,0.7088,0.7082,0.7092,0.7004,0.6906,0.7038,0.7001,0.6923,0.7045,0.7088,0.7095,0.7095,0.7095,0.7095,0.7085,0.7088,0.7095,0.7095,0.7095,0.7095,0.7095,0.7095,0.7139,0.7326,0.7238,0.7142,0.7329,0.7238,0.7051,0.692,0.6893,0.7211,0.8003,0.8209,0.8683,0.9776,1.0889,1.1869,1.2727,1.2438,1.2075,1.1753,1.1182,1.0863,1.0929,1.068,1.0533,1.0533,1.0533,1.0392,1.0087,1.0087,0.9947,0.9715,0.9715,0.9673,-0.1317,-0.1084,-0.0875,-0.0468,-0.0281,-0.0207,-0.0043,0.0,0.0,0.0,0.0,0.0092,0.0312,0.0182,0.0094,0.0333,0.0147,0.0,0.0,0.0,0.0,0.0,0.0,0.0,0.0,0.0,0.0,0.0,0.0,0.0,0.0,0.0717,0.1333,0.1808,0.2519,0.3493,0.4705,0.4715,0.502,0.5649,0.5001,0.4698,0.4741,0.5463,0.6021,0.6473,0.6473,0.6694,0.7095,0.7095,0.7095,0.7095,0.7095,0.7095,0.7095,0.7095,0.7095,0.7095,0.7095,0.7061,0.7024,0.7078,0.7058,0.7045,0.7238,0.7217,0.7115,0.7258,0.7214,0.7119,0.7258,0.7214,0.7142,0.738,0.7353,0.7285,0.7285,0.7356,0.7387,0.7255,0.7258,0.7272,0.7234,0.7136,0.7078,0.7024,0.7665,0.8245,0.8602,0.9304,1.0184,1.1277,1.2281,1.2868,1.2786,1.2683,1.2489,1.2158,1.159,1.1263,1.1263,1.1156,1.1096,1.1096,1.0922,1.0775,1.0661,1.0481,1.0365,1.0258,1.0258,1.0157,-0.0435,-0.0443,-0.0453,-0.0078,0.0,0.0,0.0,0.0,0.0,0.0,0.0,0.0095,0.0371,0.0188,0.0096,0.0385,0.0198,0.0,0.0,0.0,0.0,0.0,0.0,0.0,0.0,0.0,0.0,0.0,0.0334,0.0566,0.0566,0.1733,0.2566,0.2939,0.3728,0.4704,0.5877,0.5874,0.6236,0.6886,0.6194,0.5882,0.5882,0.6674,0.7055,0.7095,0.7095,0.7095,0.7095,0.7095,0.7095,0.7095,0.7095,0.7095,0.7095,0.7095,0.7095,0.7095,0.7095,0.7095,0.7095,0.7095,0.7095,0.7115,0.7265,0.7224,0.7119,0.7268,0.7221,0.7132,0.7329,0.7255,0.7162,0.7465,0.7411,0.7312,0.7405,0.7455,0.7492,0.7328,0.74,0.7424,0.7318,0.727,0.7223,0.7221,0.7919,0.8388,0.8328,0.9662,1.1171,1.2723,1.3381,1.3581,1.3073,1.3065,1.2906,1.2605,1.2118,1.1757,1.1577,1.1476,1.1389,1.1389,1.1229,1.1129,1.1129,1.0868,1.0727,1.0727,1.0633,1.0486,0.0,0.0,0.0,0.0,0.0,0.0,0.0,0.0,0.0,0.0,0.0,0.0,0.0,0.0,0.0,0.0,0.0,0.0,0.0,0.0,0.0,0.0,0.0,0.0,0.0,0.0,0.0,0.0,0.1121,0.1799,0.1799,0.2935,0.4148,0.5356,0.5401,0.5879,0.6886,0.6883,0.6883,0.6883,0.6883,0.6883,0.6886,0.6886,0.6964,0.7095,0.7095,0.7095,0.7095,0.7095,0.7095,0.7095,0.7095,0.7095,0.7095,0.7095,0.7095,0.7095,0.7095,0.7095,0.7095,0.7098,0.7098,0.7095,0.7102,0.7098,0.7095,0.7098,0.7098,0.7132,0.7333,0.7258,0.7136,0.7336,0.7258,0.7142,0.7343,0.7422,0.7461,0.7753,0.7695,0.7645,0.7784,0.7692,0.7593,0.7439,0.7415,0.7406,0.7204,0.9179,1.152,1.3864,1.4088,1.3968,1.3626,1.36,1.348,1.3227,1.2958,1.2522,1.194,1.159,1.1395,1.1395,1.1395,1.1395,1.1395,1.1136,1.0995,1.0982,1.0727,1.0593,0.0,0.0,0.0,0.0,0.0,0.0,0.0,0.0,0.0,0.0,0.0,0.0096,0.0385,0.0194,0.0097,0.0385,0.0198,0.0,0.0,0.0,0.0,0.0,0.0,0.0,0.0,0.0765,0.1212,0.1142,0.2235,0.285,0.272,0.3858,0.4697,0.5039,0.5893,0.647,0.677,0.677,0.6715,0.6607,0.6607,0.6773,0.7034,0.7034,0.7055,0.7095,0.7095,0.7095,0.7095,0.7095,0.7095,0.7095,0.7095,0.7095,0.7095,0.7095,0.7095,0.7095,0.7095,0.7095,0.7112,0.7268,0.7227,0.7152,0.7469,0.7344,0.7142,0.74,0.7264,0.7156,0.7465,0.7417,0.7366,0.7621,0.7645,0.7624,0.7672,0.7767,0.7804,0.7685,0.7709,0.7729,0.7672,0.8363,0.8868,0.8647,1.0091,1.1388,1.194,1.265,1.3343,1.4046,1.4088,1.3968,1.3626,1.36,1.348,1.3227,1.2958,1.271,1.2529,1.2204,1.2044,1.2044,1.1844,1.1737,1.1737,1.1236,1.0995,1.0982,1.0727,1.0593,0.0,0.0,0.0,0.0,0.0,0.0,0.0,0.0,0.0151,0.0705,0.0347,0.0244,0.1023,0.0538,0.0098,0.0342,0.0149,0.0,0.0,0.0,0.0,0.0,0.0,0.0195,0.0672,0.1303,0.1853,0.2256,0.3331,0.395,0.3813,0.4941,0.5613,0.5613,0.6322,0.6671,0.661,0.661,0.6563,0.6511,0.6511,0.6647,0.6923,0.6923,0.6987,0.7095,0.7095,0.7095,0.7095,0.7095,0.7095,0.7095,0.7095,0.7095,0.7095,0.7095,0.7095,0.7095,0.7095,0.7136,0.7238,0.7272,0.7258,0.7272,0.7482,0.7311,0.7136,0.7363,0.7329,0.7365,0.8096,0.7941,0.759,0.777,0.777,0.7743,0.7797,0.7882,0.7867,0.7797,0.7841,0.8018,0.8453,0.9188,0.978,1.0094,1.1352,1.2603,1.3453,1.3593,1.3726,1.4059,1.4088,1.4015,1.3834,1.378,1.3748,1.3567,1.3273,1.31,1.31,1.2585,1.2305,1.2305,1.2131,1.2044,1.2074,1.1605,1.1377,1.1363,1.0955,1.0914,0.0,0.0,0.0,0.0,0.0,0.0,0.0,0.0101,0.0515,0.1765,0.1107,0.0756,0.1962,0.1192,0.0346,0.0352,0.0353,0.0352,0.0352,0.0352,0.0349,0.0343,0.0342,0.077,0.1853,0.1944,0.2343,0.3373,0.444,0.5048,0.5041,0.6077,0.6661,0.6661,0.6661,0.6593,0.6494,0.6494,0.6494,0.6494,0.6494,0.6573,0.6678,0.6695,0.6848,0.7058,0.7071,0.7078,0.7078,0.7092,0.7095,0.7095,0.7095,0.7095,0.7095,0.7095,0.7095,0.7095,0.7095,0.7234,0.7333,0.7173,0.7268,0.735,0.7189,0.7146,0.7139,0.7139,0.7285,0.7668,0.8848,0.8492,0.7814,0.7973,0.7921,0.7861,0.7994,0.8021,0.8018,0.8159,0.8184,0.8627,0.9948,1.0288,1.0754,1.1879,1.1909,1.2084,1.2868,1.2929,1.3225,1.4064,1.4102,1.4088,1.4088,1.4088,1.4088,1.4088,1.3808,1.3593,1.356,1.2792,1.2345,1.2345,1.2318,1.2305,1.2305,1.2047,1.1906,1.1893,1.1323,1.1476,0.0,0.0,0.0,0.0,0.0,0.0,0.0,0.0807,0.1662,0.1927,0.2587,0.3215,0.3516,0.3354,0.315,0.3164,0.303,0.3001,0.3001,0.2914,0.2833,0.2821,0.2828,0.293,0.3181,0.3918,0.4402,0.4564,0.5533,0.6107,0.6002,0.6234,0.6395,0.6395,0.6395,0.6378,0.6344,0.6344,0.6344,0.6344,0.6344,0.6422,0.6566,0.6647,0.6736,0.6803,0.6879,0.693,0.694,0.7051,0.7095,0.7095,0.7095,0.7095,0.7095,0.7095,0.7095,0.7095,0.7095,0.7119,0.7179,0.7434,0.7441,0.7407,0.7607,0.759,0.7502,0.7502,0.7526,0.7624,0.8014,0.7952,0.808,0.9274,0.9522,0.9506,0.9539,0.9551,0.951,0.955,0.9558,0.9998,1.1268,1.2377,1.3402,1.4443,1.4167,1.4039,1.4474,1.4102,1.3979,1.4366,1.4222,1.4088,1.4088,1.4088,1.4088,1.4088,1.3808,1.35,1.3273,1.2886,1.269,1.269,1.2418,1.2305,1.2305,1.2047,1.1906,1.1899,1.1503,1.183,0.0,0.0,0.0,0.0,0.0,0.0,0.0,0.1511,0.2957,0.2976,0.3491,0.4216,0.482,0.4386,0.3915,0.3915,0.3806,0.3711,0.3711,0.3631,0.3594,0.3607,0.3615,0.3791,0.4253,0.4731,0.5189,0.5653,0.6131,0.6378,0.6303,0.63,0.63,0.63,0.63,0.63,0.63,0.63,0.63,0.63,0.63,0.6337,0.6419,0.66,0.6742,0.6814,0.6852,0.6886,0.6896,0.7038,0.7055,0.7001,0.7068,0.7095,0.7095,0.7095,0.7095,0.7095,0.7095,0.7142,0.7278,0.7438,0.7485,0.7509,0.7662,0.7658,0.76,0.76,0.7648,0.8002,0.9311,0.9256,0.9535,1.2152,1.1361,1.0145,1.0779,1.0925,1.0925,1.0925,1.0925,1.1312,1.2619,1.3932,1.5,1.5531,1.5344,1.5157,1.517,1.4903,1.4663,1.4536,1.4382,1.4242,1.4095,1.4088,1.4088,1.4088,1.3941,1.3788,1.3641,1.3206,1.2871,1.2576,1.2378,1.2305,1.2305,1.2616,1.2749,1.2777,1.2904,1.346,0.0144,0.0077,0.0,0.0,0.0,0.005,0.0303,0.2264,0.4066,0.4318,0.4516,0.5016,0.6103,0.533,0.4491,0.4475,0.4351,0.4246,0.4246,0.4235,0.4198,0.4221,0.4199,0.4493,0.5335,0.5283,0.5536,0.6441,0.6378,0.63,0.63,0.63,0.63,0.63,0.63,0.63,0.63,0.63,0.63,0.63,0.63,0.63,0.631,0.6515,0.6695,0.6817,0.6825,0.6849,0.6859,0.7028,0.7028,0.6933,0.7051,0.7095,0.7095,0.7095,0.7095,0.7139,0.736,0.7399,0.7385,0.7664,0.766,0.757,0.7621,0.7638,0.7638,0.7638,0.788,0.8665,1.0858,1.0893,1.1214,1.4657,1.3006,1.097,1.2042,1.2237,1.2237,1.2237,1.2431,1.2915,1.4022,1.5092,1.5784,1.5784,1.5738,1.5665,1.5431,1.5351,1.5137,1.4649,1.4549,1.4422,1.4182,1.4115,1.4088,1.4088,1.4088,1.4062,1.4015,1.3649,1.3172,1.2644,1.2583,1.2556,1.2556,1.3491,1.3954,1.3983,1.4536,1.5223,0.0764,0.0313,0.0,0.0,0.0,0.0297,0.1455,0.2914,0.4316,0.5475,0.6681,0.7496,0.757,0.7385,0.7238,0.7121,0.6982,0.689,0.689,0.6737,0.6649,0.6634,0.653,0.6492,0.6629,0.642,0.6331,0.6474,0.6378,0.63,0.63,0.63,0.63,0.63,0.63,0.63,0.63,0.63,0.63,0.63,0.63,0.63,0.6303,0.634,0.6371,0.6405,0.662,0.6729,0.6753,0.6984,0.7085,0.7068,0.7088,0.7095,0.7095,0.7095,0.7095,0.7272,0.8277,0.7988,0.7344,0.8612,0.831,0.7448,0.7706,0.7784,0.7784,0.7784,0.871,0.9763,1.0156,1.0951,1.2091,1.3734,1.3776,1.344,1.3584,1.3632,1.3632,1.3632,1.4513,1.5343,1.554,1.5683,1.5784,1.5784,1.5618,1.5438,1.5398,1.5223,1.5035,1.4955,1.4676,1.4502,1.4469,1.4229,1.4088,1.4088,1.4088,1.3975,1.3673,1.4151,1.4291,1.3962,1.3675,1.3528,1.3528,1.4522,1.4985,1.4985,1.5078,1.5651,0.1163,0.0461,0.0167,0.0837,0.1004,0.1367,0.2698,0.4055,0.5205,0.5867,0.7083,0.7941,0.7838,0.7746,0.7645,0.7495,0.7343,0.7241,0.7241,0.7139,0.7065,0.6987,0.6923,0.6861,0.6688,0.6552,0.6477,0.6399,0.6334,0.63,0.63,0.63,0.63,0.63,0.6176,0.6132,0.6132,0.6047,0.6047,0.6132,0.6259,0.63,0.63,0.63,0.6344,0.6426,0.6555,0.662,0.6719,0.6889,0.6977,0.6987,0.7065,0.7095,0.7183,0.7841,0.7665,0.7272,0.8496,0.8105,0.7351,0.8741,0.8819,0.855,0.9549,0.9897,0.9918,1.0031,1.0564,1.1214,1.1989,1.2619,1.3349,1.4657,1.4949,1.4949,1.4949,1.4949,1.4949,1.4949,1.5439,1.5784,1.5784,1.5784,1.5784,1.5784,1.5718,1.5578,1.5418,1.5424,1.5264,1.477,1.4743,1.4636,1.4302,1.4162,1.4088,1.4088,1.4088,1.4028,1.3901,1.4586,1.4626,1.3873,1.4319,1.4522,1.4522,1.5508,1.5965,1.6,1.6507,1.701,0.1538,0.08,0.0504,0.1558,0.1841,0.228,0.3777,0.494,0.5855,0.6314,0.7183,0.7882,0.7729,0.7645,0.7536,0.7343,0.7214,0.7095,0.7095,0.7065,0.7004,0.69,0.6861,0.6722,0.6535,0.648,0.6416,0.631,0.63,0.63,0.63,0.63,0.6282,0.6242,0.6091,0.5993,0.5993,0.5918,0.5935,0.6091,0.6166,0.6262,0.63,0.63,0.6358,0.646,0.6497,0.6536,0.6654,0.6807,0.7062,0.7361,0.7472,0.7712,0.8097,0.9017,0.8755,0.8189,0.9459,0.9051,0.8216,0.9638,0.9863,0.9845,1.1023,1.1422,1.1514,1.1745,1.2052,1.2544,1.3615,1.4118,1.4609,1.5581,1.5784,1.5784,1.5784,1.5784,1.5784,1.5784,1.5784,1.5784,1.5784,1.5784,1.5784,1.5784,1.5718,1.5611,1.5324,1.5478,1.5331,1.4596,1.4716,1.4676,1.4235,1.4128,1.4088,1.4088,1.4088,1.4088,1.4088,1.4842,1.4863,1.3994,1.5196,1.5724,1.5472,1.6307,1.6825,1.7114,1.7729,1.8008,0.1992,0.146,0.11,0.1642,0.1931,0.2596,0.4575,0.5239,0.5809,0.7211,0.7574,0.7577,0.7467,0.7506,0.7502,0.7156,0.7102,0.7095,0.7095,0.698,0.6896,0.6886,0.6671,0.6528,0.6515,0.6388,0.631,0.63,0.63,0.63,0.63,0.63,0.6231,0.601,0.5996,0.5993,0.5993,0.5986,0.6095,0.6286,0.6108,0.6118,0.63,0.63,0.6303,0.6317,0.6453,0.6518,0.6538,0.6651,0.7457,0.8607,0.8615,0.9363,1.0438,1.0481,1.0481,1.0641,1.2079,1.1658,1.0681,1.2288,1.1973,1.1029,1.108,1.1201,1.1344,1.1462,1.2371,1.342,1.3814,1.48,1.573,1.5778,1.5784,1.5784,1.5784,1.5784,1.5784,1.5784,1.5784,1.5784,1.5784,1.5784,1.5784,1.5784,1.5591,1.5311,1.5068,1.5042,1.4883,1.4556,1.4536,1.4529,1.4496,1.4249,1.4088,1.4088,1.4088,1.4088,1.4088,1.476,1.5065,1.5024,1.6707,1.7098,1.617,1.6696,1.7512,1.8488,1.8159,1.8008,0.2707,0.2344,0.2226,0.2816,0.3318,0.4044,0.5627,0.6172,0.6549,0.714,0.7461,0.7553,0.7446,0.7417,0.7383,0.7129,0.7095,0.7095,0.7095,0.6974,0.6849,0.6793,0.66,0.6477,0.6385,0.633,0.63,0.63,0.63,0.63,0.63,0.63,0.6276,0.6179,0.6081,0.5902,0.5749,0.5749,0.582,0.5966,0.601,0.6444,0.7249,0.7249,0.7629,0.8241,0.827,0.7978,0.7501,0.8196,0.8978,0.9653,0.9653,1.0036,1.0697,1.1423,1.1214,1.0794,1.2046,1.1667,1.0809,1.211,1.2235,1.2038,1.3007,1.3319,1.3424,1.3686,1.4085,1.4474,1.4807,1.5211,1.5598,1.5738,1.5784,1.5784,1.5784,1.5784,1.5784,1.5784,1.5784,1.5784,1.5784,1.5671,1.5618,1.5751,1.5585,1.5357,1.5257,1.5404,1.5264,1.4546,1.4689,1.473,1.4536,1.4255,1.4168,1.4355,1.4195,1.4088,1.4088,1.4988,1.5491,1.5491,1.6773,1.7346,1.7159,1.8046,1.8502,1.8598,1.8451,1.8237,0.3418,0.3128,0.3128,0.3866,0.4284,0.4866,0.6066,0.6481,0.6627,0.6814,0.7044,0.7204,0.7156,0.7146,0.7146,0.7095,0.7095,0.7095,0.7095,0.693,0.6814,0.6712,0.6522,0.6405,0.631,0.63,0.63,0.63,0.63,0.63,0.63,0.63,0.6252,0.6149,0.6006,0.5837,0.5593,0.5637,0.5909,0.6379,0.6452,0.7151,0.8313,0.8313,0.8656,0.9334,0.9669,0.9296,0.8498,0.916,0.993,1.0713,1.0713,1.1157,1.1863,1.2638,1.2425,1.1918,1.274,1.2496,1.1923,1.274,1.3028,1.3182,1.412,1.4442,1.4563,1.4763,1.4928,1.5075,1.5317,1.5471,1.5591,1.5785,1.5784,1.5784,1.5784,1.5784,1.5784,1.5784,1.5784,1.5784,1.5784,1.5671,1.5605,1.5751,1.5585,1.5398,1.5398,1.5478,1.5317,1.473,1.4888,1.4928,1.4689,1.4489,1.4462,1.4656,1.4396,1.4229,1.4229,1.5195,1.5696,1.5696,1.7131,1.7938,1.8143,1.8686,1.8902,1.8822,1.8822,1.8623,0.0,0.0,0.0,0.4636,0.4747,0.486,0.5765,0.5979,0.6064,0.6255,0.6405,0.6552,0.6661,0.6692,0.6787,0.7031,0.7082,0.7085,0.7085,0.6881,0.6698,0.6695,0.648,0.6306,0.63,0.63,0.63,0.63,0.63,0.63,0.63,0.6296,0.6156,0.5817,0.58,0.5728,0.5627,0.5757,0.6404,0.7523,0.7523,0.818,0.9334,0.9334,0.9372,0.9448,1.0415,1.0303,0.9372,0.9372,1.0291,1.173,1.1742,1.2685,1.4075,1.4082,1.4088,1.4128,1.4409,1.4322,1.4135,1.4416,1.4502,1.4456,1.4175,1.4282,1.4509,1.4516,1.473,1.5068,1.5317,1.5611,1.5784,1.5784,1.5784,1.5784,1.5784,1.5784,1.5784,1.5784,1.5784,1.5784,1.5784,1.5771,1.5771,1.5784,1.5585,1.5398,1.5404,1.5164,1.5028,1.5022,1.5022,1.5022,1.5022,1.5015,1.5015,1.5022,1.4696,1.4492,1.4492,1.524,1.5726,1.5767,1.7893,1.8993,1.9054,1.8617,1.8713,1.9307,1.9277,1.9053,0.452,0.0,0.0,0.0,0.0,0.0,0.5518,0.5711,0.5878,0.5918,0.6173,0.6371,0.6416,0.6508,0.6563,0.6644,0.6749,0.682,0.682,0.6753,0.6661,0.6549,0.6504,0.6412,0.631,0.63,0.63,0.63,0.63,0.63,0.63,0.6156,0.6054,0.5932,0.5759,0.5936,0.6535,0.6485,0.7074,0.8288,0.8288,0.9026,1.0378,1.0378,1.0789,1.1471,1.1774,1.1737,1.1477,1.1477,1.1879,1.2499,1.2713,1.3192,1.3753,1.4008,1.4088,1.4095,1.4175,1.4155,1.4102,1.4182,1.4208,1.4195,1.4115,1.4142,1.4249,1.4462,1.4583,1.4756,1.5264,1.5611,1.5784,1.5784,1.5784,1.5784,1.5784,1.5784,1.5784,1.5784,1.5784,1.5784,1.5784,1.5658,1.5585,1.5751,1.5585,1.5471,1.5678,1.5638,1.5504,1.5297,1.5277,1.5277,1.5277,1.5129,1.5102,1.5264,1.5003,1.4843,1.4843,1.5059,1.5951,1.76,1.8237,1.9215,2.0596,2.0157,1.9889,1.9727,1.9102,1.8926,0.0,0.0,0.0,0.5086,0.0,0.0,0.5382,0.5443,0.5504,0.5443,0.5623,0.581,0.5911,0.6044,0.6143,0.6143,0.6281,0.6488,0.6675,0.6647,0.6573,0.6521,0.646,0.6392,0.631,0.63,0.63,0.63,0.63,0.63,0.63,0.6112,0.5963,0.5935,0.5708,0.5998,0.6819,0.6899,0.7671,0.9044,0.9273,1.0014,1.126,1.126,1.1622,1.2305,1.2305,1.2305,1.2305,1.2305,1.2516,1.2817,1.3093,1.3347,1.364,1.3975,1.4088,1.4088,1.4088,1.4088,1.4088,1.4088,1.4088,1.4088,1.4088,1.4088,1.4148,1.4436,1.4696,1.499,1.5458,1.5705,1.5784,1.5784,1.5784,1.5784,1.5784,1.5784,1.5784,1.5784,1.5784,1.5784,1.5784,1.5691,1.5631,1.5758,1.5685,1.5638,1.5758,1.5784,1.5718,1.5591,1.5578,1.5578,1.5578,1.5424,1.5398,1.5565,1.5304,1.5189,1.5189,1.5816,1.6853,1.8372,1.9003,1.9861,2.0957,2.0879,2.0615,2.0166,1.9307,1.9043,0.0,0.0,0.0,0.0,0.5551,0.0,0.5392,0.5308,0.5167,0.4975,0.5026,0.5199,0.5368,0.5521,0.562,0.5634,0.5813,0.6111,0.6569,0.6536,0.6508,0.6491,0.6388,0.6317,0.6303,0.63,0.63,0.63,0.63,0.6293,0.6276,0.6088,0.5972,0.5922,0.5808,0.6131,0.6981,0.7361,0.829,0.9856,1.0282,1.0949,1.1859,1.1859,1.1977,1.2258,1.2258,1.2271,1.2305,1.2305,1.2516,1.2817,1.3093,1.3347,1.364,1.3975,1.4088,1.4088,1.4088,1.4088,1.4088,1.4088,1.4088,1.4088,1.4088,1.4088,1.4148,1.4436,1.4943,1.5451,1.5712,1.5758,1.5784,1.5784,1.5784,1.5784,1.5784,1.5784,1.5784,1.5784,1.5784,1.5784,1.5784,1.5784,1.5784,1.5784,1.5784,1.5784,1.5784,1.5784,1.5784,1.5784,1.5784,1.5784,1.5784,1.5784,1.5784,1.5784,1.5585,1.5491,1.5676,1.7026,1.8065,1.8637,1.9993,2.0674,2.0674,2.0986,2.0957,2.0586,1.9725,1.9287,0.0,0.0,0.6127,0.6047,0.6205,0.0,0.5548,0.5708,0.5814,0.5177,0.5209,0.5358,0.5388,0.5521,0.5652,0.5758,0.579,0.5918,0.6091,0.6342,0.647,0.6354,0.6419,0.6426,0.631,0.63,0.63,0.63,0.63,0.6245,0.6081,0.5928,0.6094,0.6656,0.6542,0.7218,0.878,0.8875,0.9524,1.0758,1.0836,1.1113,1.151,1.151,1.167,1.1986,1.1986,1.2084,1.2305,1.2305,1.2516,1.2817,1.3093,1.3347,1.364,1.3975,1.4088,1.4088,1.4088,1.4088,1.4088,1.4088,1.4088,1.4088,1.4088,1.4088,1.4148,1.4436,1.4943,1.5411,1.5464,1.5651,1.5784,1.5784,1.5784,1.5784,1.5784,1.5784,1.5784,1.5784,1.5784,1.5784,1.5784,1.5784,1.5784,1.5784,1.5784,1.5784,1.5784,1.5784,1.5784,1.5784,1.5784,1.5784,1.5784,1.5784,1.5784,1.5784,1.5724,1.6162,1.7223,1.7559,1.8502,2.0209,2.081,2.1064,2.1064,2.083,2.0693,2.0586,1.9725,1.9287,0.6293,0.6387,0.6363,0.627,0.631,0.0,0.0,0.5775,0.5813,0.546,0.5366,0.5362,0.5362,0.5499,0.5616,0.5686,0.5694,0.581,0.6089,0.6156,0.6112,0.6078,0.6095,0.6139,0.6146,0.6146,0.6146,0.6146,0.6074,0.625,0.6726,0.6484,0.6763,0.7732,0.7498,0.8045,0.9494,0.9494,0.9987,1.0995,1.0995,1.1069,1.1216,1.1329,1.151,1.1663,1.1957,1.2084,1.2098,1.2238,1.2516,1.2797,1.2958,1.3066,1.3247,1.3701,1.3868,1.3888,1.4035,1.4088,1.4088,1.4088,1.4088,1.4088,1.4088,1.4188,1.4335,1.4482,1.4943,1.5398,1.5398,1.5611,1.5784,1.5784,1.5784,1.5784,1.5784,1.5784,1.5784,1.5784,1.5784,1.5784,1.5784,1.5784,1.5784,1.5784,1.5784,1.5784,1.5784,1.5784,1.5784,1.5784,1.5784,1.5784,1.5784,1.5784,1.5784,1.5784,1.6386,1.6919,1.7338,1.829,1.9445,2.0645,2.1248,2.1348,2.0898,2.0713,2.0605,2.0586,1.9902,1.96,0.6635,0.6718,0.6693,0.6588,0.65,0.6322,0.0,0.0,0.0,0.5686,0.5519,0.5386,0.5386,0.5535,0.564,0.5629,0.5676,0.5807,0.615,0.5998,0.5867,0.5907,0.5786,0.58,0.5973,0.5966,0.5949,0.5949,0.6016,0.6446,0.7345,0.7242,0.7639,0.8705,0.8461,0.8838,0.995,1.0004,1.0369,1.1076,1.1076,1.1076,1.1082,1.1282,1.1456,1.1536,1.2011,1.2118,1.2007,1.2204,1.2445,1.2703,1.2764,1.2817,1.2938,1.34,1.36,1.3646,1.3981,1.4088,1.4088,1.4088,1.4088,1.4088,1.4088,1.4249,1.4436,1.4436,1.4863,1.5311,1.5311,1.5571,1.5784,1.5784,1.5784,1.5784,1.5784,1.5784,1.5784,1.5784,1.5784,1.5784,1.5784,1.5784,1.5784,1.5784,1.5784,1.5784,1.5784,1.5784,1.5784,1.5784,1.5784,1.5784,1.5784,1.5784,1.592,1.6157,1.7066,1.762,1.7839,1.9523,2.0587,2.084,2.1435,2.1367,2.0605,2.0605,2.0605,2.0595,2.0117,1.9912,0.784,0.7904,0.7773,0.7232,0.7354,0.7297,0.6087,0.0,0.6332,0.5735,0.0,0.5729,0.5729,0.0,0.0,0.5712,0.5896,0.5967,0.5788,0.5937,0.6093,0.6242,0.5774,0.5576,0.5952,0.5908,0.5827,0.5827,0.6523,0.6945,0.6974,0.7641,0.842,0.92,0.9422,0.9959,1.0824,1.1074,1.1274,1.1342,1.1342,1.1342,1.1342,1.1375,1.157,1.1859,1.1926,1.2044,1.2258,1.2285,1.2318,1.2378,1.2683,1.2951,1.32,1.3487,1.36,1.3646,1.3981,1.4088,1.4088,1.4088,1.4088,1.4088,1.4088,1.4108,1.4135,1.4135,1.4563,1.5062,1.5062,1.5418,1.5784,1.5784,1.5784,1.5784,1.5784,1.5784,1.5784,1.5784,1.5784,1.5784,1.5784,1.5784,1.5784,1.5784,1.5784,1.5784,1.5784,1.5784,1.5784,1.5784,1.5784,1.5784,1.5784,1.5784,1.6292,1.7412,1.7209,1.8181,2.0712,2.1714,2.2081,2.1748,2.1455,2.1064,2.0605,2.0605,2.0605,2.0595,2.0117,1.9912,0.7858,0.8176,0.8381,0.808,0.7987,0.79,0.7573,0.7244,0.6953,0.6802,0.0,0.0,0.0,0.0,0.0,0.0,0.5965,0.5939,0.598,0.5781,0.5741,0.5989,0.5888,0.5829,0.5925,0.5769,0.5603,0.5393,0.6136,0.6904,0.7631,0.8231,0.9087,1.0243,1.0238,1.0458,1.0989,1.0949,1.1096,1.1389,1.1256,1.1176,1.1189,1.153,1.1563,1.1424,1.1897,1.2091,1.2064,1.2231,1.2305,1.2311,1.2438,1.2572,1.2739,1.322,1.3353,1.342,1.3928,1.4088,1.4088,1.4088,1.4088,1.4088,1.4088,1.4088,1.4122,1.4289,1.4643,1.5048,1.517,1.5518,1.5784,1.5784,1.5784,1.5784,1.5784,1.5784,1.5784,1.5784,1.5784,1.5784,1.5784,1.5784,1.5784,1.5784,1.5784,1.5784,1.5784,1.5784,1.5784,1.5784,1.5784,1.5784,1.5784,1.5784,1.6339,1.7638,1.8611,1.9887,2.1565,2.2206,2.207,2.1182,2.1445,2.1269,2.0605,2.0605,2.0605,2.0595,2.0419,2.0293,0.8439,0.8868,0.9144,0.899,0.8761,0.8589,0.8625,0.8012,0.7491,0.7586,0.741,0.0,0.0,0.0,0.6337,0.0,0.0,0.6078,0.6107,0.5825,0.5689,0.5821,0.5973,0.6018,0.5908,0.5767,0.5607,0.5461,0.5996,0.6943,0.8292,0.8677,0.9518,1.0942,1.0868,1.0968,1.1229,1.1136,1.1249,1.1628,1.1369,1.1276,1.1363,1.1745,1.1712,1.1383,1.2024,1.2184,1.2004,1.2218,1.2305,1.2305,1.2305,1.2351,1.2492,1.3013,1.326,1.34,1.3915,1.4088,1.4088,1.4088,1.4088,1.4088,1.4088,1.4088,1.4128,1.4342,1.4669,1.5055,1.5224,1.5551,1.5784,1.5784,1.5784,1.5784,1.5784,1.5784,1.5784,1.5784,1.5784,1.5784,1.5784,1.5784,1.5784,1.5784,1.5784,1.5784,1.5784,1.5784,1.5784,1.5784,1.5784,1.5784,1.5784,1.6109,1.6947,1.8408,2.0315,2.1555,2.2029,2.2461,2.2187,2.1123,2.1728,2.1631,2.0752,2.0752,2.0723,2.0605,2.0605,2.0605,1.0352,1.0441,1.0364,0.9949,0.9846,0.9575,0.8618,0.8125,0.7819,0.7654,0.739,0.7109,0.684,0.6773,0.0,0.0,0.0,0.0,0.0,0.622,0.6325,0.5947,0.5951,0.5981,0.5921,0.5848,0.5961,0.6332,0.6568,0.731,0.8698,0.8899,0.9618,1.0975,1.1256,1.1543,1.1873,1.2111,1.2251,1.2271,1.202,1.2027,1.2251,1.2027,1.2011,1.2265,1.2291,1.2298,1.2285,1.2298,1.2305,1.2305,1.2305,1.2516,1.2811,1.3093,1.3347,1.3633,1.3981,1.4088,1.4088,1.4088,1.4088,1.4088,1.4088,1.4088,1.4088,1.4095,1.4559,1.5015,1.5022,1.5398,1.5784,1.5784,1.5784,1.5784,1.5784,1.5784,1.5784,1.5784,1.5784,1.5784,1.5784,1.5784,1.5784,1.5784,1.5784,1.5784,1.5784,1.5784,1.5784,1.5784,1.5784,1.5784,1.5784,1.6943,1.85,2.049,2.2123,2.2843,2.251,2.2847,2.2867,2.2461,2.248,2.2029,2.1171,2.1171,2.0986,2.0605,2.0605,2.0605,1.0018,1.0467,1.0852,1.0664,1.0425,1.0198,1.0155,0.9362,0.8704,0.9052,0.8444,0.7832,0.767,0.7184,0.0,0.0,0.0,0.0,0.0,0.6003,0.6165,0.628,0.6117,0.6003,0.6031,0.6139,0.6189,0.6149,0.6991,0.7771,0.8357,0.9063,0.976,1.037,1.0701,1.0935,1.1035,1.1323,1.153,1.1688,1.1623,1.173,1.2011,1.1946,1.196,1.2067,1.2218,1.2305,1.2305,1.2305,1.2305,1.2305,1.2305,1.2605,1.3066,1.3173,1.3353,1.3646,1.3981,1.4088,1.4088,1.4088,1.4088,1.4088,1.4088,1.4222,1.4416,1.4609,1.4854,1.5102,1.5438,1.5538,1.5591,1.5785,1.5784,1.5784,1.5784,1.5784,1.5784,1.5784,1.5784,1.5784,1.5784,1.5784,1.5784,1.5784,1.5784,1.5784,1.5784,1.5784,1.5784,1.5784,1.5784,1.6157,1.699,1.8902,2.0388,2.1059,2.2372,2.2906,2.2529,2.2877,2.2812,2.2119,2.2373,2.2227,2.167,2.1337,2.1112,2.0996,2.0703,2.0605,1.0335,1.0866,1.1371,1.1329,1.1208,1.1095,1.1129,1.0409,0.9795,1.0128,0.9279,0.8513,0.8602,0.7892,0.0,0.0,0.0,0.0,0.0,0.5998,0.6097,0.6365,0.6196,0.6195,0.6463,0.638,0.6355,0.6408,0.7019,0.7627,0.819,0.8912,0.9623,1.0261,1.0593,1.0847,1.1055,1.1243,1.145,1.1737,1.163,1.1737,1.206,1.1953,1.196,1.2037,1.2218,1.2305,1.2305,1.2305,1.2305,1.2311,1.2418,1.2766,1.3213,1.3213,1.346,1.3828,1.4021,1.4088,1.4088,1.4088,1.4088,1.4088,1.4088,1.4215,1.4402,1.464,1.4847,1.5095,1.5424,1.5538,1.5598,1.5738,1.5784,1.5784,1.5784,1.5784,1.5784,1.5784,1.5784,1.5784,1.5784,1.5784,1.5784,1.5784,1.5784,1.5784,1.5784,1.5784,1.5784,1.5784,1.6204,1.7171,1.8818,2.0395,2.148,2.1889,2.2677,2.2974,2.2701,2.2955,2.2838,2.2344,2.2598,2.2529,2.2109,2.1826,2.157,2.1455,2.1006,2.0801]},{"header":{"parameterUnit":"m.s-1","parameterCategory":1,"la1":30.6,"la2":29.2853,"lo1":-89.7004,"lo2":-87.6739,"dy":0.0162,"dx":0.0183,"nx":112,"ny":82,"refTime":"2023-03-14T18:00:00:Z","depth":0,"parameterNumber":3,"parameterNumberName":"V-component_of_WINDS"},"data":[0.0,0.0,0.0,0.0,0.0,0.0,0.0,0.0,0.0,0.0,0.0,0.0,0.0,0.0,0.0,0.0,0.0,0.0,0.0,0.0,0.0,0.0,0.0,0.0,0.0,0.0,0.0,0.0,0.0,0.0,0.0,0.0,0.0,0.0,0.0,0.0,0.0,0.0,0.0,0.0,0.0,0.0,0.0,0.0,0.0,0.0,0.0,0.0,0.0,0.0,0.0,0.0,0.0,0.0,0.0,0.0,0.0,0.0,0.0,0.0,0.0,0.0,0.0,0.0,0.0,0.0,0.0,0.0,0.0,0.0,0.0,0.0,0.0,0.0,0.0,0.0,0.0,0.0,0.0,0.0,0.0,0.0,0.0,0.0,0.0,0.0,0.0,0.0,0.0,0.0,0.5126,0.5696,0.7939,0.8836,0.7495,0.7659,0.6288,0.2619,0.0,0.0,0.0,0.0,0.0,0.0,0.0,0.0,0.0,0.0,0.0,0.0,0.0,0.0,0.0,0.0,0.0,0.0,0.0,0.0,0.0,0.0,0.0,0.0,0.0,0.0,0.0,0.0,0.0,0.0,0.0,0.0,0.0,0.0,0.0,0.0,0.0,0.0,0.0,0.0,0.0,0.0,0.0,0.0,0.0,0.0,0.0,0.0,0.0,0.0,0.0,0.0,0.0,0.0,0.0,0.0,0.0,0.0,0.0,0.0,0.0,0.0,0.0,0.0,0.0,0.0,0.0,0.0,0.0,0.0,0.0,0.0,0.0,0.0,0.0,0.0,0.0,0.0,0.0,0.0,0.0,0.0,0.0,0.0,0.0,0.0,0.0,0.0,0.0,0.0,0.0,0.0,0.0,0.0,0.0,0.0,0.0,0.0,0.0,0.0,0.0,0.0,0.0,0.0,0.4682,0.6284,0.7378,0.7333,0.5648,0.5663,0.4388,0.1209,0.0,0.0,0.0,0.0,0.0,0.0,0.0,0.0,0.0,0.0,0.0,0.0,0.0,0.0,0.0,0.0,0.0,0.0,0.0,0.0,0.0,0.0,0.0,0.0,0.0,0.0,0.0,0.0,0.0,0.0,0.0,0.0,0.0,0.0,0.0,0.0,0.0,0.0,0.0,0.0,0.0,0.0,0.0,0.0,0.0,0.0,0.0,0.0,0.0,0.0,0.0,0.0,0.0,0.0,0.0,0.0,0.0,0.0,0.0,0.0,0.0,0.0,0.0,0.0,0.0,0.0,0.0,0.0,0.0,0.0,0.0,0.0,0.0,0.0,0.0,0.0,0.0,0.0,0.0,0.0,0.0,0.0,0.0,0.0,0.0,0.0,0.0,0.0,0.0,0.0,0.0,0.0,0.0,0.0,0.0,0.0,0.0,0.0,0.0,0.0,0.0,0.0,0.0,0.3628,0.4058,0.5191,0.5959,0.5826,0.4416,0.4548,0.3567,0.0926,0.0558,0.0,0.0,0.0,0.0,0.0,0.0,0.0,0.0,0.0,0.0,0.0,0.0,0.0,0.0,0.0,0.0,0.0,0.0,0.0,0.0,0.0,0.0,0.0,0.0,0.0,0.0,0.0,0.0,0.0,0.0,0.0,0.0,0.0,0.0,0.0,0.0,0.0,0.0,0.0,0.0,0.0,0.0,0.0,0.0,0.0,0.0,0.0,0.0,0.0,0.0,0.0,0.0,0.0,0.0,0.0,0.0,0.0,0.0,0.0,0.0,0.0,0.0,0.0,0.0,0.0,0.0,0.0,0.0,0.0,0.0,0.0,0.0,0.0,0.0,0.0,0.0,0.0,0.0,0.0,0.0,0.0,0.0,0.0,0.0,0.0,0.0,0.0,0.0,0.0,0.0,0.0,0.0,0.0,0.0,0.0,0.0,0.0,0.0,0.0,0.0,0.0,0.0,0.3735,0.3655,0.41,0.4792,0.4812,0.3832,0.3961,0.3217,0.1139,0.0161,0.0,0.0,0.0,0.0,0.0,0.0,0.0,0.0,0.0,0.0,0.0,0.0,0.0,0.0,0.0,0.0,0.0,0.0,0.0,0.0,0.0,0.0,0.0,0.0,0.0,0.0,0.0,0.0,0.0,0.0,0.0,0.0,0.0,0.0,0.0,0.0,0.0,0.0,0.0,0.0,0.0,0.0,0.0,0.0,0.0,0.0,0.0,0.0,0.0,0.0,0.0,0.0,0.0,0.0,0.0,0.0,0.0,0.0,0.0,0.0,0.0,0.0,0.0,0.0,0.0,0.0,0.0,0.0,0.0,0.0,0.0,0.0,0.0,0.0,0.0,0.0,0.0,0.0,0.0,0.0,0.0,0.0,0.0,0.0,0.0,0.0,0.0,0.0,0.0,0.0,0.0,0.0,0.0,0.0,0.0,0.0,0.0,0.0,0.0,0.0,0.0,0.0,0.3265,0.3843,0.3994,0.4574,0.4713,0.42,0.3951,0.3195,0.1735,0.0307,0.0,0.0,0.0,0.0,0.0,0.0,0.0,0.0,0.0,0.0,0.0,0.0,0.0,0.0,0.0,0.0,0.0,0.0,0.0,0.0,0.0,0.0,0.0,0.0,0.0,0.0,0.0,0.0,0.0,0.0,0.0,0.0,0.0,0.0,0.0,0.0,0.0,0.0,0.0,0.0,0.0,0.0,0.0,0.0,0.0,0.0,0.0,0.0,0.0,0.0,0.0,0.0,0.0,0.0,0.0,0.0,0.0,0.0,0.0,0.0,0.0,0.0,0.0,0.0,0.0,0.0,0.0,0.0,0.0,0.0,0.0,0.0,0.0,0.0,0.0,0.0,0.0,0.0,0.0,0.0,0.0,0.0,0.0,0.0,0.0,0.0,0.0,0.0,0.0,0.0,0.0,0.0,0.0,0.0,0.0,0.0,0.0,0.0,0.0,0.0,0.0,0.0,0.2736,0.3244,0.3585,0.3833,0.3837,0.3545,0.3353,0.2668,0.135,0.0,0.0,0.0,0.0,0.0,0.0,0.0,0.0,0.0,0.0,0.0,0.0,0.0,0.0,0.0,0.0,0.0,0.0,0.0,0.0,0.0,0.0,0.0,0.0,0.0,0.0,0.0,0.0,0.0,0.0,0.0,0.0,0.0,0.0,0.0,0.0,0.0,0.0,0.0,0.0,0.0,0.0,0.0,0.0,0.0,0.0,0.0,0.0,0.0,0.0,0.0,0.0,0.0,0.0,0.0,0.0,0.0,0.0,0.0,0.0,0.0,0.0,0.0,0.0,0.0,0.0,0.0,0.0,0.0,0.0,0.0,0.0,0.0,0.0,0.0,0.0,0.0,0.0,0.0,0.0,0.0,0.0,0.0,0.0,0.0,0.0,0.0,0.0,0.0,0.0,0.0,0.0,0.0,0.0,0.0,0.0,0.0,0.0,0.0,0.0,0.0,0.0,0.2069,0.2521,0.2949,0.3266,0.3313,0.3309,0.3315,0.3067,0.2412,0.1291,0.0,0.0,0.0,0.0,0.0,0.0,0.0,0.0,0.0,0.0,0.0,0.0,0.0,0.0,0.0,0.0,0.0,0.0,0.0,0.0,0.0,0.0,0.0,0.0,0.0,0.0,0.0,0.0,0.0,0.0,0.0,0.0,0.0,0.0,0.0,0.0,0.0,0.0,0.0,0.0,0.0,0.0,0.0,0.0,0.0,0.0,0.0,0.0,0.0,0.0,0.0,0.0,0.0,0.0,0.0,0.0,0.0,0.0,0.0,0.0,0.0,0.0,0.0,0.0,0.0,0.0,0.0,0.0,0.0,0.0,0.0,0.0,0.0,0.0,0.0,0.0,0.0,0.0,0.0,0.0,0.0,0.0,0.0,0.0,0.0,0.0,0.0,0.0,0.0,0.0,0.0,0.0,0.0,0.0,0.0,0.0,0.0,0.0,0.0,0.0,0.0,0.0,0.2044,0.2661,0.3117,0.3098,0.3099,0.3298,0.3763,0.3248,0.2559,0.0,0.0,0.0,0.0,0.0,0.0,0.0,0.0,0.0,0.0,0.0,0.0,0.0,0.0,0.0,0.0,0.0,0.0,0.0,0.0,0.0,0.0,0.0,0.0,0.0,0.0,0.0,0.0,0.0,0.0,0.0,0.0,0.0,0.0,0.0,0.0,0.0,0.0,0.0,0.0,0.0,0.0,0.0,0.0,0.0,0.0,0.0,0.0,0.0,0.0,0.0,0.0,0.0,0.0,0.0,0.0,0.0,0.0,0.0,0.0,0.0,0.0,0.0,0.0,0.0,0.0,0.0,0.0,0.0,0.0,0.0,0.0,0.0,0.0,0.0,0.0,0.0,0.0,0.0,0.0,0.0,0.0,0.0,0.0,0.0,0.0,0.0,0.0,0.0,0.0,0.0,0.0,0.0,0.0,0.0,0.0,0.0,0.0,0.0,0.0,0.0,0.0,0.0,0.2355,0.3126,0.3616,0.3285,0.332,0.343,0.3574,0.334,0.2736,0.1693,0.0,0.0,0.0,0.0,0.0,0.0,0.0,0.0,0.0,0.0,0.0,0.0,0.0,0.0,0.0,0.0,0.0,0.0,0.0,0.0,0.0,0.0,0.0,0.0,0.0,0.0,0.0,0.0,0.0,0.0,0.0,0.0,0.0,0.0,0.0,0.0,0.0,0.0,0.0,0.0,0.0,0.0,0.0,0.0,0.0,0.0,0.0,0.0,0.0,0.0,0.0,0.0,0.0,0.0,0.0,0.0,0.0,0.0,0.0,0.0,0.0,0.0,0.0,0.0,0.0,0.0,0.0,0.0,0.0,0.0,0.0,0.0,0.0,0.0,0.0,0.0,0.0,0.0,0.0,0.0,0.0,0.0,0.0,0.0,0.0,0.0,0.0,0.0,0.0,0.0,0.0,0.0,0.0,0.0,0.0,0.0,0.0,0.0,0.0,0.0,0.0,0.0,0.2893,0.3496,0.3878,0.3649,0.3595,0.3584,0.3579,0.3459,0.295,0.1947,0.0,0.0,0.0,0.0,0.0,0.0,0.0,0.0,0.0,0.0,0.0,0.0,0.0,0.0,0.0,0.0,0.0,0.0,0.0,0.0,0.0,0.0,0.0,0.0,0.0,0.0,0.0,0.0,0.0,0.0,0.0,0.0,0.0,0.0,0.0,0.0,0.0,0.0,0.0,0.0,0.0,0.0,0.0,0.0,0.0,0.0,0.0,0.0,0.0,0.0,0.0,0.0,0.0,0.0,0.0,0.0,0.0,0.0,0.0,0.0,0.0,0.0,0.0,0.0,0.0,0.0,0.0,0.0,0.0,0.0,0.0,0.0,0.0,0.0,0.0,0.0,0.0,0.0,0.0,0.0,0.0,0.0,0.0,0.0,0.0,0.0,0.0,0.0,0.0,0.0,0.0,0.0,0.0,0.0,0.0,0.0,0.0,0.0,0.0,0.0,0.0,0.0,0.3624,0.3893,0.4141,0.4299,0.4002,0.3813,0.3839,0.3672,0.3235,0.2436,0.0,0.0,0.0,0.0,0.0,0.0,0.0,0.0,0.0,0.0,0.0,0.0,0.0,0.0,0.0,0.0,0.0,0.0,0.0,0.0,0.0,0.0,0.0,0.0,0.0,0.0,0.0,0.0,0.0,0.0,0.0,0.0,0.0,0.0,0.0,0.0,0.0,0.0,0.0,0.0,0.0,0.0,0.0,0.0,0.0,0.0,0.0,0.0,0.0,0.0,0.0,0.0,0.0,0.0,0.0,0.0,0.0,0.0,0.0,0.0,1.1691,1.1256,0.0,0.0,0.0,0.0,0.0,0.0,0.0,0.0,0.0,0.0,0.0,0.0,0.0,0.0,0.0,0.0,0.0,0.0,0.0,0.0,0.0,0.0,0.0,0.0,0.0,0.0,0.0,0.0,0.0,0.0,0.0,0.0,0.0,0.0,0.0,0.0,0.0,0.0,0.0,0.0,0.4466,0.5047,0.5593,0.5874,0.5103,0.4654,0.4858,0.4413,0.3815,0.3051,0.2135,0.0,0.0,0.0,0.0,0.0,0.0,0.0,0.0,0.0,0.0,0.0,0.0,0.0,0.0,0.0,0.0,0.0,0.0,0.0,0.0,0.0,0.0,0.0,0.0,0.0,0.0,0.0,0.0,0.0,0.0,0.0,0.0,0.0,0.0,0.0,0.0,0.0,0.0,0.0,0.0,0.0,0.0,0.0,0.0,0.0,0.0,0.0,0.0,0.0,0.0,0.0,0.0,0.0,0.0,0.0,0.0,0.0,0.0,0.0,1.3116,1.2138,0.0,0.0,0.0,0.0,0.0,0.0,0.0,0.0,0.0,0.0,0.0,0.0,0.0,0.0,0.0,0.0,0.0,0.0,0.0,0.0,0.0,0.0,0.0,0.0,0.0,0.0,0.0,0.0,0.0,0.0,0.0,0.0,0.0,0.0,0.0,0.0,0.0,0.0,0.0,0.0,0.5702,0.6128,0.6515,0.6756,0.5882,0.529,0.5302,0.4921,0.4414,0.3764,0.2904,0.0,0.0,0.0,0.0,0.0,0.0,0.0,0.0,0.0,0.0,0.0,0.0,0.0,0.0,0.0,0.0,0.0,0.0,0.0,0.0,0.0,0.0,0.0,0.0,0.0,0.0,0.0,0.0,0.0,0.0,0.0,0.0,0.0,0.0,0.0,0.0,0.0,0.0,0.0,0.0,0.0,0.0,0.0,0.0,0.0,0.0,0.0,0.0,0.0,0.0,0.0,0.0,0.0,1.6788,1.7095,1.6429,1.644,1.6863,1.7448,1.4849,1.3455,1.3027,1.319,0.0,0.0,0.0,0.0,0.0,0.0,0.0,0.0,0.0,0.0,0.0,0.0,0.0,0.0,0.0,0.0,0.0,0.0,0.0,0.0,0.0,0.0,1.3797,1.4169,1.4813,1.444,1.1094,0.0,0.0,0.0,0.0,0.0,0.0,0.0,0.0,0.0,0.0,0.0,0.6906,0.7135,0.7324,0.7413,0.6535,0.5862,0.5615,0.5382,0.504,0.4542,0.3747,0.2836,0.0,0.0,0.0,0.0,0.0,0.0,0.0,0.0,0.0,0.0,0.0,0.0,0.0,0.0,0.0,0.0,0.0,0.0,0.0,0.0,0.0,0.0,0.0,0.0,0.0,0.0,0.0,0.0,0.0,0.0,0.0,0.0,1.4077,1.3713,0.0,0.0,0.0,0.0,0.0,0.0,0.0,0.0,0.0,0.0,0.0,0.0,0.0,1.6961,1.7417,1.7931,1.7999,1.7594,1.8136,1.8435,1.8499,1.7966,1.8125,1.8722,1.7795,0.0,1.5865,1.589,0.0,0.0,0.0,0.0,0.0,0.0,0.0,0.0,0.0,0.0,0.0,0.0,0.0,0.0,0.0,0.0,0.0,0.0,0.0,0.0,0.0,0.0,1.668,1.5846,1.6632,1.7113,1.5388,1.3389,1.1906,1.1847,1.1459,1.0847,0.0,0.0,0.0,0.0,0.0,0.0,0.7433,0.8039,0.8439,0.8328,0.7282,0.652,0.6371,0.6017,0.5667,0.5365,0.4798,0.3976,0.2855,0.2019,0.0,0.0,0.0,0.0,0.0,0.0,0.0,0.0,0.0,0.0,0.0,0.0,0.0,0.0,0.0,0.0,0.0,0.0,0.0,0.0,0.0,0.0,0.0,0.0,0.0,0.0,0.0,0.0,0.0,1.4285,1.4968,1.4272,1.5753,1.6256,0.0,0.0,0.0,0.0,0.0,0.0,0.0,0.0,0.0,1.7721,1.8647,1.9384,1.9908,2.0404,2.0686,2.0657,2.1314,2.1277,2.0568,2.034,2.0314,2.0335,1.9364,1.8692,1.8204,1.6884,1.6032,1.5487,0.0,0.0,0.0,0.0,1.5324,1.5928,1.6678,1.7368,1.7827,1.7355,0.0,0.0,0.0,0.0,0.0,0.0,0.0,1.4885,1.4881,1.6716,1.8343,1.751,1.8244,1.8872,1.8001,1.6331,1.4659,1.3529,1.2359,1.1382,1.0807,1.0166,0.0,0.0,0.0,0.8838,0.8495,0.8828,0.8944,0.8536,0.776,0.7051,0.6538,0.6371,0.6126,0.5751,0.5365,0.4799,0.399,0.2962,0.1973,0.0,0.0,0.0,0.0,0.0,0.0,0.0,0.0,0.0,0.0,0.0,0.0,0.0,0.0,0.0,0.0,0.0,0.0,0.0,0.0,0.0,0.0,0.0,0.0,0.0,0.0,0.0,0.0,1.5343,1.6078,1.4935,1.7168,1.7921,0.0,0.0,0.0,0.0,0.0,0.0,1.824,1.867,1.9184,1.9882,2.0904,2.1726,2.2268,2.2728,2.3046,2.3264,2.3908,2.3579,2.2435,2.2497,2.2217,2.1641,2.0713,2.0192,1.9874,1.7812,1.6985,1.685,1.6003,1.6222,1.6905,1.6408,1.6883,1.78,1.8309,1.9002,1.9577,1.9012,1.8718,1.8268,1.6597,0.0,0.0,0.0,0.0,1.6219,1.633,1.7953,1.9426,1.8925,1.9479,1.9938,1.9412,1.826,1.6815,1.5179,1.3555,1.2341,1.2002,1.1295,0.0,0.9491,0.9721,0.9843,0.9408,0.9412,0.9192,0.8526,0.7952,0.7331,0.6594,0.6569,0.6422,0.6009,0.5741,0.5393,0.4924,0.387,0.2995,0.237,0.0,0.0,0.0,0.0,0.0,0.0,0.0,0.0,0.0,0.0,0.0,0.0,0.0,0.0,0.0,0.0,0.0,0.0,0.0,0.0,0.0,0.0,0.0,0.0,0.0,0.0,0.0,0.0,0.0,1.579,1.8955,0.0,0.0,0.0,0.0,2.0334,1.9199,1.9273,2.1181,2.1243,2.175,2.2837,2.3503,2.4098,2.4618,2.4662,2.4687,2.4673,2.475,2.4462,2.3891,2.3891,2.3308,2.2272,2.2176,2.1591,2.0566,1.9359,1.8889,1.894,1.8895,1.9283,1.9795,1.9015,1.9161,1.9652,1.8927,1.9207,1.9909,2.012,1.9808,1.9139,1.8019,1.7462,0.0,0.0,1.7671,1.8398,1.8668,1.9352,1.9959,1.9926,2.0162,2.0171,1.9457,1.8547,1.7679,1.706,1.5738,1.4627,1.429,0.0,1.1938,1.1428,1.1058,1.0584,0.9868,0.9671,0.9258,0.841,0.777,0.719,0.6643,0.6594,0.6483,0.621,0.5988,0.5754,0.5463,0.4913,0.4208,0.3339,0.2942,0.0,0.0,0.0,0.0,0.0,0.0,0.0,0.0,0.0,0.0,0.0,0.0,0.0,0.0,0.0,0.0,0.0,0.0,0.0,0.0,0.0,0.0,0.0,0.0,0.0,0.0,0.0,0.0,1.9475,2.1906,0.0,2.1029,2.0934,2.1359,2.2167,2.2134,2.2662,2.4067,2.4496,2.5025,2.5787,2.6352,2.6565,2.6402,2.6402,2.6226,2.5908,2.5908,2.5398,2.4519,2.4519,2.3873,2.2794,2.2443,2.2083,2.1659,2.0964,2.0479,2.0107,1.9377,1.9915,2.1003,1.9937,1.99,2.0349,1.9899,2.0123,2.0638,2.0825,2.0381,1.9632,1.8779,1.877,1.8831,1.7854,1.8495,1.9265,1.8402,1.9227,2.0024,1.9075,1.9408,1.9794,1.9237,1.8848,1.8386,1.7639,1.5845,1.4402,1.4229,1.3388,1.2435,1.1612,1.1455,1.0988,0.9821,0.9637,0.9186,0.8096,0.7788,0.7479,0.7028,0.6869,0.6693,0.6472,0.6106,0.5782,0.5511,0.4991,0.4628,0.4496,0.298,0.1472,0.0,0.0,0.0,0.0,0.0,0.0,0.0,0.0,0.0,0.0,0.0,0.0,0.0,0.0,0.0,0.0,0.0,0.0,0.0,0.0,0.0,0.0,0.0,0.0,0.0,2.0608,2.2255,2.2054,2.418,2.4996,2.3326,2.3489,2.3941,2.4494,2.4883,2.5498,2.6389,2.6804,2.718,2.7544,2.7908,2.7934,2.7557,2.7662,2.7383,2.6763,2.6871,2.6284,2.5154,2.4904,2.4331,2.3488,2.3118,2.2735,2.2327,2.2273,2.1945,2.1368,2.0598,2.1132,2.2192,2.096,2.073,2.0978,2.0655,2.083,2.1241,2.1491,2.1211,2.069,2.0196,2.0386,2.0521,1.9299,1.9642,2.0116,1.8865,1.9281,1.9791,1.8793,1.9022,1.9386,1.9057,1.9052,1.8758,1.7661,1.6133,1.4882,1.4468,1.3742,1.2904,1.202,1.1923,1.1435,0.9955,0.963,0.9114,0.8012,0.7717,0.7496,0.7221,0.6804,0.6532,0.6472,0.5884,0.5527,0.5502,0.4934,0.4696,0.4833,0.2832,0.143,0.0673,0.0,0.0,0.0,0.0,0.0,0.0,0.0,0.0,0.0,0.0,0.0,0.0,0.0,0.0,0.0,0.0,0.0,0.0,0.0,0.0,0.0,0.0,0.0,2.1101,2.3198,2.4481,2.3384,2.5686,2.6703,2.5129,2.598,2.6858,2.74,2.745,2.7689,2.8195,2.822,2.822,2.822,2.822,2.8208,2.8231,2.8447,2.8148,2.7374,2.7624,2.7116,2.5906,2.5199,2.4692,2.4337,2.4295,2.3606,2.2524,2.329,2.3252,2.2723,2.2709,2.3054,2.3445,2.2173,2.1665,2.1577,2.1153,2.126,2.1658,2.2135,2.2296,2.2296,2.2296,2.2296,2.2127,2.139,2.117,2.0983,2.0175,1.9624,1.9282,1.9282,1.9153,1.9001,1.9001,1.9166,1.8831,1.7238,1.6765,1.6257,1.5168,1.4211,1.3376,1.2724,1.2558,0.0,1.0335,0.9713,0.9093,0.8186,0.7557,0.7195,0.7195,0.6415,0.6004,0.6215,0.5352,0.504,0.5502,0.4889,0.4479,0.4324,0.2702,0.1921,0.2033,0.0,0.0,0.0,0.0,0.0,0.0,0.0,0.0,0.0,0.0,0.0,0.0,0.0,0.0,0.0,0.0,0.0,0.0,0.0,0.0,0.0,2.4883,2.5967,2.4226,2.5738,2.6978,2.6747,2.777,2.8578,2.8842,2.9148,2.9654,3.051,3.0915,3.1204,3.1366,3.1366,3.1366,3.1366,3.1366,3.1163,3.0767,3.0378,2.9862,2.9241,2.8842,2.8025,2.6835,2.6637,2.6018,2.5064,2.4586,2.4164,2.3823,2.3624,2.3426,2.3234,2.2859,2.3054,2.3445,2.2173,2.1081,2.0315,2.0823,2.1071,2.1291,2.2049,2.2296,2.2296,2.2296,2.2296,2.2081,2.093,2.0627,2.0365,1.9275,1.9033,1.9092,1.9092,1.9153,1.9222,1.9222,1.9259,1.9003,1.7961,1.724,1.631,1.4706,1.3958,1.349,1.316,1.2974,1.2338,1.0872,1.0272,0.9483,0.8167,0.7483,0.716,0.7258,0.6696,0.6447,0.6684,0.6148,0.5811,0.5791,0.5604,0.5252,0.4681,0.378,0.3144,0.0,0.0,0.0,0.0,0.0,0.0,0.0,0.0,0.0,0.0,0.0,0.0,0.0,0.0,0.0,0.0,0.0,0.0,0.0,0.0,0.0,0.0,2.8303,2.9803,2.8668,2.9116,2.9651,2.9964,3.0262,3.0679,3.1258,3.133,3.1544,3.2068,3.2435,3.2593,3.2593,3.2593,3.2593,3.2593,3.2593,3.2463,3.2152,3.1598,3.0983,3.0325,2.9502,2.8619,2.7634,2.7062,2.6439,2.585,2.5444,2.4954,2.4432,2.4384,2.406,2.3497,0.0,0.0,0.0,0.0,2.1393,2.0733,2.1103,2.1385,2.1615,2.2137,2.2296,2.2296,2.2296,2.2296,2.203,2.0759,2.0407,2.0131,1.8913,1.9057,1.9416,1.9082,1.9405,1.9711,1.937,1.904,1.8665,1.8188,1.7447,0.0,1.5072,1.4218,1.36,1.3219,1.3175,1.2655,1.1253,1.0996,1.0357,0.88,0.8316,0.8012,0.7782,0.7064,0.0,0.0,0.0,0.5837,0.5651,0.573,0.0,0.0,0.0,0.4027,0.3772,0.2761,0.0,0.0,0.0038,-0.0039,0.0,0.0,0.0,0.0,0.0,0.0,0.0,0.0,0.0,0.0,0.0,0.0,0.0,0.0,0.0,0.0,3.2003,3.3652,3.3496,3.2894,3.2493,3.2684,3.2648,3.2656,3.2832,3.2777,3.282,3.2925,3.2925,3.2925,3.2925,3.2925,0.0,0.0,0.0,3.2925,3.2925,3.2464,3.1882,3.1085,2.9968,2.9088,2.8396,2.7074,2.6538,2.6616,2.6529,2.5781,2.4679,2.5251,2.4792,2.3702,2.3702,2.3636,2.3489,2.2774,2.2294,2.1984,2.1788,0.0,0.0,2.2282,2.2296,2.231,2.2335,2.2349,2.2112,2.0967,2.0645,2.0383,1.9241,1.9677,2.0183,1.936,1.9858,2.0272,1.9481,1.8739,1.8243,1.8243,1.7594,1.6798,1.6058,1.4878,1.3838,1.3227,1.3303,1.2975,1.1708,1.1843,1.1469,0.9892,0.9568,0.0,0.8559,0.7482,0.6933,0.713,0.6184,0.557,0.546,0.5619,0.5525,0.5104,0.4832,0.4728,0.4785,0.428,0.4027,0.3935,0.1584,0.1217,0.0,0.0,0.0,0.0,0.0,0.0,0.0,0.0,0.0,0.0,0.0,0.0,0.0,0.0,0.0,3.0956,3.338,3.5275,3.5751,3.6122,3.5587,3.362,3.2933,3.3107,3.4404,3.4039,3.4075,3.4887,3.492,3.492,3.492,3.492,3.492,3.492,3.492,3.492,3.492,3.3782,3.3161,3.2961,3.116,0.0,2.9317,2.8515,2.785,2.7352,2.6832,2.6124,2.5367,2.4962,2.4578,2.4246,2.4246,2.3922,2.3458,2.3733,2.3083,2.2116,2.2392,2.2152,2.1794,2.218,2.2296,2.2335,2.2563,2.2621,0.0,2.218,2.2099,2.1947,2.1343,2.1341,2.1275,2.0416,2.0368,2.0272,1.9481,1.9187,1.9077,1.9077,1.8427,1.7778,1.7445,1.5989,1.4655,1.4061,1.3729,1.3437,1.311,1.2669,1.2092,1.1282,0.9926,0.9094,0.9131,0.7937,0.7261,0.742,0.6776,0.6381,0.6352,0.6388,0.637,0.6268,0.6006,0.5701,0.5347,0.503,0.4758,0.4522,0.3373,0.3426,0.0,0.0,0.0,0.0,0.0,0.0,0.0,0.0,0.0,0.0,0.0,2.8627,3.0049,0.0,3.2936,3.4362,3.6269,3.7595,3.7595,3.7484,3.6912,3.5658,3.4926,3.4868,3.5649,3.514,3.4953,3.5472,3.5504,3.5504,3.5504,3.5504,3.5504,3.5504,3.5504,3.534,3.4996,3.4349,3.3668,3.2976,3.1654,3.0685,3.0013,2.9041,2.8412,2.8053,2.7405,2.6886,2.6489,2.5753,2.5415,2.5341,2.5233,2.4824,2.4321,2.4457,2.3825,2.2916,2.3019,2.2575,2.2015,2.2378,2.25,2.2567,2.2848,2.296,2.2887,2.2572,2.2489,2.2397,2.1926,2.2106,2.2105,2.0934,2.0904,2.0837,1.9693,1.9052,1.8812,1.9224,1.8647,1.8067,1.7968,1.6775,1.5572,1.477,1.4147,1.3743,1.3698,1.3401,1.2941,1.2267,1.1331,1.0498,0.9859,0.8512,0.7599,0.7366,0.6972,0.6748,0.6748,0.6659,0.6595,0.66,0.6333,0.604,0.5704,0.5563,0.5431,0.5288,0.4991,0.4992,0.0,0.0,0.0,0.0,0.0,0.0,0.0,2.8755,2.9702,3.0941,3.1175,3.1839,3.3964,3.4845,3.5893,3.784,3.9137,3.9762,3.9215,3.855,3.808,3.808,3.7007,3.6357,3.6477,3.5893,3.5504,3.5504,3.5504,3.5554,3.5701,3.5701,3.5782,3.5941,3.582,3.5471,3.4941,3.4641,3.3962,3.2893,3.201,3.1283,3.0649,2.9345,2.8753,2.8723,2.805,2.7725,2.7621,2.6834,2.6487,2.6428,2.6276,2.5985,2.5593,2.5374,2.4813,2.4146,2.3888,2.3335,2.2723,2.2777,2.2797,2.286,2.3189,2.33,2.3233,2.2924,2.2833,2.2749,2.2409,2.282,2.2956,2.1634,2.1733,2.171,2.0171,1.9196,1.8761,1.9213,1.8775,1.8335,1.8335,1.7523,1.6512,1.5393,1.4503,1.3976,1.4011,1.3983,1.3752,1.3187,1.2745,1.1878,1.0324,0.9033,0.8069,0.7542,0.728,0.715,0.715,0.6876,0.6719,0.6727,0.6511,0.6294,0.6097,0.6097,0.6097,0.6097,0.6444,0.6403,2.8006,2.6923,2.6914,2.8693,2.8591,2.9148,0.0,3.3835,3.4365,3.7297,3.7877,3.8142,3.9128,3.9311,3.9434,3.9694,4.0352,4.0832,4.0752,4.0626,4.0499,4.0499,3.7595,3.5848,3.6432,3.5893,3.5504,3.5504,3.5504,3.5782,3.6446,3.6477,3.6798,3.7531,3.6911,3.6518,3.6438,3.5204,3.4515,3.434,3.2424,3.1477,3.134,2.9949,2.9307,2.9282,2.8596,2.8295,2.8254,2.7554,2.7178,2.7027,2.7001,2.7007,2.7047,2.7026,2.6557,2.5858,2.5427,2.4786,2.4053,2.3359,2.3141,2.32,2.3544,2.3631,2.3696,2.3945,2.4004,2.4044,2.4168,2.4265,2.4147,2.3376,2.326,2.2816,2.1045,2.0574,2.0261,1.9471,1.9224,1.9168,1.9168,1.8485,1.7401,1.5868,1.4803,1.4238,1.4405,1.4276,1.4208,1.4301,1.3216,1.1775,0.9999,0.9331,0.8873,0.8637,0.8271,0.806,0.806,0.7472,0.7138,0.7124,0.7101,0.6988,0.6789,0.6789,0.6789,0.681,0.7669,0.8004,3.0974,3.0211,3.0058,3.0945,3.2534,3.4242,3.5755,3.6878,3.8147,3.9893,4.0248,4.0451,4.1193,4.1337,4.1458,4.1868,4.2164,4.2183,4.1759,4.0913,4.0159,3.9729,3.7992,3.711,3.7764,3.7234,3.6829,3.6829,3.6829,3.6965,3.7263,3.7308,3.7456,3.7777,3.7089,3.653,3.6114,3.5495,3.4794,3.4014,3.3518,3.3097,3.2695,3.1702,3.0829,3.0051,3.0102,2.9897,2.9499,2.9374,2.899,2.849,2.832,2.8006,2.7619,2.7396,2.6984,2.6462,2.5738,2.5025,2.4312,2.3694,2.35,2.3555,2.3896,2.3996,2.4016,2.4161,2.4284,2.4393,2.4478,2.4602,2.4516,2.3834,2.36,2.3068,2.1449,2.1029,2.0696,1.9774,1.9586,1.9586,1.9586,1.8921,1.8161,1.7487,1.6479,1.5628,1.5239,1.5123,1.4885,1.4374,1.334,1.2286,1.134,1.0425,0.9781,0.9453,0.9282,0.9186,0.9186,0.8546,0.8248,0.8357,0.7834,0.751,0.7428,0.7428,0.7428,0.7435,0.7945,0.8734,3.2113,3.2281,3.275,3.3376,3.6045,3.843,3.8075,3.9419,4.0874,4.139,4.1496,4.1637,4.214,4.2252,4.253,4.3219,4.3352,4.3153,4.2622,4.1399,4.0284,3.9556,3.8841,3.8641,3.9117,3.8341,3.7793,3.7793,3.7793,3.7892,3.8092,3.8121,3.8206,3.843,3.7525,3.6809,3.6316,3.5852,3.5111,3.4178,3.4442,3.4319,3.3811,3.3136,3.2203,3.121,3.1636,3.1485,3.0926,3.113,3.0731,2.9998,2.9803,2.9168,2.834,2.805,2.7646,2.713,2.6387,2.5649,2.4896,2.4353,2.4052,2.3961,2.421,2.433,2.4366,2.4366,2.4469,2.4591,2.4628,2.4756,2.4751,2.4316,2.4104,2.3631,2.2272,2.1912,2.1579,2.0663,2.0481,2.0481,2.0481,1.9826,1.9365,1.9592,1.8721,1.7609,1.6336,1.6146,1.5717,1.4649,1.3683,1.2912,1.2353,1.1438,1.0735,1.0397,1.0418,1.0452,1.0452,0.9812,0.9418,0.9359,0.8836,0.8374,0.7964,0.8175,0.8301,0.8363,0.8768,0.9804,3.0387,3.1854,3.3897,3.6118,3.8362,4.0197,4.0916,4.166,4.2236,4.2252,4.2269,4.226,4.2293,4.2293,4.2547,4.328,4.3399,4.3382,4.3365,4.2706,4.1963,4.1193,4.0476,4.0037,4.0054,3.8695,3.7793,3.7793,3.7793,3.8121,3.8827,3.8881,3.9236,4.002,3.8635,3.7851,3.7817,3.6354,3.5571,3.5538,3.4834,3.4501,3.4462,3.3697,3.3209,3.2928,3.2947,3.2754,3.2416,3.2432,3.2005,3.1345,3.1326,3.0594,2.9539,2.9539,2.9038,2.8301,2.7883,2.7196,2.6408,2.5621,2.494,2.4486,2.4486,2.4623,2.4782,2.4782,2.479,2.4814,2.4949,2.4998,2.504,2.5215,2.5259,2.496,2.3935,2.3717,2.3423,2.2413,2.2231,2.2231,2.2231,2.1563,2.128,2.208,2.1481,2.0083,1.7671,1.7235,1.6694,1.5497,1.4515,1.3511,1.2395,1.203,1.176,1.1556,1.1736,1.1835,1.1835,1.1209,1.0512,0.9791,1.0259,0.9811,0.8374,0.9099,0.9551,0.9768,1.0676,1.161,3.4376,3.5998,3.746,3.9807,4.134,4.2479,4.3267,4.3234,4.3031,4.3031,4.1968,4.1036,4.1036,4.1036,4.1274,4.2022,4.284,4.325,4.2743,4.2817,4.2446,4.1157,4.0762,4.0631,4.0631,3.9859,3.9332,3.9332,3.9332,3.9428,3.9688,3.9705,3.9808,4.0096,3.914,3.8633,3.8633,3.7127,3.6554,3.6861,3.6467,3.6282,3.6265,3.604,3.5295,3.4198,3.4198,3.3547,3.2517,3.2842,3.2501,3.1832,3.2093,3.1296,3.0021,3.0201,2.9754,2.8938,2.8096,2.7714,2.7378,2.6042,2.5563,2.5404,2.4851,2.4746,2.4804,2.4804,2.485,2.4937,2.4992,2.5099,2.5214,2.5279,2.5308,2.5067,2.4192,2.3995,2.3731,2.2805,2.2622,2.2622,2.2622,2.2412,2.2291,2.2467,2.1242,1.9993,1.9171,1.7978,1.6815,1.5837,1.5254,1.4498,1.3457,1.3035,1.2799,1.2723,1.2799,1.2873,1.2964,1.2449,1.2034,1.1809,1.149,1.1089,1.058,1.0841,1.0993,1.1059,1.1376,1.2074,3.7953,3.9954,4.1625,4.3687,4.4788,4.5432,4.5646,4.4927,4.3858,4.2783,4.0957,3.9347,3.8547,3.8224,3.8539,3.9965,4.1121,4.1979,4.2454,4.2857,4.2736,4.177,4.1403,4.1223,4.1223,4.0914,4.0618,4.0417,4.0594,4.0618,4.0392,4.0594,4.0514,4.0121,3.9795,3.9501,3.93,3.8305,3.7815,3.7819,3.7692,3.7475,3.7209,3.7209,3.6575,3.5454,3.5169,3.4415,3.3391,3.3396,3.3114,3.2688,3.302,3.2348,3.1233,3.1496,3.0908,2.984,2.8822,2.8379,2.8081,2.7033,2.6648,2.6489,2.5958,2.5639,2.5431,2.5431,2.5278,2.5105,2.5105,2.5208,2.5308,2.5308,2.5308,2.5154,2.4639,2.4529,2.4351,2.3793,2.3697,2.3697,2.3697,2.3697,2.3578,2.3179,2.2156,2.1143,2.042,1.9079,1.7839,1.6885,1.6533,1.583,1.4545,1.4131,1.3822,1.354,1.3569,1.3679,1.3817,1.3535,1.3281,1.3049,1.2734,1.2309,1.1841,1.2055,1.2227,1.2344,1.2344,1.2891,4.0965,4.3507,4.6082,4.7583,4.8418,4.8688,4.786,4.653,4.4597,4.1598,3.9394,3.7354,3.5185,3.4411,3.4895,3.7443,3.8639,4.0135,4.2608,4.3032,4.3093,4.3101,4.2424,4.1941,4.1906,4.1906,4.1635,4.1041,4.149,4.1556,4.0972,4.149,4.1308,4.0229,4.0547,4.0486,3.9914,3.977,3.9292,3.849,3.8546,3.812,3.7338,3.7338,3.7131,3.6702,3.5927,3.5369,3.4949,3.4187,3.3852,3.3855,3.4111,3.3738,3.3056,3.3324,3.242,3.0966,3.0107,2.9257,2.8574,2.8537,2.8126,2.7669,2.7631,2.7169,2.6678,2.6678,2.6077,2.5423,2.5385,2.5365,2.5365,2.5308,2.5308,2.5308,2.5308,2.5308,2.5308,2.5308,2.5293,2.5317,2.5317,2.5317,2.5048,2.4283,2.4129,2.3381,2.1439,2.0532,1.9632,1.8534,1.8196,1.7335,1.5562,1.5196,1.4748,1.3984,1.4111,1.4283,1.4417,1.4423,1.4164,1.3584,1.3943,1.3516,1.2244,1.2814,1.3261,1.3559,1.3587,1.4072,4.4783,4.7107,4.8929,4.9873,4.9508,4.8688,4.7811,4.5529,4.3029,4.1051,3.8506,3.633,3.5167,3.5841,3.6976,3.8201,4.0859,4.3045,4.3718,4.4718,4.5156,4.4643,4.4392,4.4012,4.3416,4.3362,4.305,4.2297,4.1958,4.1729,4.1578,4.1725,4.1682,4.1375,4.1466,4.1446,4.1296,4.1058,4.0559,3.9823,4.0219,3.9993,3.9208,3.9208,3.851,3.7272,3.7071,3.6219,3.5,3.5042,3.4674,3.4123,3.4453,3.4055,3.3334,3.3588,3.3056,3.2099,3.1424,3.0503,2.9521,2.8912,2.8721,2.8614,2.8013,2.769,2.7563,2.7563,2.7409,2.7082,2.6447,2.6269,2.6096,2.5442,2.5308,2.5308,2.5308,2.5308,2.5308,2.5308,2.5339,2.5379,2.5379,2.5364,2.5286,2.5038,2.449,2.3683,2.2528,2.1541,2.0352,1.8723,1.7914,1.698,1.5661,1.5043,1.4648,1.4421,1.4478,1.4582,1.4752,1.4776,1.4705,1.4543,1.464,1.4532,1.4182,1.4338,1.4463,1.454,1.4596,1.5117,4.8524,5.0503,5.1912,5.2326,5.1593,5.028,4.8335,4.5556,4.2504,3.9501,3.6898,3.4743,3.3249,3.413,3.5607,3.7144,3.9766,4.2259,4.4104,4.5035,4.565,4.5944,4.5671,4.5143,4.4324,4.4251,4.3923,4.3123,4.2734,4.2444,4.2203,4.2424,4.2306,4.1832,4.2286,4.2542,4.2542,4.2394,4.1941,4.1176,4.1268,4.0883,4.007,3.9716,3.9137,3.8393,3.7896,3.7224,3.6484,3.6307,3.5739,3.4993,3.5284,3.4898,3.4176,3.4445,3.4014,3.325,3.2916,3.2173,3.1155,2.9915,2.9589,2.9594,2.9163,2.8777,2.8478,2.8537,2.8264,2.7832,2.7349,2.6921,2.6486,2.5981,2.5577,2.5308,2.5308,2.5312,2.535,2.5376,2.5411,2.5444,2.5444,2.5447,2.5418,2.5354,2.4956,2.436,2.3479,2.2201,2.0981,1.9903,1.9014,1.8062,1.7005,1.6576,1.6197,1.5851,1.5832,1.573,1.5525,1.5517,1.5373,1.5091,1.5011,1.5012,1.5072,1.5024,1.5204,1.5655,1.5673,1.6196,5.172,5.3335,5.4528,5.4436,5.372,5.216,4.8784,4.5603,4.2085,3.7553,3.5103,3.3154,3.1091,3.1647,3.3263,3.5854,3.776,4.0271,4.4141,4.4874,4.5535,4.6929,4.6581,4.5865,4.4947,4.4874,4.4488,4.357,4.3515,4.3286,4.2826,4.325,4.3051,4.2062,4.3032,4.3582,4.3582,4.3614,4.3297,4.2597,4.2181,4.1484,4.0514,3.9818,3.9552,3.9531,3.854,3.8233,3.8339,3.7686,3.6912,3.6147,3.629,3.5938,3.5324,3.5472,3.5021,3.4379,3.4263,3.3826,3.3,3.1309,3.0687,3.0609,3.0668,3.0078,2.9404,2.9521,2.8968,2.8322,2.8206,2.7559,2.692,2.6805,2.6203,2.5625,2.5505,2.5448,2.5438,2.5491,2.5503,2.5503,2.5503,2.5503,2.5498,2.5408,2.5401,2.5143,2.4377,2.2844,2.1711,2.1339,2.0537,1.9669,1.8705,1.8539,1.8189,1.7517,1.746,1.7185,1.6547,1.6503,1.6185,1.5487,1.5351,1.5356,1.5473,1.5361,1.5817,1.6771,1.6777,1.7251,5.2564,5.4161,5.5225,5.4564,5.3298,5.121,4.7353,4.3471,3.9721,3.633,3.4323,3.2992,3.248,3.3626,3.5427,3.7833,4.0127,4.2344,4.4416,4.5847,4.6782,4.7076,4.7553,4.7315,4.5828,4.5681,4.5076,4.3625,4.3515,4.3444,4.3375,4.3444,4.341,4.3214,4.3673,4.3909,4.3909,4.4252,4.4331,4.4199,4.4116,4.3263,4.1795,4.1644,4.0871,3.9599,3.9402,3.8961,3.8417,3.8496,3.8042,3.7269,3.6803,3.6553,3.6344,3.5782,3.5496,3.5261,3.4656,3.4353,3.4081,3.2985,3.2173,3.164,3.1657,3.1054,3.0354,3.0389,3.0266,3.0004,2.9327,2.895,2.858,2.7922,2.7636,2.7322,2.6609,2.5936,2.5493,2.5566,2.5573,2.5573,2.5573,2.5573,2.5545,2.5427,2.545,2.5407,2.5197,2.4283,2.3045,2.1472,2.0669,1.9853,1.8843,1.8268,1.7901,1.7812,1.7816,1.7762,1.7633,1.7621,1.7237,1.6384,1.6345,1.6348,1.6374,1.6412,1.6852,1.7678,1.773,1.8184,5.4014,5.5317,5.6033,5.5225,5.35,5.0842,4.6468,4.2318,3.8383,3.4878,3.3196,3.2208,3.1705,3.2951,3.4715,3.6662,3.79,3.9771,4.3085,4.4156,4.5223,4.6892,4.7443,4.7445,4.6884,4.588,4.5121,4.4739,4.4106,4.3756,4.3756,4.3958,4.4065,4.4065,4.4237,4.4304,4.4304,4.4501,4.4593,4.4593,4.4321,4.3767,4.2951,4.209,4.1341,4.0701,4.0122,3.9725,3.9499,3.9637,3.921,3.8402,3.7663,3.714,3.6703,3.5894,3.5616,3.56,3.5246,3.5173,3.5159,3.47,3.3653,3.2572,3.2628,3.2342,3.1937,3.1531,3.1384,3.1148,3.0293,2.968,2.9211,2.8826,2.8382,2.7951,2.7554,2.6825,2.6251,2.632,2.5951,2.5658,2.5658,2.5658,2.5628,2.5524,2.5537,2.5535,2.5465,2.5095,2.4321,2.3009,2.2172,2.1502,2.102,2.0684,2.0324,1.9898,1.988,1.949,1.8614,1.8573,1.8161,1.7297,1.7314,1.7282,1.7224,1.7284,1.7732,1.8525,1.8556,1.9011,5.4938,5.6121,5.6742,5.5914,5.3778,5.0578,4.5712,4.1408,3.7325,3.3406,3.1935,3.1176,3.0641,3.1615,3.3157,3.5113,3.5354,3.6956,4.1723,4.2612,4.3841,4.674,4.7387,4.76,4.7556,4.6127,4.5297,4.5534,4.473,4.4204,4.4132,4.4433,4.4593,4.4593,4.4657,4.4714,4.4714,4.4769,4.4806,4.4806,4.4388,4.4083,4.3854,4.2536,4.1884,4.1742,4.0861,4.0485,4.0496,4.0523,4.0171,3.9523,3.8678,3.7878,3.7104,3.6245,3.5865,3.5735,3.5752,3.5828,3.5916,3.5916,3.4825,3.3535,3.3571,3.3461,3.3192,3.2617,3.2262,3.1898,3.1194,3.0347,2.9681,2.9681,2.9024,2.842,2.8497,2.7819,2.7218,2.7265,2.6738,2.6269,2.6269,2.6094,2.5956,2.5899,2.5724,2.5601,2.5537,2.5522,2.5295,2.4675,2.3803,2.3213,2.3049,2.301,2.2725,2.2037,2.1822,2.1123,1.9787,1.9564,1.9043,1.8176,1.8217,1.8183,1.8075,1.8135,1.8585,1.9389,1.9564,2.0027,5.4204,5.5923,5.7218,5.636,5.3739,4.9997,4.4802,4.0325,3.6114,3.21,3.0537,3.0048,3.0592,3.0804,3.1944,3.507,3.5567,3.7074,4.1418,4.3361,4.4978,4.6789,4.8351,4.8704,4.7203,4.6892,4.6209,4.4819,4.4898,4.4872,4.4553,4.458,4.4593,4.4593,4.4896,4.5052,4.5052,4.5352,4.5504,4.5513,4.5454,4.5021,4.4243,4.4098,4.3203,4.1788,4.1695,4.1204,4.0512,4.0636,4.0641,4.0498,3.9746,3.8937,3.807,3.7332,3.6555,3.5882,3.5951,3.5976,3.5996,3.5996,3.5331,3.4569,3.457,3.4023,3.3379,3.3301,3.2754,3.2168,3.209,3.1339,3.0573,3.0573,2.9967,2.9391,2.9452,2.8789,2.8164,2.8184,2.8125,2.8066,2.8066,2.7402,2.6854,2.6798,2.6166,2.5661,2.5601,2.5637,2.5644,2.5585,2.4733,2.3883,2.3141,2.3085,2.3062,2.2976,2.2234,2.1698,2.148,2.0701,1.9878,1.9011,1.8992,1.8988,1.8977,1.8982,1.9434,2.0292,2.1085,2.1461,5.3642,5.5711,5.6943,5.636,5.333,4.9303,4.4574,3.9841,3.5445,3.195,3.0519,2.9967,3.0237,3.0285,3.1041,3.3365,3.3261,3.4363,3.8576,4.0097,4.1946,4.5125,4.6552,4.7686,4.8758,4.7299,4.5879,4.496,4.5211,4.5342,4.5222,4.5192,4.5192,4.5192,4.5332,4.541,4.541,4.5522,4.5594,4.5594,4.5594,4.5421,4.5075,4.4608,4.3772,4.2632,4.2162,4.1491,4.0676,4.0747,4.0767,4.0679,3.9898,3.9403,3.897,3.7671,3.7013,3.6675,3.6171,3.5996,3.5996,3.5996,3.5762,3.5488,3.5488,3.5234,3.4863,3.4336,3.3945,3.3476,3.2461,3.1894,3.1597,3.1597,3.1363,3.0993,3.0488,2.9707,2.9082,2.9082,2.8652,2.8301,2.8301,2.8008,2.7754,2.7694,2.7415,2.7173,2.7104,2.6701,2.6408,2.6367,2.5625,2.4995,2.4647,2.4608,2.4364,2.3807,2.3433,2.2783,2.1744,2.1377,2.0759,1.9844,1.9863,1.9864,1.9812,2.0344,2.077,2.1075,2.1423,2.1772,5.2024,5.4436,5.5905,5.5696,5.2338,4.8009,4.3933,3.9258,3.4877,3.1641,3.0453,3.0,3.0,3.0,3.0559,3.2275,3.2007,3.2963,3.6958,3.8145,3.9861,4.3316,4.4702,4.6164,4.8226,4.6797,4.5597,4.527,4.5476,4.5594,4.5594,4.5594,4.5594,4.5594,4.5594,4.5594,4.5594,4.5643,4.5657,4.5657,4.5673,4.5684,4.5672,4.5144,4.4319,4.3228,4.2713,4.1836,4.0801,4.0831,4.086,4.0805,4.0273,3.9936,3.9629,3.8439,3.7865,3.7559,3.6699,3.6387,3.6348,3.6074,3.5996,3.5996,3.5996,3.5996,3.5879,3.5254,3.4902,3.4375,3.293,3.2559,3.2559,3.2559,3.2559,3.2383,3.1755,3.1132,3.0644,3.0368,2.9802,2.9314,2.904,2.8782,2.8576,2.8528,2.8328,2.8162,2.8133,2.7626,2.7244,2.7223,2.6491,2.5901,2.5606,2.5566,2.5272,2.4599,2.4325,2.3656,2.246,2.215,2.1703,2.1046,2.1083,2.1095,2.1043,2.1652,2.1937,2.1889,2.2158,2.2513,4.8956,5.1749,5.4016,5.434,5.0647,4.6021,4.2592,3.845,3.4347,3.0923,3.0099,3.0,3.0,3.0,3.059,3.2395,3.2697,3.3928,3.7485,3.8738,3.9954,4.1723,4.3338,4.4361,4.4445,4.5148,4.5605,4.5605,4.5594,4.5594,4.5594,4.5594,4.5594,4.5594,4.5594,4.5594,4.5594,4.5725,4.5796,4.5796,4.5876,4.5894,4.5894,4.5899,4.4984,4.3408,4.3389,4.2397,4.0805,4.093,4.0994,4.1019,4.113,4.0664,3.9902,3.9883,3.9336,3.8457,3.7598,3.7285,3.7148,3.6289,3.5996,3.5996,3.5996,3.5996,3.5996,3.5996,3.5371,3.4492,3.3613,3.3398,3.3398,3.3398,3.3398,3.3378,3.3293,3.3311,3.3084,3.2158,3.196,3.1693,3.0813,2.989,2.9294,2.9291,2.8604,2.8123,2.8186,2.8123,2.8106,2.8187,2.7349,2.6434,2.5569,2.5491,2.546,2.5386,2.4638,2.4153,2.4081,2.3244,2.2778,2.2778,2.2759,2.2778,2.2778,2.2778,2.2797,2.2816,2.3663,2.4091,4.4857,4.6913,4.8162,4.8658,4.5843,4.228,3.9778,3.6332,3.3019,3.0803,3.0299,3.0273,3.0273,3.0273,3.0842,3.2551,3.3345,3.4339,3.6113,3.8525,4.0558,4.1769,4.4859,4.6691,4.6151,4.6345,4.624,4.5633,4.5594,4.5594,4.5594,4.5594,4.5594,4.5594,4.5594,4.5594,4.5594,4.5643,4.5715,4.5803,4.5814,4.5855,4.5903,4.5992,4.512,4.354,4.3583,4.264,4.1078,4.1126,4.1148,4.1149,4.1172,4.1035,4.0723,4.0117,3.9726,3.9355,3.8496,3.8184,3.8047,3.7168,3.6852,3.6726,3.6171,3.5996,3.5996,3.5946,3.5347,3.4744,3.4917,3.4632,3.4277,3.4225,3.4254,3.4121,3.3493,3.3397,3.3301,3.3005,3.2913,3.2798,3.2524,3.1697,3.1255,3.1743,3.1133,3.0617,3.0592,3.0096,2.9508,2.8879,2.809,2.7279,2.6391,2.578,2.5394,2.5335,2.5099,2.47,2.411,2.3841,2.3333,2.2611,2.2592,2.2592,2.2592,2.3059,2.3271,2.3309,2.4032,2.4044,4.0648,4.2402,4.3203,4.408,4.1757,3.8871,3.7401,3.4693,3.2091,3.0722,3.0433,3.0433,3.0433,3.0433,3.0896,3.2264,3.3191,3.4173,3.5392,3.7865,4.0127,4.1686,4.4463,4.6185,4.6012,4.629,4.6251,4.5719,4.568,4.568,4.568,4.568,4.5692,4.5708,4.5681,4.568,4.568,4.575,4.5825,4.5915,4.5962,4.5838,4.5557,4.5654,4.4768,4.3148,4.3182,4.2441,0.0,4.1191,4.1191,4.1191,4.1191,4.1191,4.1133,4.0586,4.0391,4.0254,3.9332,3.8803,3.8373,3.7482,3.6934,3.6545,3.6048,3.5926,3.5948,3.5849,3.5699,3.5667,3.6077,3.5887,3.5557,3.5522,3.5291,3.4921,3.4375,3.4277,3.418,3.3866,3.375,3.3565,3.3231,3.2672,3.242,3.2882,3.2543,3.221,3.2191,3.1474,3.0732,3.0176,2.9091,2.8198,2.7657,2.6831,2.6187,2.5813,2.5788,2.5384,2.4479,2.4436,2.4126,2.3462,2.3397,2.3397,2.3443,2.3808,2.3983,2.4002,2.4418,2.4318,0.0,3.8084,3.9039,4.0304,3.8223,3.5769,3.5342,3.3412,0.0,3.0675,3.0544,3.0607,3.0607,3.065,3.0984,3.185,3.2714,3.384,3.5384,3.7154,3.9225,4.1705,4.2815,4.3682,4.4434,4.5299,4.5816,4.5816,4.5816,4.5816,4.5816,4.5816,4.585,4.5899,4.5847,4.5809,4.5816,4.599,4.6084,4.611,4.6224,4.5879,4.5098,4.5039,4.4082,4.248,4.2422,4.1933,4.1191,4.1191,4.1191,4.1191,4.1191,4.1191,4.1191,4.1191,4.1171,4.1033,4.0107,3.9215,3.8331,3.7391,3.651,3.5801,3.5787,3.5825,3.5867,3.5739,3.6315,3.7008,3.6977,3.704,3.7086,3.7004,3.6432,3.5878,3.5801,3.5781,3.5567,3.4821,3.4531,3.4134,3.333,3.3084,3.3006,3.3083,3.3026,3.3017,3.3082,3.2378,3.1887,3.1884,3.0364,2.9357,2.93,2.8434,2.7544,2.6736,2.664,2.6159,2.5131,2.5024,2.4998,2.4955,2.483,2.4823,2.4936,2.4823,2.4775,2.476,2.476,2.476,3.174,0.0,3.4336,3.4801,3.382,3.2736,0.0,3.1705,3.0752,3.054,3.1073,3.1561,3.1561,3.2112,3.284,3.3711,3.5104,3.6215,3.6669,3.9326,4.1869,4.3653,4.4696,4.5094,4.4681,4.5405,4.5877,4.5877,4.5877,4.5877,4.5877,4.5877,4.5872,4.5899,4.5974,4.5986,4.5877,4.5912,4.5995,4.6108,4.6122,4.6083,4.5976,4.5293,4.4414,4.3359,4.2695,4.1933,4.1191,4.1191,4.1191,4.1191,4.1191,4.1148,4.1051,4.1051,4.0988,4.086,4.0627,4.0,3.9156,3.8228,3.7368,3.6662,3.6505,3.613,3.5736,3.5653,3.628,3.6965,3.6803,3.7385,3.7805,3.7085,3.7325,3.7518,3.6844,3.6692,3.6634,3.6455,3.5812,3.5223,3.5025,3.4388,3.4122,3.4788,3.4314,3.3911,3.3923,3.3744,3.3352,3.2709,3.2261,3.1756,3.1141,2.9121,2.7818,2.7601,2.6967,2.6422,2.6003,2.5348,2.4885,2.4628,2.4591,2.4501,2.44,2.4501,2.4495,2.433,2.433,2.433,3.0292,3.1193,3.2203,3.2391,3.2396,3.2372,3.2473,3.1833,3.1236,3.1236,3.1316,3.1512,3.1924,3.2372,3.311,3.4338,3.5611,3.7001,3.8575,4.0733,4.2762,4.4392,4.5036,4.5351,4.5342,4.5735,4.5992,4.5992,4.5992,4.5992,4.5992,4.5992,4.6027,4.6082,4.6149,4.614,4.5992,4.6047,4.6117,4.6199,4.6199,4.5815,4.5098,4.4629,4.373,4.2539,4.2051,4.1561,4.1105,4.1105,4.1077,4.1021,4.1021,4.0964,4.0911,4.0911,4.0864,4.0735,4.0314,3.9583,3.8731,3.7808,3.7483,3.7351,3.6851,3.6729,3.6593,3.578,3.6762,3.7945,3.7422,3.8029,3.8634,3.8112,3.8077,3.8033,3.7593,3.7482,3.7477,3.7496,3.7077,3.6703,3.6703,3.6286,3.6103,3.6584,3.5911,3.5353,3.5353,3.4686,3.398,3.3391,3.2617,3.2077,3.189,2.9944,2.8651,2.8462,2.7919,2.7179,2.6189,2.561,2.5019,2.4366,2.4444,2.4401,2.419,2.4312,2.4312,2.419,2.419,2.419,3.0569,3.1264,3.1917,3.1844,3.249,3.3165,3.3284,3.2786,3.2305,3.2305,3.1819,3.1625,3.2368,3.2703,3.3352,3.4778,3.5916,3.7739,4.0967,4.2061,4.3074,4.4538,4.4842,4.5196,4.5863,4.6042,4.612,4.612,4.612,4.612,4.612,4.612,4.6177,4.6308,4.6308,4.6247,4.6122,4.6247,4.6308,4.6308,4.6172,4.5332,4.3887,4.3613,4.2715,4.1366,4.1229,4.1083,4.0964,4.0964,4.0908,4.0797,4.0797,4.0789,4.0773,4.0773,4.0764,4.0616,3.9694,3.8782,3.7892,3.7296,3.7507,3.7892,3.7276,3.77,3.8027,3.6346,3.7526,3.913,3.8392,3.8834,3.9457,3.9323,3.8834,3.8358,3.8304,3.8247,3.8224,3.8272,3.8131,3.8007,3.8007,3.8007,3.795,3.7815,3.718,3.6647,3.6483,3.5255,3.4304,3.4023,3.2721,3.2012,3.2336,3.1072,3.0008,2.941,2.8968,2.796,2.6211,2.5953,2.5449,2.4585,2.4727,2.4681,2.4373,2.4373,2.4318,2.419,2.419,2.419,3.1364,3.2733,3.3621,3.2236,3.2585,3.3287,3.336,3.3298,3.3204,3.3204,3.3688,3.4147,3.4284,3.5504,3.6581,3.6835,3.8846,4.1261,4.3838,4.4395,4.4617,4.4772,4.5548,4.5817,4.5233,4.5839,4.6268,4.6268,4.6268,4.6268,4.6268,4.6268,4.6289,4.6308,4.6308,4.6289,4.6268,4.6289,4.6308,4.6289,4.5547,4.5058,4.4746,4.3262,4.2438,4.2082,4.1358,4.0957,4.0824,4.0824,4.0813,4.0797,4.0797,4.0776,4.0713,4.0713,4.0636,4.0424,3.9605,3.8748,3.8104,3.87,3.8488,3.8104,3.8719,3.9477,3.9765,3.8084,3.843,3.9265,3.915,3.9708,4.015,3.9457,3.9727,3.9927,3.9256,3.9107,3.9099,3.9102,3.851,3.8007,3.8007,3.8007,3.7757,3.7,3.6788,3.6365,3.5466,3.5323,3.5199,3.4931,3.4666,3.4249,3.3578,3.31,3.2204,3.0727,2.9255,2.7949,2.6804,2.6567,2.6387,2.6227,2.6258,2.5937,2.5209,2.5209,2.4879,2.419,2.419,2.419,3.1607,3.2815,3.3847,3.403,3.5066,3.5962,3.5584,3.5516,3.5363,3.4895,3.4742,3.4842,3.531,3.6445,3.7891,3.9766,4.1465,4.2948,4.4055,4.4256,4.4452,4.4855,4.5311,4.5625,4.5703,4.6055,4.6308,4.6308,4.6308,4.6308,4.6308,4.6308,4.6308,4.6308,4.6308,4.6054,4.5557,4.5536,4.5562,4.5586,4.4682,4.3993,4.3504,4.2645,4.1952,4.147,4.1078,4.0832,4.0742,4.0742,4.0696,4.0647,4.0647,4.0617,4.0582,4.0582,4.0282,3.9861,3.9938,3.94,3.8757,3.9169,3.9323,3.9342,3.9304,3.9861,4.0342,3.9573,3.965,3.9842,3.9419,3.99,4.0419,4.0035,4.0227,4.04,4.0035,3.9958,3.9958,3.9958,3.9631,3.9361,3.9361,3.9361,3.92,3.8815,3.8373,3.7939,3.7424,3.7071,3.6677,3.6217,3.5401,3.4774,3.4465,3.3142,3.1874,3.0796,2.9148,2.7979,2.7407,2.6878,2.6602,2.6602,2.6602,2.6429,2.6043,2.6043,2.586,2.5493,2.5493,2.5254,3.2234,3.3053,3.3987,3.5539,3.6891,3.7852,3.7906,3.7753,3.7539,3.7266,3.6699,3.6367,3.6836,3.7637,3.9199,4.2226,4.3437,4.4082,4.4277,4.4316,4.4551,4.5234,4.5293,4.5566,4.623,4.6308,4.6308,4.6308,4.6113,4.5996,4.5996,4.5801,4.5683,4.5662,4.5662,4.5302,4.4556,4.4358,4.438,4.4601,4.3695,4.2893,4.2244,4.1932,4.1412,4.0779,4.0779,4.0727,4.0642,4.0642,4.0589,4.0496,4.0496,4.0496,4.0496,4.0496,4.0112,3.9669,4.0285,3.9977,3.9323,3.9515,3.9881,4.015,3.9708,4.0015,4.0496,4.0496,4.0496,4.0362,3.9746,4.0035,4.0496,4.0496,4.0496,4.0496,4.0496,4.0496,4.0554,4.0766,4.065,4.0554,4.0766,4.065,4.0439,4.0246,3.9688,3.9212,3.8935,3.8305,3.767,3.7154,3.5934,3.5123,3.5005,3.3128,3.1704,3.1106,2.9514,2.8521,2.8367,2.7585,2.7152,2.7152,2.7152,2.706,2.6888,2.6888,2.6778,2.6602,2.6602,2.6264,3.3935,3.446,3.476,3.5747,3.6085,3.6792,3.9179,3.9082,3.8945,4.0508,4.0781,4.0508,3.9766,4.0332,4.1504,4.3301,4.4336,4.5195,4.5996,4.6113,4.6133,4.6191,4.6211,4.623,4.6289,4.6308,4.6308,4.6308,4.5547,4.5098,4.5098,4.4336,4.3864,4.3798,4.3796,4.3692,4.3514,4.2712,4.2716,4.3506,4.2634,4.2183,4.2085,4.1272,4.0839,4.0715,4.0715,4.0623,4.0519,4.0519,4.0512,4.0496,4.0496,4.0496,4.0496,4.0496,4.0458,4.0419,4.0477,3.9977,3.9419,4.0169,3.9958,3.9515,4.0208,4.0458,4.0496,4.0496,4.0496,4.0496,4.0439,4.0458,4.0496,4.0496,4.0496,4.0496,4.0496,4.0496,4.0746,4.1546,4.1046,4.0766,4.1566,4.1046,4.0246,3.9496,3.9342,3.8908,3.7855,3.7611,3.7424,3.7133,3.6761,3.6127,3.5087,3.4174,3.3288,3.2511,3.0931,3.005,3.0026,2.9244,2.884,2.884,2.884,2.8455,2.7714,2.7714,2.7328,2.6602,2.6602,2.6576,3.3529,3.4241,3.4872,3.5778,3.6815,3.8027,3.9551,4.0879,4.166,4.1289,4.2031,4.2324,4.0917,4.1796,4.2969,4.3592,4.4882,4.5918,4.625,4.6308,4.6308,4.6308,4.6308,4.6308,4.6308,4.5801,4.5488,4.5488,4.4687,4.4199,4.4199,4.3842,4.3632,4.3595,4.3521,4.3179,4.2533,4.2198,4.1632,4.0842,4.1103,4.1237,4.1212,4.0808,4.0591,4.0581,4.0581,4.0545,4.0496,4.0496,4.0496,4.0496,4.0496,4.0496,4.0496,4.0496,4.0496,4.0496,4.0496,4.0304,4.0092,4.04,4.0285,4.0208,4.1046,4.0931,4.0612,4.1162,4.0912,4.0631,4.1162,4.0912,4.0766,4.1854,4.17,4.1316,4.1316,4.172,4.1893,4.1143,4.1162,4.1239,4.1027,4.0727,4.04,4.0092,3.9895,3.964,3.9204,3.8943,3.8682,3.8377,3.7657,3.6592,3.5128,3.4729,3.4197,3.3403,3.1843,3.0944,3.0944,3.065,3.0485,3.0485,3.0008,2.9604,2.9292,2.8796,2.8381,2.8088,2.8088,2.7813,3.3239,3.3845,3.4567,3.5703,3.7519,3.9316,4.043,4.2031,4.3281,4.3223,4.3691,4.375,4.2557,4.3085,4.3789,4.4061,4.5331,4.6308,4.6308,4.6308,4.6308,4.6308,4.6308,4.6191,4.5918,4.5351,4.4883,4.4609,4.3768,4.3258,4.3258,4.2914,4.2716,4.2692,4.2611,4.2101,4.1165,4.1145,4.0519,3.9304,3.9952,4.0256,4.0256,4.0152,4.0265,4.0496,4.0496,4.0496,4.0496,4.0496,4.0496,4.0496,4.0496,4.0496,4.0496,4.0496,4.0496,4.0496,4.0496,4.0496,4.0496,4.0496,4.0496,4.0612,4.12,4.0969,4.0631,4.1219,4.095,4.0708,4.1566,4.1143,4.0881,4.2335,4.2027,4.147,4.1731,4.2277,4.2489,4.1824,4.197,4.2104,4.1766,4.1497,4.1227,4.095,4.0741,4.0548,4.0261,3.9861,3.9445,3.9013,3.8317,3.7312,3.5917,3.5775,3.5459,3.4633,3.3293,3.2302,3.1806,3.1531,3.1397,3.1397,3.0852,3.0577,3.0577,2.9757,2.9372,2.9372,2.9115,2.8712,3.3398,3.3398,3.3828,3.5566,3.7969,4.0332,4.2031,4.2422,4.3418,4.6875,4.6191,4.498,4.498,4.4297,4.3984,4.4844,4.5723,4.6308,4.6308,4.6308,4.6308,4.6308,4.6289,4.5957,4.5078,4.498,4.4609,4.373,4.2798,4.2266,4.2266,4.1322,4.0746,4.0684,4.0678,4.0237,3.9304,3.9284,3.9284,3.9284,3.9284,3.9284,3.9304,3.9304,3.9746,4.0496,4.0496,4.0496,4.0496,4.0496,4.0496,4.0496,4.0496,4.0496,4.0496,4.0496,4.0496,4.0496,4.0496,4.0496,4.0496,4.0516,4.0516,4.0496,4.0535,4.0516,4.0496,4.0516,4.0516,4.0708,4.1585,4.1162,4.0727,4.1604,4.1162,4.0766,4.1643,4.1827,4.2316,4.397,4.3643,4.3355,4.4143,4.3624,4.2788,4.1923,4.1788,4.1473,4.0596,3.9955,3.9364,3.8747,3.8707,3.8377,3.7566,3.7492,3.7162,3.634,3.5481,3.4289,3.2693,3.1843,3.1415,3.1415,3.1415,3.1415,3.1415,3.0595,3.021,3.0173,2.9372,2.9005,3.3574,3.3398,3.3965,3.6328,3.8418,4.0508,4.2793,4.3789,4.4707,4.6348,4.5293,4.4082,4.408,4.4374,4.4492,4.4139,4.5331,4.6308,4.6308,4.6308,4.6308,4.6308,4.5762,4.5273,4.5039,4.3841,4.2737,4.1879,4.0935,4.0133,3.9516,3.9166,3.8956,3.8933,3.8852,3.8662,3.8392,3.8392,3.8084,3.7469,3.7469,3.8411,4.015,4.015,4.0265,4.0496,4.0496,4.0496,4.0496,4.0496,4.0496,4.0496,4.0496,4.0496,4.0496,4.0496,4.0496,4.0496,4.0496,4.0496,4.0593,4.1219,4.0989,4.0823,4.2632,4.192,4.0766,4.197,4.1458,4.0843,4.2335,4.2066,4.1777,4.322,4.3355,4.3239,4.3508,4.4047,4.4259,4.3585,4.372,4.3835,4.3508,4.3023,4.2403,4.1571,4.1043,4.0378,3.9362,3.9078,3.8888,3.8723,3.8707,3.8377,3.7566,3.7492,3.7162,3.634,3.5481,3.4802,3.4307,3.3532,3.3091,3.3091,3.254,3.2247,3.2247,3.087,3.021,3.0173,2.9372,2.9005,3.3066,3.3418,3.4531,3.7168,3.9375,4.1484,4.3711,4.5156,4.6074,4.6186,4.5428,4.4726,4.4656,4.484,4.4941,4.4764,4.5605,4.6308,4.6308,4.6308,4.6172,4.582,4.5312,4.4726,4.3999,4.2636,4.1404,4.0504,3.9567,3.8803,3.8287,3.8178,3.8124,3.8124,3.8033,3.7834,3.7488,3.7488,3.7219,3.6692,3.6692,3.77,3.9515,3.9515,3.9881,4.0496,4.0496,4.0496,4.0496,4.0496,4.0496,4.0496,4.0496,4.0496,4.0496,4.0496,4.0496,4.0496,4.0496,4.0727,4.1046,4.1239,4.1162,4.1239,4.2431,4.1728,4.0727,4.1758,4.1566,4.1242,4.2139,4.2586,4.3047,4.4066,4.4066,4.3912,4.422,4.4701,4.4902,4.422,4.447,4.4617,4.4,4.3693,4.3224,4.2248,4.1462,4.0588,3.949,3.9339,3.9168,3.8759,3.8707,3.8505,3.801,3.7988,3.7771,3.7276,3.6468,3.5991,3.5991,3.4578,3.3807,3.3807,3.333,3.3091,3.306,3.1775,3.1152,3.1115,2.9996,2.9386,3.2402,3.3535,3.5371,3.8242,4.0879,4.3164,4.4766,4.6328,4.7185,4.6197,4.6139,4.6224,4.6091,4.5531,4.5331,4.6131,4.6209,4.6151,4.6151,4.6092,4.5741,4.496,4.4784,4.4095,4.244,4.1419,4.0479,3.9544,3.8593,3.8026,3.7968,3.7835,3.7777,3.7777,3.7777,3.7392,3.6596,3.6596,3.6596,3.6596,3.6596,3.7038,3.7873,3.7969,3.8834,4.0285,4.0362,4.04,4.04,4.0477,4.0496,4.0496,4.0496,4.0496,4.0496,4.0496,4.0496,4.0496,4.0496,4.1027,4.1585,4.0939,4.1219,4.1681,4.1035,4.0785,4.0746,4.0746,4.1316,4.1882,4.1628,4.2938,4.4316,4.4367,4.3801,4.3475,4.4205,4.4359,4.4617,4.5405,4.554,4.5438,4.5107,4.5011,4.458,4.3384,4.2402,4.1458,4.0505,4.0239,3.9814,3.8903,3.8744,3.8707,3.8707,3.8707,3.8707,3.8707,3.7936,3.7474,3.7382,3.5147,3.3917,3.3917,3.3844,3.3807,3.3807,3.2986,3.2601,3.2564,3.1005,3.0093,3.3984,3.4434,3.5801,4.043,4.3535,4.5566,4.5937,4.6223,4.6161,4.5271,4.5552,4.5981,4.5959,4.5815,4.5771,4.5965,4.5465,4.5037,4.5037,4.4455,4.3952,4.3776,4.315,4.2575,4.2185,4.0691,3.9403,3.8559,3.7583,3.6742,3.6106,3.6047,3.6038,3.6038,3.6038,3.5942,3.575,3.575,3.575,3.575,3.575,3.6192,3.7,3.77,3.82,3.8584,3.9265,3.9554,3.9611,4.0246,4.0496,4.0496,4.0496,4.0496,4.0496,4.0496,4.0496,4.0496,4.0496,4.0631,4.0977,4.2162,4.22,4.2008,4.3143,4.3047,4.2547,4.2547,4.2681,4.2962,4.3506,4.3974,4.4407,4.4832,4.48,4.4723,4.4876,4.4934,4.4982,4.5173,4.5211,4.5096,4.4776,4.4441,4.3837,4.2702,4.1289,4.0486,4.0872,3.9823,3.9203,3.9604,3.9074,3.8707,3.8707,3.8707,3.8707,3.8707,3.7936,3.7217,3.6593,3.5404,3.4747,3.4747,3.4119,3.3807,3.3807,3.2986,3.2601,3.2583,3.1604,3.0919,3.3848,3.498,3.707,4.1836,4.4668,4.6308,4.6308,4.6147,4.5881,4.541,4.5628,4.5881,4.5861,4.5551,4.5319,4.5319,4.4623,4.4082,4.4082,4.3697,4.3249,4.2837,4.2385,4.1762,4.0893,3.9601,3.844,3.7545,3.6639,3.5942,3.5519,3.55,3.55,3.55,3.55,3.55,3.55,3.55,3.55,3.55,3.55,3.5712,3.6173,3.743,3.8238,3.8642,3.9111,3.9304,3.9361,4.0169,4.0265,3.9958,4.0342,4.0496,4.0496,4.0496,4.0496,4.0496,4.0496,4.0766,4.1277,4.2181,4.245,4.2585,4.3451,4.3431,4.3104,4.3104,4.3374,4.3707,4.3806,4.4257,4.4618,4.4382,4.4732,4.5063,4.4896,4.4861,4.4861,4.4861,4.4861,4.4745,4.4373,4.402,4.3564,4.2962,4.2158,4.1644,4.168,4.0946,4.0286,3.9937,3.9515,3.9129,3.8726,3.8707,3.8707,3.8707,3.8303,3.7881,3.7477,3.6285,3.5243,3.4435,3.4009,3.3807,3.3807,3.3191,3.2889,3.2857,3.184,3.1141,3.291,3.541,3.8672,4.2519,4.4785,4.6113,4.6249,4.6077,4.5894,4.5891,4.5852,4.58,4.5589,4.5037,4.4599,4.4443,4.369,4.3112,4.3112,4.2995,4.2626,4.1917,4.1703,4.1024,3.9524,3.8506,3.7602,3.6764,3.5942,3.55,3.55,3.55,3.55,3.55,3.55,3.55,3.55,3.55,3.55,3.55,3.55,3.55,3.5558,3.6949,3.7969,3.8661,3.8957,3.9092,3.915,4.0112,4.0112,3.9573,4.0246,4.0496,4.0496,4.0496,4.0496,4.0489,4.0449,4.0918,4.1615,4.1863,4.236,4.2931,4.322,4.3316,4.3316,4.3316,4.3848,4.4317,4.3751,4.4306,4.4769,4.3804,4.4261,4.483,4.4553,4.4501,4.4501,4.4501,4.4447,4.4308,4.3971,4.3677,4.3515,4.3515,4.3386,4.3039,4.2396,4.2176,4.1589,4.0249,3.9974,3.9625,3.8964,3.8781,3.8707,3.8707,3.8707,3.8634,3.8505,3.6996,3.5465,3.3932,3.3767,3.3694,3.3694,3.3288,3.3075,3.3042,3.1989,3.1299,3.1827,3.5838,4.0039,4.207,4.3887,4.5331,4.5973,4.6001,4.5872,4.5826,4.5725,4.5401,4.4636,4.4429,4.4137,4.3424,4.2576,4.2017,4.2017,4.1369,4.0829,4.0733,4.0097,3.9588,3.9348,3.7858,3.6843,3.6719,3.5942,3.55,3.55,3.55,3.55,3.55,3.55,3.55,3.55,3.55,3.55,3.55,3.55,3.55,3.5519,3.5731,3.5904,3.6096,3.7546,3.8161,3.8296,3.9861,4.0439,4.0342,4.0458,4.0496,4.0496,4.0496,4.0496,4.0465,4.0232,4.0389,4.0869,4.2097,4.2257,4.2239,4.3701,4.4143,4.4143,4.4143,4.4547,4.4968,4.4881,4.4754,4.454,4.4061,4.4028,4.4132,4.4087,4.4073,4.4073,4.4073,4.3852,4.3631,4.3582,4.3531,4.3515,4.3515,4.291,4.2415,4.2304,4.1682,4.1168,4.0948,4.0322,3.9845,3.9753,3.9093,3.8707,3.8707,3.8707,3.8395,3.7694,3.6388,3.5261,3.4341,3.3635,3.3273,3.3273,3.2809,3.2599,3.2599,3.2428,3.209,3.2284,3.5192,3.8222,4.0362,4.1824,4.3201,4.4919,4.5209,4.5248,4.5719,4.5685,4.5325,4.4451,4.3932,4.3355,4.2508,4.1643,4.1066,4.1066,4.0746,4.0323,3.9881,3.9515,3.8911,3.793,3.7161,3.65,3.6058,3.5692,3.55,3.55,3.55,3.55,3.55,3.5026,3.4776,3.4776,3.4295,3.4295,3.4776,3.5269,3.55,3.55,3.55,3.575,3.6212,3.6942,3.7546,3.8104,3.9323,3.9823,3.9881,4.0323,4.0496,4.0481,4.0339,4.0372,4.0465,4.0186,4.0286,4.0649,4.1571,4.1715,4.1791,4.3295,4.3738,4.3833,4.4328,4.4646,4.4769,4.4548,4.4373,4.418,4.3804,4.3726,4.3726,4.3726,4.3726,4.3726,4.3726,4.3597,4.3515,4.3515,4.3515,4.3515,4.3515,4.3185,4.28,4.2359,4.2378,4.1937,4.0579,4.0506,4.0212,3.9294,3.8909,3.8707,3.8707,3.8707,3.8542,3.8193,3.691,3.62,3.614,3.3939,3.2809,3.2809,3.2332,3.2109,3.2092,3.1878,3.1657,3.131,3.3311,3.5504,3.7565,3.9215,4.0933,4.3175,4.3785,4.4105,4.4929,4.5036,4.4701,4.3835,4.3355,4.2739,4.1643,4.0912,4.0496,4.0496,4.0323,3.9977,3.9381,3.8911,3.8123,3.6827,3.6519,3.6154,3.5558,3.55,3.55,3.55,3.55,3.5404,3.5173,3.4545,3.4205,3.4205,3.3564,3.366,3.4545,3.4968,3.5288,3.55,3.55,3.5827,3.6404,3.6615,3.7065,3.7738,3.8604,3.9054,3.9237,3.9832,4.0145,4.0248,4.0052,4.011,4.025,4.0171,4.0205,4.0384,4.1132,4.1279,4.1404,4.2621,4.3001,4.3158,4.4027,4.4207,4.411,4.4017,4.394,4.382,4.3546,4.3515,4.3515,4.3515,4.3515,4.3515,4.3515,4.3515,4.3515,4.3515,4.3515,4.3515,4.3515,4.3331,4.2892,4.2103,4.2525,4.2121,4.0102,4.0432,4.0322,3.9111,3.8817,3.8707,3.8707,3.8707,3.8707,3.8707,3.7439,3.6904,3.7305,3.4433,3.2965,3.3085,3.2441,3.2065,3.1934,3.1417,3.119,2.7212,2.971,3.252,3.3417,3.6101,3.8956,4.0543,4.1546,4.2338,4.3092,4.3228,4.297,4.2077,4.2566,4.2547,4.0843,4.0535,4.0496,4.0496,3.9842,3.9361,3.9304,3.7834,3.6788,3.6712,3.6,3.5558,3.55,3.55,3.55,3.55,3.55,3.5115,3.4302,3.4225,3.4205,3.4205,3.4167,3.4564,3.5423,3.4641,3.4699,3.55,3.55,3.5519,3.5596,3.6365,3.6731,3.6846,3.7719,3.8364,3.8823,3.8861,3.919,3.9645,3.9634,3.9634,3.9712,4.0136,3.9996,3.9863,4.1154,4.1246,4.0983,4.1899,4.217,4.2335,4.3152,4.3144,4.3054,4.3811,4.3756,4.3513,4.3496,4.3515,4.3515,4.3515,4.3515,4.3515,4.3515,4.3515,4.3515,4.3515,4.3515,4.3515,4.3515,4.2837,4.2066,4.126,4.1187,4.0891,3.9992,3.9937,3.9918,3.9827,3.9148,3.8707,3.8707,3.8707,3.8707,3.8707,3.7471,3.6823,3.6839,3.5028,3.4294,3.4677,3.3578,3.2762,3.2266,3.1532,3.119,2.7798,2.9379,3.1347,3.2182,3.3685,3.5493,3.7648,3.9244,4.0489,4.1282,4.2316,4.2835,4.1962,4.2066,4.1873,4.0689,4.0496,4.0496,4.0496,3.9804,3.9092,3.8527,3.743,3.65,3.5981,3.5673,3.55,3.55,3.55,3.55,3.55,3.55,3.5365,3.5045,3.4487,3.3686,3.2602,3.2602,3.3006,3.3833,3.4083,3.456,3.5239,3.5239,3.5138,3.5,3.5294,3.5801,3.6463,3.6593,3.7394,3.8536,3.8536,3.8983,3.9576,3.9352,3.9432,3.959,3.9554,3.9545,3.9647,3.9922,3.9864,3.9842,4.0481,4.0688,4.0859,4.1657,4.1792,4.1886,4.2701,4.2807,4.2855,4.3386,4.3515,4.3515,4.3515,4.3515,4.3515,4.3515,4.3515,4.3515,4.3515,4.3057,4.291,4.3423,4.2818,4.2194,4.1919,4.2323,4.1937,4.01,4.0359,4.0469,3.9937,3.9166,3.8927,3.9441,3.9001,3.8707,3.8707,3.7927,3.7513,3.7513,3.6593,3.5565,3.4416,3.3672,3.2954,3.2293,3.2039,3.1667,2.8094,2.8854,3.0072,3.1482,3.2,3.2805,3.5303,3.6757,3.7822,3.8642,3.995,4.0854,4.0585,4.0527,4.0527,4.0496,4.0496,4.0496,4.0496,3.9554,3.8642,3.8065,3.6988,3.6096,3.5558,3.55,3.55,3.55,3.55,3.55,3.55,3.55,3.5231,3.4654,3.4064,3.3103,3.1718,3.1968,3.2475,3.3201,3.3784,3.4381,3.4963,3.4963,3.4879,3.4684,3.4572,3.4997,3.5742,3.5578,3.6424,3.7829,3.7829,3.8433,3.9262,3.904,3.9109,3.9287,3.9356,3.9332,3.9305,3.9356,3.9365,3.9396,3.9464,3.968,4.001,4.0561,4.0875,4.1279,4.2084,4.2506,4.2837,4.3369,4.3515,4.3515,4.3515,4.3515,4.3515,4.3515,4.3515,4.3515,4.3515,4.3057,4.2873,4.3423,4.2818,4.2304,4.2304,4.2525,4.2084,4.0469,4.0765,4.0875,4.0359,3.9808,3.9735,4.0267,3.9551,3.9093,3.9093,3.8328,3.7893,3.7893,3.7267,3.6276,3.4946,3.4326,3.3581,3.2682,3.2682,3.2256,0.0,0.0,0.0,3.1023,3.1065,3.1127,3.3551,3.4129,3.4391,3.525,3.6096,3.6923,3.7777,3.795,3.8488,4.0131,4.0419,4.0439,4.0439,3.9027,3.7988,3.7969,3.6519,3.5538,3.55,3.55,3.55,3.55,3.55,3.55,3.55,3.5481,3.4692,3.2987,3.2891,3.2487,3.1712,3.2442,3.3137,3.3762,3.3762,3.4071,3.4684,3.4684,3.4674,3.4653,3.4334,3.4368,3.4674,3.4674,3.5451,3.6645,3.6682,3.7503,3.867,3.8689,3.8707,3.8817,3.9588,3.935,3.8836,3.9606,3.9845,3.9717,3.8946,3.9239,3.9863,3.9882,4.0469,4.126,4.2084,4.2892,4.3515,4.3515,4.3515,4.3515,4.3515,4.3515,4.3515,4.3515,4.3515,4.3515,4.3515,4.3478,4.3478,4.3515,4.2818,4.2304,4.2323,4.1662,4.115,4.1132,4.1132,4.1132,4.1132,4.1113,4.1113,4.1132,4.0377,3.9953,3.9953,3.8689,3.7966,3.7948,3.6993,3.6485,3.6409,3.5668,3.4644,3.344,3.3389,3.3,2.8946,0.0,0.0,0.0,0.0,0.0,3.1295,3.2391,3.3333,3.3564,3.4788,3.5904,3.6154,3.6673,3.7219,3.768,3.8277,3.8681,3.8681,3.8296,3.7777,3.7142,3.6654,3.6135,3.5558,3.55,3.55,3.55,3.55,3.55,3.55,3.4911,3.4334,3.3859,3.266,3.1834,3.1417,3.1009,3.1421,3.2636,3.2636,3.325,3.4345,3.4345,3.4218,3.4037,3.3954,3.3967,3.4055,3.4055,3.462,3.5542,3.615,3.6996,3.7915,3.8487,3.8707,3.8726,3.8946,3.8891,3.8744,3.8964,3.9038,3.9001,3.8781,3.8854,3.9148,3.9735,4.0065,4.0543,4.1937,4.2892,4.3515,4.3515,4.3515,4.3515,4.3515,4.3515,4.3515,4.3515,4.3515,4.3515,4.3515,4.302,4.2818,4.3423,4.2818,4.2506,4.3075,4.2965,4.2598,4.2029,4.1974,4.1974,4.1974,4.1425,4.1352,4.1937,4.1222,4.0781,4.0781,4.041,3.9856,3.907,3.8777,3.8018,3.6684,3.59,3.5064,3.4167,3.3085,3.278,0.0,0.0,0.0,3.0596,0.0,0.0,3.0327,3.0871,3.1218,3.0871,3.1891,3.2949,3.3308,3.4058,3.4615,3.4615,3.5622,3.6796,3.7853,3.77,3.7276,3.675,3.6404,3.6019,3.5558,3.55,3.55,3.55,3.55,3.55,3.55,3.4661,3.4032,3.366,3.2372,3.1405,3.0757,3.0959,3.12,3.1541,3.2207,3.2884,3.3531,3.3531,3.3634,3.3807,3.3807,3.3807,3.3807,3.3807,3.427,3.5096,3.5973,3.6795,3.7603,3.8395,3.8707,3.8707,3.8707,3.8707,3.8707,3.8707,3.8707,3.8707,3.8707,3.8707,3.8872,3.9662,4.0377,4.1185,4.247,4.3149,4.3515,4.3515,4.3515,4.3515,4.3515,4.3515,4.3515,4.3515,4.3515,4.3515,4.3515,4.3112,4.2947,4.3441,4.3094,4.2965,4.3441,4.3515,4.3331,4.2837,4.28,4.28,4.28,4.2378,4.2304,4.2763,4.2047,4.159,4.159,4.054,3.9823,3.9512,3.8429,3.7353,3.6299,3.6163,3.5707,3.4928,3.344,3.2983,0.0,0.0,0.0,0.0,3.0892,0.0,3.0008,2.9725,2.9115,2.8217,2.8684,2.9486,3.025,3.1115,3.1673,3.1552,3.2968,3.4879,3.7257,3.7065,3.6673,3.6577,3.6,3.5596,3.5519,3.55,3.55,3.55,3.55,3.5462,3.5365,3.4526,3.3654,3.275,3.1917,3.1001,2.9939,3.1415,3.1627,3.0559,3.2002,3.2605,3.2472,3.2472,3.2908,3.3678,3.3678,3.3715,3.3807,3.3807,3.427,3.5096,3.5973,3.6795,3.7603,3.8395,3.8707,3.8707,3.8707,3.8707,3.8707,3.8707,3.8707,3.8707,3.8707,3.8707,3.8872,3.9662,4.1056,4.2451,4.3167,4.3441,4.3515,4.3515,4.3515,4.3515,4.3515,4.3515,4.3515,4.3515,4.3515,4.3515,4.3515,4.3515,4.3515,4.3515,4.3515,4.3515,4.3515,4.3515,4.3515,4.3515,4.3515,4.3515,4.3515,4.3515,4.3515,4.3515,4.2818,4.2416,4.2348,4.011,3.9073,3.9517,3.7016,3.5718,3.5718,3.6349,3.6299,3.5566,3.4078,3.3406,0.0,0.0,2.9946,2.9723,3.0329,0.0,2.8707,2.9711,3.0625,2.9173,2.9544,3.0192,3.0365,3.1115,3.1449,3.0695,3.202,3.3564,3.4763,3.5968,3.6462,3.5808,3.6173,3.6212,3.5558,3.55,3.55,3.55,3.55,3.5192,3.4487,3.3622,3.2679,3.1651,3.0777,3.0064,2.9523,2.9841,3.0091,3.0274,3.0599,3.106,3.1623,3.1623,3.2063,3.2821,3.2821,3.3201,3.3807,3.3807,3.427,3.5096,3.5973,3.6795,3.7603,3.8395,3.8707,3.8707,3.8707,3.8707,3.8707,3.8707,3.8707,3.8707,3.8707,3.8707,3.8872,3.9662,4.1056,4.2341,4.2488,4.3002,4.3515,4.3515,4.3515,4.3515,4.3515,4.3515,4.3515,4.3515,4.3515,4.3515,4.3515,4.3515,4.3515,4.3515,4.3515,4.3515,4.3515,4.3515,4.3515,4.3515,4.3515,4.3515,4.3515,4.3515,4.3515,4.3515,4.3349,4.3084,4.2629,4.2132,4.1192,3.9769,3.7638,3.6575,3.6575,3.6079,3.5752,3.5566,3.4078,3.3406,3.0091,3.0211,3.0096,2.9657,2.9848,0.0,0.0,2.8383,2.8734,2.7928,2.7767,2.7748,2.7748,2.8458,2.8893,2.8421,2.9813,3.154,3.3256,3.4256,3.4661,3.425,3.4564,3.4814,3.4853,3.4853,3.4853,3.4853,3.4449,3.4139,3.4009,3.2783,3.1988,3.1748,3.0498,2.9893,2.9998,2.9998,3.0064,3.021,3.021,3.0411,3.0815,3.1231,3.1623,3.2045,3.2852,3.3201,3.3238,3.3623,3.427,3.5041,3.5481,3.5899,3.6395,3.7643,3.8102,3.8157,3.856,3.8707,3.8707,3.8707,3.8707,3.8707,3.8707,3.8982,3.9386,3.979,4.1056,4.2304,4.2304,4.2892,4.3515,4.3515,4.3515,4.3515,4.3515,4.3515,4.3515,4.3515,4.3515,4.3515,4.3515,4.3515,4.3515,4.3515,4.3515,4.3515,4.3515,4.3515,4.3515,4.3515,4.3515,4.3515,4.3515,4.3515,4.3515,4.3515,4.325,4.2813,4.2118,4.1201,3.9757,3.7729,3.746,3.6975,3.6197,3.5785,3.56,3.5566,3.4472,3.3947,3.0557,3.0619,3.0505,3.0028,2.9627,2.8966,0.0,0.0,0.0,2.6466,2.5963,2.5612,2.5612,2.6179,2.6536,2.6199,2.7746,2.9532,3.1097,3.1783,3.2443,3.3288,3.2814,3.2891,3.409,3.4052,3.3955,3.3955,3.3269,3.2969,3.3301,3.2003,3.1368,3.1657,3.0509,3.0076,3.0508,3.0675,3.0657,3.043,3.043,3.043,3.0448,3.1103,3.1476,3.1696,3.2999,3.3293,3.2876,3.3532,3.4192,3.4784,3.4949,3.5096,3.5426,3.6942,3.7492,3.7621,3.8414,3.8707,3.8707,3.8707,3.8707,3.8707,3.8707,3.9148,3.9662,3.9662,4.0836,4.2066,4.2066,4.2782,4.3515,4.3515,4.3515,4.3515,4.3515,4.3515,4.3515,4.3515,4.3515,4.3515,4.3515,4.3515,4.3515,4.3515,4.3515,4.3515,4.3515,4.3515,4.3515,4.3515,4.3515,4.3515,4.3515,4.3515,4.3444,4.3357,4.2776,4.2149,4.1398,3.9697,3.7916,3.6096,3.7127,3.7009,3.56,3.56,3.56,3.5583,3.4844,3.4489,3.1741,3.2148,3.1617,2.9417,2.991,2.9964,2.6237,0.0,2.8124,2.6696,0.0,2.7396,2.7396,0.0,0.0,2.5501,2.73,2.8224,2.6244,2.7931,3.0809,3.4736,3.2538,3.1621,3.3975,3.3506,3.3045,3.3045,3.2795,3.2329,3.1623,3.1227,3.0621,2.9742,3.0226,3.0423,3.0251,3.095,3.1293,3.1268,3.1268,3.1268,3.1268,3.136,3.1788,3.2472,3.2656,3.3091,3.3678,3.3752,3.3844,3.4009,3.4729,3.5463,3.6266,3.718,3.7492,3.7621,3.8414,3.8707,3.8707,3.8707,3.8707,3.8707,3.8707,3.8762,3.8836,3.8836,4.001,4.1242,4.1242,4.2359,4.3515,4.3515,4.3515,4.3515,4.3515,4.3515,4.3515,4.3515,4.3515,4.3515,4.3515,4.3515,4.3515,4.3515,4.3515,4.3515,4.3515,4.3515,4.3515,4.3515,4.3515,4.3515,4.3515,4.3515,4.3286,4.2826,4.2065,4.1441,4.0981,3.9682,3.8536,3.7669,3.7161,3.6485,3.56,3.56,3.56,3.5583,3.4844,3.4489,3.1516,3.1616,3.1279,3.0288,2.9808,2.9103,2.7309,2.7035,2.7131,2.6907,0.0,0.0,0.0,0.0,0.0,0.0,2.5964,2.6651,2.6562,2.6626,2.7752,3.0631,3.0113,3.0165,3.1776,3.2103,3.1775,3.0781,3.0502,3.0358,3.0324,2.9681,2.9491,2.9854,2.9732,2.9842,3.0191,3.0081,3.0485,3.1397,3.0925,3.0705,3.0742,3.1678,3.177,3.128,3.2687,3.322,3.3146,3.3605,3.3807,3.3825,3.4174,3.4541,3.5,3.6321,3.6813,3.6997,3.8267,3.8707,3.8707,3.8707,3.8707,3.8707,3.8707,3.8707,3.8799,3.9258,4.023,4.1205,4.168,4.2635,4.3515,4.3515,4.3515,4.3515,4.3515,4.3515,4.3515,4.3515,4.3515,4.3515,4.3515,4.3515,4.3515,4.3515,4.3515,4.3515,4.3515,4.3515,4.3515,4.3515,4.3515,4.3515,4.3515,4.3515,4.3268,4.2713,4.1314,4.0106,3.9207,3.905,3.8227,3.6597,3.7144,3.684,3.56,3.56,3.56,3.5583,3.5278,3.5148,3.1911,3.1977,3.1757,3.1354,3.0302,2.9111,2.8101,2.7265,2.6785,2.7123,2.6949,0.0,0.0,0.0,2.5534,0.0,0.0,2.5938,2.6453,2.5876,2.6066,2.7835,2.8562,2.9091,2.9532,3.0196,3.0068,2.8763,2.8517,2.8643,2.9156,2.8493,2.8759,3.0166,2.9861,3.0032,3.0852,3.0491,3.0907,3.2058,3.1237,3.098,3.1219,3.2161,3.2069,3.1274,3.3036,3.3476,3.2981,3.3568,3.3807,3.3807,3.3807,3.3935,3.4321,3.5752,3.6431,3.6817,3.823,3.8707,3.8707,3.8707,3.8707,3.8707,3.8707,3.8707,3.8817,3.9405,4.0304,4.1224,4.1827,4.2727,4.3515,4.3515,4.3515,4.3515,4.3515,4.3515,4.3515,4.3515,4.3515,4.3515,4.3515,4.3515,4.3515,4.3515,4.3515,4.3515,4.3515,4.3515,4.3515,4.3515,4.3515,4.3515,4.3515,4.3375,4.2886,4.196,4.0634,3.9391,3.8251,3.8903,3.843,3.6586,3.7635,3.7466,3.5943,3.5943,3.5802,3.56,3.56,3.56,3.3598,3.4285,3.39,3.2291,3.1832,3.0955,2.7755,2.7761,2.8194,2.7368,2.7946,2.8381,2.7562,2.7418,0.0,0.0,0.0,0.0,0.0,2.5181,2.6863,2.8747,2.8925,2.86,2.7854,2.781,2.7746,2.7563,2.7488,2.7643,2.8119,2.8117,2.8746,3.0155,3.0925,3.1715,3.2509,3.3275,3.366,3.3715,3.2913,3.2931,3.366,3.2931,3.2999,3.3697,3.377,3.3788,3.3752,3.3788,3.3807,3.3807,3.3807,3.427,3.5078,3.5973,3.6795,3.7584,3.8414,3.8707,3.8707,3.8707,3.8707,3.8707,3.8707,3.8707,3.8707,3.8726,3.9866,4.1113,4.1132,4.2304,4.3515,4.3515,4.3515,4.3515,4.3515,4.3515,4.3515,4.3515,4.3515,4.3515,4.3515,4.3515,4.3515,4.3515,4.3515,4.3515,4.3515,4.3515,4.3515,4.3515,4.3515,4.3515,4.3515,4.3014,4.192,3.9998,4.0014,3.9765,3.8988,3.9673,3.9706,3.8903,3.8937,3.8251,3.6761,3.6761,3.6349,3.56,3.56,3.56,3.2515,3.3071,3.3275,3.2699,3.173,3.0591,2.9389,2.9138,2.9036,2.8602,2.897,2.9101,2.8255,2.7777,0.0,0.0,0.0,0.0,0.0,2.4188,2.5194,2.6934,2.7171,2.7077,2.679,2.7267,2.7075,2.5861,2.6091,2.6339,2.6507,2.6893,2.7561,2.8587,2.9402,2.9941,3.0216,3.1005,3.1678,3.2223,3.1935,3.2228,3.2999,3.2711,3.2748,3.3041,3.3568,3.3807,3.3807,3.3807,3.3807,3.3807,3.3807,3.4633,3.5899,3.6193,3.6813,3.7621,3.8414,3.8707,3.8707,3.8707,3.8707,3.8707,3.8707,3.9074,3.9606,4.0139,4.0673,4.1352,4.2415,4.269,4.2837,4.3369,4.3515,4.3515,4.3515,4.3515,4.3515,4.3515,4.3515,4.3515,4.3515,4.3515,4.3515,4.3515,4.3515,4.3515,4.3515,4.3515,4.3515,4.3515,4.3515,4.3357,4.2995,4.2083,4.123,4.0562,4.0256,3.9774,3.9022,3.9723,3.9512,3.8311,3.8751,3.8497,3.7533,3.7049,3.666,3.6366,3.5859,3.56,3.1574,3.2242,3.2791,3.2785,3.2207,3.144,3.0785,3.0664,3.0599,3.0161,3.0351,3.0312,2.9392,2.87,0.0,0.0,0.0,0.0,0.0,2.4169,2.4567,2.5648,2.581,2.593,2.6167,2.6448,2.5972,2.4448,2.499,2.5342,2.5207,2.616,2.7175,2.8191,2.9005,2.9702,3.0271,3.0785,3.1458,3.2247,3.1953,3.2247,3.3023,3.2729,3.2748,3.3073,3.3568,3.3807,3.3807,3.3807,3.3807,3.3825,3.4119,3.5073,3.6303,3.6303,3.6982,3.7991,3.8524,3.8707,3.8707,3.8707,3.8707,3.8707,3.8707,3.9056,3.957,4.0086,4.0655,4.1334,4.2378,4.269,4.2855,4.3386,4.3515,4.3515,4.3515,4.3515,4.3515,4.3515,4.3515,4.3515,4.3515,4.3515,4.3515,4.3515,4.3515,4.3515,4.3515,4.3515,4.3515,4.3515,4.3339,4.2902,4.2142,4.1358,4.0827,4.0631,4.0286,3.9893,3.9419,3.9859,3.9656,3.87,3.914,3.9022,3.8294,3.7804,3.7455,3.7161,3.6383,3.6028]}]]